[[{"header":{"parameterUnit":"m.s-1","parameterCategory":1,"la1":31.0,"la2":29.5877,"lo1":-88.7671,"lo2":-86.6584,"dy":0.0162,"dx":0.0185,"nx":115,"ny":88,"refTime":"2023-09-17T12:00:00:Z","depth":0,"parameterNumber":2,"parameterNumberName":"U-component_of_WINDS"},"data":[0.0,0.0,0.0,0.0,0.0,0.0,0.0,0.0,0.0,0.0,0.0,0.0,0.0,0.0,0.0,0.0,0.0,0.0,0.0,0.0,0.0,0.0,0.0,0.0,0.0,0.0,0.0,0.0,0.0,0.0,0.0,0.0,0.0,0.0,0.0,0.0,0.0,0.0,0.0,0.0,0.0,0.0,0.0,0.0,0.0,0.0,0.0,0.0,0.0,0.0,0.0,0.0,0.0,0.0,0.0,0.0,0.0,0.0,0.0,0.0,0.0,0.0,0.0,0.0,0.0,0.0,0.0,0.0,0.0,0.0,0.0,0.0,0.0,0.0,0.0,0.0,0.0,0.0,0.0,0.0,0.0,0.0,0.0,0.0,0.0,0.0,0.0,0.0,0.0,0.0,0.0,0.0,0.0,0.0,0.0,0.0,0.0,0.0,0.0,0.0,0.0,0.0,0.0,0.0,0.0,0.0,0.0,0.0,0.0,0.0,0.0,0.0,0.0,0.0,0.0,0.0,0.0,0.0,0.0,0.0,0.0,0.0,0.0,0.0,0.0,0.0,0.0,0.0,0.0,0.0,0.0,0.0,0.0,0.0,0.0,0.0,0.0,0.0,0.0,0.0,0.0,0.0,0.0,0.0,0.0,0.0,0.0,0.0,0.0,0.0,0.0,0.0,0.0,0.0,0.0,0.0,0.0,0.0,0.0,0.0,0.0,0.0,0.0,0.0,0.0,0.0,0.0,0.0,0.0,0.0,0.0,0.0,0.0,0.0,0.0,0.0,0.0,0.0,0.0,0.0,0.0,0.0,0.0,0.0,0.0,0.0,0.0,0.0,0.0,0.0,0.0,0.0,0.0,0.0,0.0,0.0,0.0,0.0,0.0,0.0,0.0,0.0,0.0,0.0,0.0,0.0,0.0,0.0,0.0,0.0,0.0,0.0,0.0,0.0,0.0,0.0,0.0,0.0,0.0,0.0,0.0,0.0,0.0,0.0,0.0,0.0,0.0,0.0,0.0,0.0,0.0,0.0,0.0,0.0,0.0,0.0,0.0,0.0,0.0,0.0,0.0,0.0,0.0,0.0,0.0,0.0,0.0,0.0,0.0,0.0,0.0,0.0,0.0,0.0,0.0,0.0,0.0,0.0,0.0,0.0,0.0,0.0,0.0,0.0,0.0,0.0,0.0,0.0,0.0,0.0,0.0,0.0,0.0,0.0,0.0,0.0,0.0,0.0,0.0,0.0,0.0,0.0,0.0,0.0,0.0,0.0,0.0,0.0,0.0,0.0,0.0,0.0,0.0,0.0,0.0,0.0,0.0,0.0,0.0,0.0,0.0,0.0,0.0,0.0,0.0,0.0,0.0,0.0,0.0,0.0,0.0,0.0,0.0,0.0,0.0,0.0,0.0,0.0,0.0,0.0,0.0,0.0,0.0,0.0,0.0,0.0,0.0,0.0,0.0,0.0,0.0,0.0,0.0,0.0,0.0,0.0,0.0,0.0,0.0,0.0,0.0,0.0,0.0,0.0,0.0,0.0,0.0,0.0,0.0,0.0,0.0,0.0,0.0,0.0,0.0,0.0,0.0,0.0,0.0,0.0,0.0,0.0,0.0,0.0,0.0,0.0,0.0,0.0,0.0,0.0,0.0,0.0,0.0,0.0,0.0,0.0,0.0,0.0,0.0,0.0,0.0,0.0,0.0,0.0,0.0,0.0,0.0,0.0,0.0,0.0,0.0,0.0,0.0,0.0,0.0,0.0,0.0,0.0,0.0,0.0,0.0,0.0,0.0,0.0,0.0,0.0,0.0,0.0,0.0,0.0,0.0,0.0,0.0,0.0,0.0,0.0,0.0,0.0,0.0,0.0,0.0,0.0,0.0,0.0,0.0,0.0,0.0,0.0,0.0,0.0,0.0,0.0,0.0,0.0,0.0,0.0,0.0,0.0,0.0,0.0,0.0,0.0,0.0,0.0,0.0,0.0,0.0,0.0,0.0,0.0,0.0,0.0,0.0,0.0,0.0,0.0,0.0,0.0,0.0,0.0,0.0,0.0,0.0,0.0,0.0,0.0,0.0,0.0,0.0,0.0,0.0,0.0,0.0,0.0,0.0,0.0,0.0,0.0,0.0,0.0,0.0,0.0,0.0,0.0,0.0,0.0,0.0,0.0,0.0,0.0,0.0,0.0,0.0,0.0,0.0,0.0,0.0,0.0,0.0,0.0,0.0,0.0,0.0,0.0,0.0,0.0,0.0,0.0,0.0,0.0,0.0,0.0,0.0,0.0,0.0,0.0,0.0,0.0,0.0,0.0,0.0,0.0,0.0,0.0,0.0,0.0,0.0,0.0,0.0,0.0,0.0,0.0,0.0,0.0,0.0,0.0,0.0,0.0,0.0,0.0,0.0,0.0,0.0,0.0,0.0,0.0,0.0,0.0,0.0,0.0,0.0,0.0,0.0,0.0,0.0,0.0,0.0,0.0,0.0,0.0,0.0,0.0,0.0,0.0,0.0,0.0,0.0,0.0,0.0,0.0,0.0,0.0,0.0,0.0,0.0,0.0,0.0,0.0,0.0,0.0,0.0,0.0,0.0,0.0,0.0,0.0,0.0,0.0,0.0,0.0,0.0,0.0,0.0,0.0,0.0,0.0,0.0,0.0,0.0,0.0,0.0,0.0,0.0,0.0,0.0,0.0,0.0,0.0,0.0,0.0,0.0,0.0,0.0,0.0,0.0,0.0,0.0,0.0,0.0,0.0,0.0,0.0,0.0,0.0,0.0,0.0,0.0,0.0,0.0,0.0,0.0,0.0,0.0,0.0,0.0,0.0,0.0,0.0,0.0,0.0,0.0,0.0,0.0,0.0,0.0,0.0,0.0,0.0,0.0,0.0,0.0,0.0,0.0,0.0,0.0,0.0,0.0,0.0,0.0,0.0,0.0,0.0,0.0,0.0,0.0,0.0,0.0,0.0,0.0,0.0,0.0,0.0,0.0,0.0,0.0,0.0,0.0,0.0,0.0,0.0,0.0,0.0,0.0,0.0,0.0,0.0,0.0,0.0,0.0,0.0,0.0,0.0,0.0,0.0,0.0,0.0,0.0,0.0,0.0,0.0,0.0,0.0,0.0,0.0,0.0,0.0,0.0,0.0,0.0,0.0,0.0,0.0,0.0,0.0,0.0,0.0,0.0,0.0,0.0,0.0,0.0,0.0,0.0,0.0,0.0,0.0,0.0,0.0,0.0,0.0,0.0,0.0,0.0,0.0,0.0,0.0,0.0,0.0,0.0,0.0,0.0,0.0,0.0,0.0,0.0,0.0,0.0,0.0,0.0,0.0,0.0,0.0,0.0,0.0,0.0,0.0,0.0,0.0,0.0,0.0,0.0,0.0,0.0,0.0,0.0,0.0,0.0,0.0,0.0,0.0,0.0,0.0,0.0,0.0,0.0,0.0,0.0,0.0,0.0,0.0,0.0,0.0,0.0,0.0,0.0,0.0,0.0,0.0,0.0,0.0,0.0,0.0,0.0,0.0,0.0,0.0,0.0,0.0,0.0,0.0,0.0,0.0,0.0,0.0,0.0,0.0,0.0,0.0,0.0,0.0,0.0,0.0,0.0,0.0,0.0,0.0,0.0,0.0,0.0,0.0,0.0,0.0,0.0,0.0,0.0,0.0,0.0,0.0,0.0,0.0,0.0,0.0,0.0,0.0,0.0,0.0,0.0,0.0,0.0,0.0,0.0,0.0,0.0,0.0,0.0,0.0,0.0,0.0,0.0,0.0,0.0,0.0,0.0,0.0,0.0,0.0,0.0,0.0,0.0,0.0,0.0,0.0,0.0,0.0,0.0,0.0,0.0,0.0,0.0,0.0,0.0,0.0,0.0,0.0,0.0,0.0,0.0,0.0,0.0,0.0,0.0,0.0,0.0,0.0,0.0,0.0,0.0,0.0,0.0,0.0,0.0,0.0,0.0,0.0,0.0,0.0,0.0,0.0,0.0,0.0,0.0,0.0,0.0,0.0,0.0,0.0,0.0,0.0,0.0,0.0,0.0,0.0,0.0,0.0,0.0,0.0,0.0,0.0,0.0,0.0,0.0,0.0,0.0,0.0,0.0,0.0,0.0,0.0,0.0,0.0,0.0,0.0,0.0,0.0,0.0,0.0,0.0,0.0,0.0,0.0,0.0,0.0,0.0,0.0,0.0,0.0,0.0,0.0,0.0,0.0,0.0,0.0,0.0,0.0,0.0,0.0,0.0,0.0,0.0,0.0,0.0,0.0,0.0,0.0,0.0,0.0,-0.2508,0.0,0.0,0.0,0.0,0.0,0.0,0.0,0.0,0.0,0.0,0.0,0.0,0.0,0.0,0.0,0.0,0.0,0.0,0.0,0.0,0.0,0.0,0.0,0.0,0.0,0.0,0.0,0.0,0.0,0.0,0.0,0.0,0.0,0.0,0.0,0.0,0.0,0.0,0.0,0.0,0.0,0.0,0.0,0.0,0.0,0.0,0.0,0.0,0.0,0.0,0.0,0.0,0.0,0.0,0.0,0.0,0.0,0.0,0.0,0.0,0.0,0.0,0.0,0.0,0.0,0.0,0.0,0.0,0.0,0.0,0.0,0.0,0.0,0.0,0.0,0.0,0.0,0.0,0.0,0.0,0.0,0.0,0.0,0.0,0.0,0.0,0.0,0.0,0.0,0.0,0.0,0.0,0.0,0.0,0.0,0.0,0.0,0.0,0.0,0.0,0.0,0.0,0.0,0.0,0.0,0.0,0.0,0.0,0.0,0.0,-0.3895,-0.3588,-0.3511,-0.3332,-0.3048,0.0,0.0,0.0,0.0,0.0,0.0,0.0,0.0,0.0,0.0,0.0,0.0,0.0,0.0,0.0,0.0,0.0,0.0,0.0,0.0,0.0,0.0,0.0,0.0,0.0,0.0,0.0,0.0,0.0,0.0,0.0,0.0,0.0,0.0,0.0,0.0,0.0,0.0,0.0,0.0,0.0,0.0,0.0,0.0,0.0,0.0,0.0,0.0,0.0,0.0,0.0,0.0,0.0,0.0,0.0,0.0,0.0,0.0,0.0,0.0,0.0,0.0,0.0,0.0,0.0,0.0,0.0,0.0,0.0,0.0,0.0,0.0,0.0,0.0,0.0,0.0,0.0,0.0,0.0,0.0,0.0,0.0,0.0,0.0,0.0,0.0,0.0,0.0,0.0,0.0,0.0,0.0,0.0,0.0,0.0,0.0,0.0,0.0,0.0,0.0,0.0,0.0,0.0,0.0,0.0,0.0,0.0,0.0,0.0,0.0,0.0,0.0,-0.4143,-0.3975,-0.3569,0.0,0.0,0.0,0.0,0.0,0.0,0.0,0.0,0.0,0.0,0.0,0.0,0.0,0.0,0.0,0.0,0.0,0.0,0.0,0.0,0.0,0.0,0.0,0.0,0.0,0.0,0.0,0.0,0.0,0.0,0.0,0.0,0.0,0.0,0.0,0.0,0.0,0.0,0.0,0.0,0.0,0.0,0.0,0.0,0.0,0.0,0.0,0.0,0.0,0.0,0.0,0.0,0.0,0.0,0.0,0.0,0.0,0.0,0.0,0.0,0.0,0.0,0.0,0.0,0.0,0.0,0.0,0.0,0.0,0.0,0.0,0.0,0.0,0.0,0.0,0.0,0.0,0.0,0.0,0.0,0.0,0.0,0.0,0.0,0.0,0.0,0.0,0.0,0.0,0.0,0.0,0.0,0.0,0.0,0.0,0.0,0.0,0.0,0.0,0.0,0.0,0.0,0.0,0.0,0.0,0.0,0.0,0.0,0.0,0.0,-0.57,-0.4997,-0.4994,0.0,-0.4084,0.0,0.0,0.0,0.0,0.0,0.0,0.0,0.0,0.0,0.0,0.0,0.0,0.0,0.0,0.0,0.0,0.0,0.0,0.0,0.0,0.0,0.0,0.0,0.0,0.0,0.0,0.0,0.0,0.0,0.0,0.0,0.0,0.0,0.0,0.0,0.0,0.0,0.0,0.0,0.0,0.0,0.0,0.0,0.0,0.0,0.0,0.0,0.0,0.0,0.0,0.0,0.0,0.0,0.0,0.0,0.0,0.0,0.0,0.0,0.0,0.0,0.0,0.0,0.0,0.0,0.0,0.0,0.0,0.0,0.0,0.0,0.0,0.0,0.0,0.0,0.0,0.0,0.0,0.0,0.0,0.0,0.0,0.0,0.0,0.0,0.0,0.0,0.0,0.0,0.0,0.0,0.0,0.0,0.0,0.0,0.0,0.0,0.0,0.0,0.0,0.0,0.0,0.0,0.0,0.0,0.0,0.0,0.0,0.0,0.0,-0.6624,-0.5992,-0.5703,-0.5441,0.0,0.0,0.0,0.0,0.0,0.0,0.0,0.0,0.0,0.0,0.0,0.0,0.0,0.0,0.0,0.0,0.0,0.0,0.0,0.0,0.0,0.0,0.0,0.0,0.0,0.0,0.0,0.0,0.0,0.0,0.0,0.0,0.0,0.0,0.0,0.0,0.0,0.0,0.0,0.0,0.0,0.0,0.0,0.0,0.0,0.0,0.0,0.0,0.0,0.0,0.0,0.0,0.0,0.0,0.0,0.0,0.0,0.0,0.0,0.0,0.0,0.0,0.0,0.0,0.0,0.0,0.0,0.0,0.0,0.0,0.0,0.0,0.0,0.0,0.0,0.0,0.0,0.0,0.0,0.0,0.0,0.0,0.0,0.0,0.0,0.0,0.0,0.0,0.0,0.0,0.0,0.0,0.0,0.0,0.0,0.0,0.0,0.0,0.0,0.0,0.0,0.0,0.0,0.0,0.0,0.0,0.0,0.0,0.0,0.0,-0.7749,-0.7606,-0.7116,-0.6723,-0.6428,-0.6254,0.0,0.0,0.0,0.0,0.0,0.0,0.0,0.0,0.0,0.0,0.0,0.0,0.0,0.0,0.0,0.0,0.0,0.0,0.0,0.0,0.0,0.0,0.0,0.0,0.0,0.0,0.0,0.0,0.0,0.0,0.0,0.0,0.0,0.0,0.0,0.0,0.0,0.0,0.0,0.0,0.0,0.0,0.0,0.0,0.0,0.0,0.0,0.0,0.0,0.0,0.0,0.0,0.0,0.0,0.0,0.0,0.0,0.0,0.0,0.0,0.0,0.0,0.0,0.0,0.0,0.0,0.0,0.0,0.0,0.0,0.0,0.0,0.0,0.0,0.0,0.0,0.0,0.0,0.0,0.0,0.0,0.0,0.0,0.0,0.0,0.0,0.0,0.0,0.0,0.0,0.0,0.0,0.0,0.0,0.0,0.0,0.0,0.0,0.0,0.0,0.0,0.0,0.0,0.0,0.0,0.0,0.0,0.0,-0.8374,-0.8715,-0.8742,-0.8343,-0.8106,-0.7741,0.0,0.0,0.0,0.0,0.0,0.0,0.0,0.0,0.0,0.0,0.0,0.0,0.0,0.0,0.0,0.0,0.0,0.0,0.0,0.0,0.0,0.0,0.0,0.0,0.0,0.0,0.0,0.0,0.0,0.0,0.0,0.0,0.0,0.0,0.0,0.0,0.0,0.0,0.0,0.0,0.0,0.0,0.0,0.0,0.0,0.0,0.0,0.0,0.0,0.0,0.0,0.0,0.0,0.0,0.0,0.0,0.0,0.0,0.0,0.0,0.0,0.0,0.0,0.0,0.0,0.0,0.0,0.0,0.0,0.0,0.0,0.0,0.0,0.0,0.0,0.0,0.0,0.0,0.0,0.0,0.0,0.0,0.0,0.0,0.0,0.0,0.0,0.0,0.0,0.0,0.0,0.0,0.0,0.0,0.0,0.0,0.0,0.0,0.0,0.0,0.0,0.0,0.0,0.0,0.0,0.0,0.0,0.0,0.0,-0.9378,-0.9414,-0.9371,-0.9227,-0.8909,-0.8574,0.0,0.0,0.0,0.0,0.0,0.0,0.0,0.0,0.0,0.0,0.0,0.0,0.0,0.0,0.0,0.0,0.0,0.0,0.0,0.0,0.0,0.0,0.0,0.0,0.0,0.0,0.0,0.0,0.0,0.0,0.0,0.0,0.0,0.0,0.0,0.0,0.0,0.0,0.0,0.0,0.0,0.0,0.0,0.0,0.0,0.0,0.0,0.0,0.0,0.0,0.0,0.0,0.0,0.0,0.0,0.0,0.0,0.0,0.0,0.0,0.0,0.0,0.0,0.0,0.0,0.0,0.0,0.0,0.0,0.0,0.0,0.0,0.0,0.0,0.0,0.0,0.0,0.0,0.0,0.0,0.0,0.0,0.0,0.0,0.0,0.0,0.0,0.0,0.0,0.0,0.0,0.0,0.0,0.0,0.0,0.0,0.0,0.0,0.0,0.0,0.0,0.0,0.0,0.0,0.0,0.0,0.0,0.0,0.0,-1.0341,0.0,-1.0187,-1.0131,-0.9802,-0.9429,0.0,0.0,0.0,0.0,0.0,0.0,0.0,0.0,0.0,0.0,0.0,0.0,0.0,0.0,0.0,0.0,0.0,0.0,0.0,0.0,0.0,0.0,0.0,0.0,0.0,0.0,0.0,0.0,0.0,0.0,0.0,0.0,0.0,0.0,0.0,0.0,0.0,0.0,0.0,0.0,0.0,0.0,0.0,0.0,0.0,0.0,0.0,0.0,0.0,0.0,0.0,0.0,0.0,0.0,0.0,0.0,0.0,0.0,0.0,0.0,0.0,0.0,0.0,0.0,0.0,0.0,0.0,0.0,0.0,0.0,0.0,0.0,0.0,0.0,0.0,0.0,0.0,0.0,0.0,0.0,0.0,0.0,0.0,0.0,0.0,0.0,0.0,0.0,0.0,0.0,0.0,0.0,0.0,0.0,0.0,0.0,0.0,0.0,0.0,0.0,0.0,0.0,0.0,0.0,0.0,0.0,0.0,0.0,-1.077,-1.1244,-1.1278,-1.1174,-1.1013,-1.0779,-1.0358,0.0,0.0,0.0,0.0,0.0,0.0,0.0,0.0,0.0,0.0,0.0,0.0,0.0,0.0,0.0,0.0,0.0,0.0,0.0,0.0,0.0,0.0,0.0,0.0,0.0,0.0,0.0,0.0,0.0,0.0,0.0,0.0,0.0,0.0,0.0,0.0,0.0,0.0,0.0,0.0,0.0,0.0,0.0,0.0,0.0,0.0,0.0,0.0,0.0,0.0,0.0,0.0,0.0,0.0,0.0,0.0,0.0,0.0,0.0,0.0,0.0,0.0,0.0,0.0,0.0,0.0,0.0,0.0,0.0,0.0,0.0,0.0,0.0,0.0,0.0,0.0,0.0,0.0,0.0,0.0,0.0,0.0,0.0,0.0,0.0,0.0,0.0,0.0,0.0,0.0,0.0,0.0,0.0,0.0,0.0,0.0,0.0,0.0,0.0,0.0,0.0,0.0,0.0,0.0,0.0,0.0,0.0,0.0,0.0,-1.1493,-1.1694,-1.1679,-1.1488,-1.1253,-1.0866,0.0,0.0,0.0,0.0,0.0,0.0,0.0,0.0,0.0,0.0,0.0,0.0,0.0,0.0,0.0,0.0,0.0,0.0,0.0,0.0,0.0,0.0,0.0,0.0,0.0,0.0,0.0,0.0,0.0,0.0,0.0,0.0,0.0,0.0,0.0,0.0,0.0,0.0,0.0,0.0,0.0,0.0,0.0,0.0,0.0,0.0,0.0,0.0,0.0,0.0,0.0,0.0,0.0,0.0,0.0,0.0,0.0,0.0,0.0,0.0,0.0,0.0,0.0,0.0,0.0,0.0,0.0,0.0,0.0,0.0,0.0,0.0,0.0,0.0,0.0,0.0,0.0,0.0,0.0,0.0,0.0,0.0,0.0,0.0,0.0,0.0,0.0,0.0,0.0,0.0,0.0,0.0,0.0,0.0,0.0,0.0,0.0,0.0,0.0,0.0,0.0,0.0,0.0,0.0,0.0,0.0,0.0,0.0,0.0,-1.1999,-1.2076,-1.2049,-1.1946,-1.1572,-1.1224,-1.0829,0.0,0.0,0.0,0.0,0.0,0.0,0.0,0.0,0.0,0.0,0.0,0.0,0.0,0.0,0.0,0.0,0.0,0.0,0.0,0.0,0.0,0.0,0.0,0.0,0.0,0.0,0.0,0.0,0.0,0.0,0.0,0.0,0.0,0.0,0.0,0.0,0.0,0.0,0.0,0.0,0.0,0.0,0.0,0.0,0.0,0.0,0.0,0.0,0.0,0.0,0.0,0.0,0.0,0.0,0.0,0.0,0.0,0.0,0.0,0.0,0.0,0.0,0.0,0.0,0.0,0.0,0.0,0.0,0.0,0.0,0.0,0.0,0.0,0.0,0.0,0.0,0.0,0.0,0.0,0.0,0.0,0.0,0.0,0.0,0.0,0.0,0.0,0.0,0.0,0.0,0.0,0.0,0.0,0.0,0.0,0.0,0.0,0.0,0.0,0.0,0.0,0.0,0.0,0.0,0.0,0.0,0.0,0.0,-1.2695,-1.2466,-1.2346,-1.234,-1.191,-1.1517,0.0,0.0,0.0,0.0,0.0,0.0,0.0,0.0,0.0,0.0,0.0,0.0,0.0,0.0,0.0,0.0,0.0,0.0,0.0,0.0,0.0,0.0,0.0,0.0,0.0,0.0,0.0,0.0,0.0,0.0,0.0,0.0,0.0,0.0,0.0,0.0,0.0,0.0,0.0,0.0,0.0,0.0,0.0,0.0,0.0,0.0,0.0,0.0,0.0,0.0,0.0,0.0,0.0,0.0,0.0,0.0,0.0,0.0,0.0,0.0,0.0,0.0,0.0,0.0,0.0,0.0,0.0,0.0,0.0,0.0,0.0,0.0,0.0,0.0,0.0,0.0,0.0,0.0,0.0,0.0,0.0,0.0,0.0,0.0,0.0,0.0,0.0,0.0,0.0,0.0,0.0,0.0,0.0,0.0,0.0,0.0,0.0,0.0,0.0,0.0,0.0,0.0,0.0,0.0,0.0,0.0,0.0,0.0,0.0,-1.2954,-1.2924,-1.2916,-1.2888,-1.2581,-1.2123,0.0,0.0,0.0,0.0,0.0,0.0,0.0,0.0,0.0,0.0,0.0,0.0,0.0,0.0,0.0,0.0,0.0,0.0,0.0,0.0,0.0,0.0,0.0,0.0,0.0,0.0,0.0,0.0,0.0,0.0,0.0,0.0,0.0,0.0,0.0,0.0,0.0,0.0,0.0,0.0,0.0,0.0,0.0,0.0,0.0,0.0,0.0,0.0,0.0,0.0,0.0,0.0,0.0,0.0,0.0,0.0,0.0,0.0,0.0,0.0,0.0,0.0,0.0,0.0,0.0,0.0,0.0,0.0,0.0,0.0,0.0,0.0,0.0,0.0,0.0,0.0,0.0,0.0,0.0,0.0,0.0,0.0,0.0,0.0,0.0,0.0,0.0,0.0,0.0,0.0,0.0,0.0,0.0,0.0,0.0,0.0,0.0,0.0,0.0,0.0,0.0,0.0,0.0,0.0,0.0,0.0,0.0,0.0,-1.278,-1.3555,-1.3707,-1.3763,-1.3756,-1.3182,-1.2541,0.0,0.0,0.0,0.0,0.0,0.0,0.0,0.0,0.0,0.0,0.0,0.0,0.0,0.0,0.0,0.0,0.0,0.0,0.0,0.0,0.0,0.0,0.0,0.0,0.0,0.0,0.0,0.0,0.0,0.0,0.0,0.0,0.0,0.0,0.0,0.0,0.0,0.0,0.0,0.0,0.0,0.0,0.0,0.0,0.0,0.0,0.0,0.0,0.0,0.0,0.0,0.0,0.0,0.0,0.0,0.0,0.0,0.0,0.0,0.0,0.0,0.0,0.0,0.0,0.0,0.0,0.0,0.0,0.0,0.0,0.0,0.0,0.0,0.0,0.0,0.0,0.0,0.0,0.0,0.0,0.0,0.0,0.0,0.0,0.0,0.0,0.0,0.0,0.0,0.0,0.0,0.0,0.0,0.0,0.0,0.0,0.0,0.0,0.0,0.0,0.0,0.0,0.0,0.0,0.0,0.0,0.0,0.0,-1.347,-1.4189,-1.4515,-1.4707,-1.4711,-1.3749,-1.2947,0.0,0.0,0.0,0.0,0.0,0.0,0.0,0.0,0.0,0.0,0.0,0.0,0.0,0.0,0.0,0.0,0.0,0.0,0.0,0.0,0.0,0.0,0.0,0.0,0.0,0.0,0.0,0.0,0.0,0.0,0.0,0.0,0.0,0.0,0.0,0.0,0.0,0.0,0.0,0.0,0.0,0.0,0.0,0.0,0.0,0.0,0.0,0.0,0.0,0.0,0.0,0.0,0.0,0.0,0.0,0.0,0.0,0.0,0.0,0.0,0.0,0.0,0.0,0.0,0.0,0.0,0.0,0.0,0.0,0.0,0.0,0.0,0.0,0.0,0.0,0.0,0.0,0.0,0.0,0.0,0.0,0.0,0.0,0.0,0.0,0.0,0.0,0.0,0.0,0.0,0.0,0.0,0.0,0.0,0.0,0.0,0.0,0.0,0.0,0.0,0.0,0.0,0.0,0.0,0.0,0.0,0.0,0.0,-1.3622,-1.4205,-1.4521,-1.4806,-1.4998,-1.434,-1.3714,0.0,0.0,0.0,0.0,0.0,0.0,0.0,0.0,0.0,0.0,0.0,0.0,0.0,0.0,0.0,0.0,0.0,0.0,0.0,0.0,0.0,0.0,0.0,0.0,0.0,0.0,0.0,0.0,0.0,0.0,0.0,0.0,0.0,0.0,0.0,0.0,0.0,0.0,0.0,0.0,0.0,0.0,0.0,0.0,0.0,0.0,0.0,0.0,-1.6227,0.0,0.0,0.0,0.0,0.0,0.0,0.0,0.0,0.0,0.0,0.0,0.0,0.0,0.0,0.0,0.0,0.0,0.0,0.0,0.0,0.0,0.0,0.0,0.0,0.0,0.0,0.0,0.0,0.0,0.0,0.0,0.0,0.0,0.0,0.0,0.0,0.0,0.0,0.0,0.0,0.0,0.0,0.0,0.0,0.0,0.0,0.0,0.0,0.0,0.0,0.0,0.0,0.0,0.0,0.0,0.0,0.0,0.0,0.0,-1.4329,-1.4713,-1.5288,-1.5661,-1.5771,-1.5307,-1.4691,0.0,0.0,0.0,0.0,0.0,0.0,0.0,0.0,0.0,0.0,0.0,0.0,0.0,0.0,0.0,0.0,0.0,0.0,0.0,0.0,0.0,0.0,0.0,0.0,0.0,0.0,0.0,0.0,0.0,0.0,0.0,0.0,0.0,0.0,0.0,0.0,0.0,0.0,0.0,0.0,0.0,0.0,0.0,0.0,0.0,0.0,0.0,0.0,0.0,0.0,0.0,0.0,0.0,0.0,0.0,0.0,0.0,0.0,0.0,0.0,0.0,0.0,0.0,0.0,0.0,0.0,0.0,0.0,0.0,0.0,0.0,0.0,0.0,0.0,0.0,0.0,0.0,0.0,0.0,0.0,0.0,0.0,0.0,0.0,0.0,0.0,0.0,0.0,0.0,0.0,0.0,0.0,0.0,0.0,0.0,0.0,0.0,0.0,0.0,0.0,0.0,0.0,0.0,0.0,0.0,0.0,0.0,-1.4377,-1.5129,-1.5322,-1.6197,-1.6683,-1.6692,-1.6311,-1.5704,-1.4845,0.0,0.0,0.0,0.0,0.0,0.0,0.0,0.0,0.0,0.0,0.0,0.0,0.0,0.0,0.0,0.0,0.0,0.0,0.0,0.0,0.0,0.0,0.0,0.0,0.0,0.0,0.0,0.0,0.0,0.0,0.0,0.0,0.0,0.0,0.0,0.0,0.0,0.0,-1.6558,-1.734,0.0,0.0,0.0,0.0,0.0,0.0,0.0,0.0,-1.7448,0.0,0.0,0.0,0.0,0.0,0.0,0.0,0.0,0.0,0.0,0.0,0.0,0.0,0.0,0.0,0.0,0.0,0.0,0.0,0.0,0.0,0.0,0.0,0.0,0.0,0.0,0.0,0.0,0.0,0.0,0.0,0.0,0.0,0.0,0.0,0.0,0.0,0.0,0.0,0.0,0.0,0.0,0.0,0.0,0.0,0.0,0.0,0.0,0.0,0.0,0.0,0.0,0.0,0.0,0.0,0.0,-1.3349,-1.4601,-1.5272,-1.5301,-1.6366,-1.7012,-1.7171,-1.6801,-1.6609,-1.6605,0.0,0.0,0.0,0.0,0.0,0.0,0.0,0.0,0.0,0.0,0.0,0.0,0.0,0.0,0.0,0.0,0.0,0.0,0.0,0.0,0.0,0.0,0.0,0.0,0.0,0.0,0.0,0.0,0.0,0.0,0.0,0.0,0.0,0.0,0.0,0.0,0.0,0.0,0.0,-1.7955,-1.8218,0.0,0.0,0.0,0.0,0.0,0.0,0.0,0.0,-1.8013,0.0,0.0,0.0,0.0,0.0,0.0,0.0,0.0,0.0,0.0,0.0,0.0,0.0,0.0,0.0,0.0,0.0,0.0,0.0,0.0,0.0,0.0,0.0,0.0,0.0,0.0,0.0,0.0,0.0,0.0,0.0,0.0,0.0,0.0,0.0,0.0,0.0,0.0,0.0,0.0,0.0,0.0,0.0,0.0,0.0,0.0,0.0,0.0,0.0,0.0,0.0,0.0,0.0,0.0,0.0,-1.3582,-1.484,-1.5635,-1.5894,-1.685,-1.7464,-1.7692,-1.7288,-1.7123,0.0,0.0,0.0,0.0,0.0,0.0,0.0,0.0,0.0,0.0,0.0,0.0,0.0,0.0,0.0,0.0,0.0,0.0,0.0,0.0,0.0,0.0,0.0,0.0,0.0,0.0,0.0,0.0,0.0,0.0,0.0,0.0,0.0,0.0,0.0,0.0,0.0,0.0,0.0,0.0,-1.835,-1.8613,-1.8814,0.0,0.0,0.0,0.0,0.0,0.0,-1.8299,-1.8147,0.0,0.0,0.0,0.0,0.0,0.0,0.0,0.0,0.0,0.0,0.0,0.0,0.0,0.0,0.0,0.0,0.0,0.0,0.0,0.0,0.0,0.0,0.0,0.0,0.0,0.0,0.0,0.0,0.0,0.0,0.0,0.0,0.0,0.0,0.0,0.0,0.0,0.0,0.0,0.0,0.0,0.0,0.0,0.0,0.0,0.0,0.0,0.0,0.0,0.0,0.0,0.0,0.0,0.0,0.0,-1.373,-1.499,-1.5871,-1.6351,-1.727,-1.7885,-1.8071,-1.7691,-1.7473,0.0,0.0,0.0,0.0,0.0,0.0,0.0,0.0,0.0,0.0,0.0,0.0,0.0,0.0,0.0,0.0,0.0,0.0,0.0,0.0,0.0,0.0,0.0,0.0,0.0,0.0,0.0,0.0,0.0,0.0,0.0,0.0,0.0,0.0,0.0,0.0,0.0,0.0,0.0,0.0,0.0,-1.9103,-1.9373,-1.9398,0.0,0.0,0.0,0.0,-1.8528,-1.8459,0.0,0.0,0.0,0.0,0.0,0.0,0.0,0.0,0.0,0.0,0.0,0.0,0.0,0.0,0.0,0.0,0.0,0.0,0.0,0.0,0.0,0.0,0.0,0.0,0.0,0.0,0.0,0.0,0.0,0.0,0.0,0.0,0.0,0.0,0.0,0.0,0.0,0.0,0.0,0.0,0.0,0.0,0.0,0.0,0.0,0.0,0.0,0.0,0.0,0.0,0.0,0.0,0.0,0.0,0.0,0.0,-1.3791,-1.4872,-1.5656,-1.6178,-1.7404,-1.8056,-1.8102,-1.7869,-1.7741,0.0,0.0,0.0,0.0,0.0,0.0,0.0,0.0,0.0,0.0,0.0,0.0,0.0,0.0,0.0,0.0,0.0,0.0,0.0,0.0,0.0,0.0,0.0,0.0,0.0,0.0,0.0,0.0,0.0,0.0,0.0,0.0,0.0,0.0,0.0,0.0,0.0,0.0,0.0,0.0,0.0,-1.9689,-1.9745,-1.9734,-1.9623,0.0,0.0,-1.9226,-1.9191,-1.8986,0.0,0.0,0.0,0.0,0.0,0.0,0.0,0.0,0.0,0.0,0.0,0.0,0.0,0.0,0.0,0.0,0.0,0.0,0.0,0.0,0.0,0.0,0.0,0.0,0.0,0.0,0.0,0.0,0.0,0.0,0.0,0.0,0.0,0.0,0.0,0.0,0.0,0.0,0.0,0.0,0.0,0.0,0.0,0.0,0.0,0.0,0.0,0.0,0.0,0.0,0.0,0.0,0.0,0.0,0.0,-1.2915,-1.3792,-1.4714,-1.5609,-1.6531,-1.7427,-1.8024,-1.8303,-1.7989,-1.7785,0.0,0.0,0.0,0.0,0.0,0.0,0.0,0.0,0.0,0.0,0.0,0.0,0.0,0.0,0.0,0.0,0.0,0.0,0.0,0.0,0.0,0.0,0.0,0.0,0.0,0.0,0.0,0.0,0.0,0.0,0.0,0.0,0.0,0.0,0.0,0.0,0.0,0.0,0.0,0.0,0.0,0.0,-1.9778,-1.9935,0.0,0.0,0.0,-1.9436,-1.9064,0.0,0.0,0.0,0.0,0.0,0.0,0.0,0.0,0.0,0.0,0.0,0.0,0.0,0.0,0.0,0.0,0.0,0.0,0.0,0.0,0.0,0.0,0.0,0.0,0.0,0.0,0.0,0.0,0.0,0.0,0.0,0.0,0.0,0.0,0.0,0.0,0.0,0.0,0.0,0.0,0.0,0.0,0.0,0.0,0.0,0.0,0.0,0.0,0.0,0.0,0.0,0.0,0.0,0.0,0.0,0.0,0.0,-1.373,-1.4464,-1.5409,-1.6593,-1.7262,-1.7838,-1.8288,-1.7986,0.0,0.0,0.0,0.0,0.0,0.0,0.0,0.0,0.0,0.0,0.0,0.0,0.0,0.0,0.0,0.0,0.0,0.0,0.0,0.0,0.0,0.0,0.0,0.0,0.0,0.0,0.0,-1.1305,0.0,0.0,0.0,0.0,0.0,0.0,0.0,0.0,0.0,0.0,0.0,0.0,0.0,0.0,-1.8981,-1.9401,-1.9758,-1.9866,0.0,0.0,-1.9308,-1.8673,-1.8175,-1.7674,0.0,0.0,0.0,0.0,0.0,0.0,0.0,0.0,0.0,0.0,0.0,0.0,0.0,0.0,0.0,0.0,0.0,0.0,0.0,0.0,0.0,0.0,0.0,0.0,0.0,0.0,0.0,0.0,0.0,0.0,0.0,0.0,0.0,0.0,0.0,0.0,0.0,0.0,0.0,0.0,0.0,0.0,0.0,0.0,0.0,0.0,0.0,0.0,0.0,0.0,0.0,0.0,0.0,0.0,0.0,-1.359,-1.4089,-1.4842,-1.5866,-1.6826,-1.745,-1.7737,-1.7857,-1.7876,0.0,0.0,0.0,0.0,0.0,0.0,0.0,0.0,0.0,0.0,0.0,0.0,0.0,0.0,0.0,0.0,0.0,0.0,0.0,0.0,0.0,0.0,0.0,0.0,0.0,0.0,0.0,0.0,0.0,0.0,0.0,0.0,0.0,0.0,0.0,0.0,0.0,0.0,0.0,0.0,0.0,-1.8544,-1.8582,-1.9037,-1.9138,0.0,0.0,-1.8671,-1.8062,-1.773,-1.7355,-1.6804,0.0,0.0,0.0,0.0,0.0,0.0,0.0,0.0,0.0,0.0,0.0,0.0,0.0,0.0,0.0,0.0,0.0,0.0,0.0,0.0,0.0,0.0,0.0,0.0,0.0,0.0,0.0,0.0,0.0,0.0,0.0,0.0,0.0,0.0,0.0,0.0,0.0,0.0,0.0,0.0,0.0,0.0,0.0,0.0,0.0,0.0,0.0,0.0,0.0,0.0,0.0,0.0,0.0,-1.2371,-1.3099,-1.3716,-1.4642,-1.5825,-1.6519,-1.7172,-1.7728,-1.7738,-1.769,0.0,0.0,0.0,0.0,0.0,0.0,0.0,0.0,0.0,0.0,0.0,0.0,0.0,0.0,0.0,0.0,0.0,0.0,0.0,0.0,0.0,0.0,0.0,0.0,0.0,0.0,0.0,0.0,-1.1047,-1.1391,-1.1708,0.0,0.0,0.0,0.0,0.0,0.0,0.0,0.0,0.0,0.0,-1.7503,-1.784,-1.8197,0.0,0.0,-1.7886,-1.7816,-1.7415,-1.6809,-1.6293,-1.6115,-1.5502,0.0,0.0,0.0,0.0,0.0,0.0,0.0,0.0,0.0,0.0,0.0,0.0,0.0,0.0,0.0,0.0,0.0,0.0,0.0,0.0,0.0,0.0,0.0,0.0,0.0,0.0,0.0,0.0,0.0,0.0,0.0,0.0,0.0,0.0,0.0,0.0,0.0,0.0,0.0,0.0,0.0,0.0,0.0,0.0,0.0,0.0,0.0,0.0,0.0,0.0,0.0,0.0,-1.2103,-1.2689,-1.352,-1.4453,-1.5513,-1.6168,-1.6786,-1.743,-1.7437,-1.7398,0.0,0.0,0.0,0.0,0.0,0.0,0.0,0.0,0.0,0.0,0.0,0.0,0.0,0.0,0.0,0.0,0.0,0.0,0.0,0.0,0.0,0.0,0.0,0.0,0.0,0.0,0.0,0.0,-1.0787,-1.1119,-1.1449,0.0,0.0,0.0,0.0,0.0,0.0,0.0,0.0,0.0,0.0,-1.6329,-1.6739,-1.712,-1.7242,-1.6961,-1.6963,-1.6853,-1.6477,-1.5915,-1.5462,-1.531,0.0,0.0,0.0,0.0,0.0,0.0,0.0,0.0,0.0,0.0,0.0,0.0,0.0,0.0,0.0,0.0,0.0,0.0,0.0,0.0,0.0,0.0,0.0,0.0,0.0,0.0,0.0,0.0,0.0,0.0,-1.099,0.0,0.0,0.0,0.0,0.0,0.0,0.0,0.0,0.0,0.0,0.0,0.0,0.0,0.0,0.0,0.0,0.0,0.0,0.0,0.0,0.0,0.0,-1.1755,-1.2397,-1.3431,-1.4219,-1.474,-1.5701,-1.6336,-1.6641,-1.6874,-1.6949,-1.6789,0.0,0.0,0.0,0.0,0.0,0.0,0.0,0.0,0.0,0.0,0.0,0.0,0.0,0.0,0.0,0.0,0.0,0.0,0.0,0.0,0.0,0.0,0.0,0.0,0.0,0.0,-1.0223,-1.0634,-1.099,0.0,0.0,0.0,0.0,0.0,0.0,0.0,0.0,0.0,0.0,-1.4778,-1.5029,-1.5237,-1.5704,-1.5945,-1.5693,-1.5855,-1.583,-1.5271,-1.5135,-1.4914,0.0,0.0,0.0,0.0,0.0,0.0,0.0,0.0,0.0,0.0,0.0,0.0,0.0,0.0,0.0,0.0,0.0,0.0,0.0,0.0,0.0,0.0,0.0,0.0,0.0,0.0,0.0,-1.1366,-1.1216,0.0,0.0,0.0,0.0,0.0,0.0,0.0,0.0,0.0,0.0,0.0,-1.1736,-1.174,0.0,0.0,0.0,0.0,0.0,0.0,0.0,0.0,0.0,0.0,0.0,0.0,-1.1612,-1.215,-1.2837,-1.3611,-1.4416,-1.5103,-1.5689,-1.6119,-1.6393,-1.6241,-1.5612,0.0,0.0,0.0,0.0,0.0,0.0,0.0,0.0,0.0,0.0,0.0,0.0,0.0,0.0,0.0,0.0,0.0,0.0,0.0,0.0,0.0,0.0,0.0,0.0,0.0,-1.0002,0.0,0.0,0.0,0.0,0.0,0.0,0.0,0.0,0.0,0.0,0.0,-1.3944,-1.4145,-1.4364,-1.4566,-1.4768,-1.4958,-1.503,0.0,0.0,0.0,0.0,0.0,0.0,0.0,0.0,0.0,0.0,0.0,0.0,0.0,0.0,-1.4212,-1.4542,-1.4597,-1.4652,-1.4828,0.0,0.0,0.0,0.0,0.0,0.0,0.0,0.0,0.0,0.0,0.0,0.0,0.0,0.0,0.0,0.0,-1.1274,0.0,0.0,0.0,0.0,0.0,0.0,0.0,0.0,-1.1685,-1.1754,-1.1855,-1.1832,-1.1859,0.0,-1.1693,-1.1503,0.0,0.0,0.0,0.0,0.0,0.0,0.0,0.0,-1.1482,-1.187,-1.2484,-1.3108,-1.3755,-1.4363,-1.485,-1.5213,-1.537,-1.5155,-1.4498,-1.4479,-1.4324,0.0,0.0,0.0,0.0,0.0,0.0,0.0,0.0,0.0,0.0,0.0,0.0,0.0,0.0,0.0,0.0,0.0,0.0,0.0,0.0,0.0,0.0,0.0,-1.005,0.0,0.0,0.0,0.0,0.0,0.0,0.0,0.0,0.0,-1.2712,-1.3011,-1.3294,-1.3582,-1.3634,-1.3712,-1.3929,0.0,0.0,0.0,0.0,0.0,0.0,0.0,-1.3377,-1.3456,-1.3039,-1.2711,-1.2812,-1.29,-1.3058,-1.3239,0.0,0.0,-1.4009,-1.4113,-1.4125,-1.4168,-1.4166,-1.4171,-1.4166,-1.4166,-1.4166,0.0,0.0,0.0,0.0,0.0,0.0,0.0,0.0,-1.1817,-1.1787,0.0,-1.1784,0.0,0.0,0.0,0.0,0.0,-1.1433,0.0,0.0,-1.1682,-1.1732,-1.2073,-1.2086,-1.2086,-1.2069,-1.1678,-1.1495,-1.147,-1.1288,0.0,0.0,0.0,0.0,0.0,0.0,-1.1401,-1.1606,-1.2371,-1.2779,-1.282,-1.3507,-1.3867,-1.3891,-1.386,-1.3715,-1.3475,-1.3454,-1.3344,-1.3081,-1.3268,0.0,0.0,0.0,0.0,0.0,0.0,0.0,0.0,0.0,0.0,0.0,0.0,0.0,0.0,0.0,0.0,0.0,0.0,0.0,0.0,-1.0066,0.0,0.0,0.0,0.0,0.0,0.0,0.0,0.0,0.0,0.0,-1.231,-1.2293,-1.239,-1.2828,0.0,0.0,0.0,0.0,-1.2719,-1.2689,-1.2689,-1.2694,-1.2689,-1.2668,-1.2734,-1.2922,0.0,0.0,-1.2891,-1.2926,-1.2811,-1.2534,-1.232,-1.2432,-1.3303,-1.3455,-1.3394,-1.3063,-1.2993,-1.2974,-1.2969,-1.3007,-1.2997,-1.4255,0.0,0.0,0.0,0.0,-1.2618,-1.2427,-1.2344,-1.2117,-1.1934,-1.1823,-1.1896,0.0,0.0,0.0,0.0,0.0,0.0,-1.1615,-1.1839,-1.1911,-1.1941,-1.1971,-1.1946,-1.1858,-1.1674,-1.1409,-1.123,-1.1062,-1.0981,-1.0902,-1.0904,0.0,0.0,0.0,0.0,-1.1207,-1.1594,-1.1835,-1.2103,-1.2439,-1.2878,-1.3204,-1.3408,-1.2853,-1.2511,-1.2408,-1.2442,-1.2386,-1.2333,-1.2549,0.0,0.0,0.0,0.0,0.0,0.0,0.0,0.0,0.0,0.0,0.0,0.0,0.0,0.0,0.0,0.0,0.0,0.0,0.0,-1.0048,-1.0155,-1.0263,0.0,0.0,0.0,0.0,0.0,0.0,0.0,0.0,0.0,-1.2015,-1.2212,-1.2402,0.0,0.0,-1.2632,-1.2685,-1.2685,-1.2599,-1.2389,0.0,0.0,0.0,-1.1926,-1.1875,-1.1931,-1.1676,-1.1506,-1.1623,-1.163,-1.1639,-1.1635,-1.1392,-1.1258,-1.1448,-1.1932,-1.2239,-1.2162,-1.2137,-1.2137,-1.2137,-1.2137,-1.2133,-1.4166,-1.3788,-1.3571,-1.3339,-1.3046,-1.273,-1.2606,-1.2597,-1.2322,-1.2139,-1.2054,-1.2053,-1.1985,-1.1841,-1.1579,0.0,0.0,0.0,-1.1279,-1.149,-1.1483,-1.1456,-1.147,-1.1478,-1.1393,-1.1203,-1.0963,-1.077,-1.0664,-1.0488,-1.0437,-1.0455,0.0,0.0,-1.089,-1.0885,-1.1032,-1.1222,-1.1247,-1.132,-1.1541,-1.1855,-1.2153,-1.2395,-1.1825,-1.1516,-1.1512,-1.1541,-1.1512,-1.1536,-1.1782,-1.1815,0.0,0.0,0.0,0.0,0.0,0.0,0.0,0.0,0.0,0.0,0.0,-0.9873,-0.9973,0.0,0.0,0.0,-1.0035,-1.0071,-1.0249,-1.0357,0.0,0.0,0.0,0.0,0.0,0.0,0.0,-1.1255,-1.1529,-1.1731,-1.1679,-1.184,-1.1959,-1.1959,-1.2051,-1.2088,-1.1967,0.0,-1.1877,-1.1665,-1.1661,-1.1601,-1.1424,-1.1298,-1.1187,-1.1034,-1.0871,-1.0731,-1.0712,-1.0705,-1.0706,-1.059,-1.0409,-1.0156,-0.9975,-1.0338,-1.0759,-1.094,-1.1001,-1.1001,-1.1031,-1.0997,-1.0997,-1.4077,-1.3663,-1.3154,-1.2929,-1.293,-1.266,-1.2522,-1.2505,-1.2358,-1.228,-1.2296,-1.2084,-1.2013,-1.1972,-1.1651,0.0,-1.1009,-1.0749,-1.0697,-1.0895,-1.0599,-1.0531,-1.0728,-1.0725,-1.0691,-1.0672,-1.0362,-1.0181,-1.0119,-0.9825,-0.9734,-0.9816,-1.0406,-1.078,-1.0832,-1.0824,-1.0776,-1.0662,-1.0683,-1.062,-1.0436,-1.0679,-1.0925,-1.1196,-1.0912,-1.0755,-1.0755,-1.078,-1.0755,-1.0775,-1.1015,-1.1058,-1.0808,0.0,0.0,0.0,0.0,0.0,0.0,0.0,0.0,0.0,0.0,0.0,0.0,0.0,0.0,0.0,-1.0235,0.0,-1.0434,-1.0631,0.0,0.0,0.0,-1.1191,-1.1191,-1.1203,-1.1251,-1.145,0.0,0.0,-1.1284,0.0,-1.1212,-1.1182,-1.1212,-1.1148,-1.0846,-1.0819,-1.0759,-1.0728,-1.0725,-1.0671,-1.0611,-1.0602,-1.0506,-1.0209,-1.0225,-1.0143,-0.9932,-0.9898,-0.9781,-0.9526,-0.93,-0.9071,-0.8827,-0.8796,-0.8912,-0.9457,-0.967,-0.9731,-0.9792,-0.9792,-0.9792,-1.3265,-1.298,-1.2463,-1.2447,-1.2697,-1.2155,-1.192,-1.1873,-1.1522,-1.1352,-1.1329,-1.1272,-1.1175,-1.1018,-1.0672,-1.0426,-1.0255,-0.9986,-0.9946,-1.0066,-1.0013,-1.0,-1.0031,-1.0035,-0.9882,-0.9583,-0.9339,-0.9083,-0.8806,-0.8798,-0.8827,-0.8872,-0.9187,-0.9666,-1.0268,-1.0286,-1.0266,-1.025,-1.0457,-1.0613,-1.0775,-1.0848,-1.0899,-1.0976,-1.0615,-1.0415,-1.0415,-1.0415,-1.0415,-1.0419,-1.0773,-1.0954,-1.0884,-1.0833,0.0,0.0,0.0,0.0,0.0,0.0,0.0,0.0,0.0,-1.0167,-1.0186,0.0,-1.0221,0.0,-1.0619,-1.0825,-1.0838,-1.0997,0.0,0.0,-1.1196,-1.1191,-1.1195,-1.1113,-1.1069,-1.1108,-1.1043,-1.0955,-1.0933,-1.0702,-1.0456,-1.0213,-1.0607,-1.088,-1.0793,-1.0577,-1.0334,-1.0092,-0.9819,-0.9579,-0.9433,-0.9456,-0.9391,-0.9063,-0.9022,-0.8894,-0.8488,-0.8434,-0.8404,-0.8309,-0.8047,-0.7844,-0.7783,-0.7572,-0.7419,-0.763,-0.8394,-0.9129,-0.9098,-0.9129,-0.9098,-1.2164,-1.1979,-1.1518,-1.1423,-1.1594,-1.1504,-1.1367,-1.1126,-1.084,-1.0669,-1.0594,-1.0502,-1.0338,-1.0074,-0.99,-0.9708,-0.9493,-0.9186,-0.9104,-0.9147,-0.9028,-0.8937,-0.8967,-0.8905,-0.8747,-0.8518,-0.8329,-0.8119,-0.7905,-0.7913,-0.7928,-0.7931,-0.8066,-0.8346,-0.8817,-0.9292,-0.9579,-0.964,-0.986,-1.0026,-1.0182,-1.0182,-1.0182,-1.0182,-0.9963,-0.9868,-0.9838,-0.9966,-1.0044,-1.0044,-1.0392,-1.0573,-1.0573,-1.0442,-1.0338,0.0,0.0,0.0,0.0,0.0,0.0,0.0,0.0,0.0,0.0,0.0,-1.05,0.0,-1.0923,-1.1082,-1.1082,-1.124,-1.1288,-1.1113,-1.121,-1.1195,-1.1047,-1.0955,-1.0868,-1.0718,-1.0616,-1.0456,-1.0186,-0.9974,-0.9731,-0.9427,-0.9579,-0.9785,-0.9913,-0.9792,-0.9613,-0.9427,-0.9122,-0.8787,-0.8482,-0.839,-0.8279,-0.8096,-0.7942,-0.7732,-0.7488,-0.7477,-0.7413,-0.7261,-0.7077,-0.6893,-0.6738,-0.6615,-0.6464,-0.6559,-0.7044,-0.7627,-0.7939,-0.8,-0.8,-1.0834,-1.0698,-1.0393,-1.0147,-0.9954,-1.0495,-1.0547,-1.0285,-1.0087,-0.9966,-0.9795,-0.9635,-0.9396,-0.9126,-0.9065,-0.8943,-0.8671,-0.836,-0.8175,-0.8111,-0.7839,-0.7678,-0.7629,-0.7496,-0.7435,-0.7428,-0.7261,-0.7158,-0.7139,-0.7038,-0.696,-0.6985,-0.696,-0.6965,-0.7034,-0.8008,-0.8687,-0.9034,-0.9143,-0.9207,-0.926,-0.9256,-0.926,-0.9256,-0.9241,-0.9226,-0.9283,-0.9515,-0.9643,-0.9673,-0.9985,-1.0154,-1.015,-0.9888,-0.9715,0.0,-0.9531,0.0,0.0,0.0,0.0,0.0,0.0,0.0,0.0,-1.0651,-1.0719,-1.0904,-1.1044,-1.1112,-1.1112,-1.1276,-1.1296,-1.1033,-1.1067,-1.1061,-1.0789,-1.0668,-1.0516,-1.0217,-1.0152,-0.9879,-0.9305,-0.9153,-0.9034,-0.8699,-0.8424,-0.8358,-0.8577,-0.8671,-0.8702,-0.8702,-0.8421,-0.8055,-0.7811,-0.7508,-0.7268,-0.7207,-0.6936,-0.6716,-0.6627,-0.6624,-0.6532,-0.6283,-0.6188,-0.6096,-0.5814,-0.5786,-0.5782,-0.5735,-0.5823,-0.6073,-0.6646,-0.6898,-0.6839,-0.9354,-0.9211,-0.9143,-0.887,-0.8484,-0.8215,-0.8557,-0.9246,-0.8721,-0.8454,-0.8303,-0.8277,-0.8236,-0.8147,-0.7905,-0.7722,-0.7661,-0.7357,-0.7049,-0.6771,-0.6709,-0.6513,-0.6198,-0.6176,-0.6084,-0.5996,-0.5954,-0.5867,-0.579,-0.5742,-0.5734,-0.5734,-0.5734,-0.5773,-0.5818,0.0,0.0,0.0,-0.8636,-0.876,-0.8979,-0.8975,-0.8975,-0.8975,-0.8861,0.0,-0.9117,-0.9201,-0.9304,-0.9549,-0.9757,0.0,0.0,0.0,0.0,0.0,0.0,0.0,0.0,0.0,0.0,0.0,-1.0286,-1.0349,-1.0379,-1.0383,-1.0394,-1.0432,-1.0555,-1.0624,-1.0624,-1.0826,-1.0895,-1.0838,-1.0619,-1.0456,-1.0365,-0.9913,-0.9548,-0.9488,-0.9278,-0.9004,-0.8632,-0.8358,-0.8055,-0.7752,-0.7385,-0.7204,-0.7299,-0.7541,-0.7691,-0.7663,-0.7385,-0.7174,-0.7112,-0.6771,-0.6464,-0.6221,-0.5884,-0.5607,-0.5394,-0.5335,-0.5304,-0.521,-0.5179,-0.5176,-0.5114,-0.5087,-0.5057,-0.5033,-0.5021,-0.522,-0.5925,-0.6311,-0.6497,-0.7648,0.0,-0.7603,-0.7474,0.0,-0.6775,-0.6868,-0.7299,-0.7159,-0.7051,-0.6921,-0.6919,-0.6919,-0.6921,-0.6738,-0.6677,-0.6646,-0.6311,-0.6066,-0.5912,-0.5728,-0.5556,-0.5361,-0.532,-0.5266,-0.5172,-0.5098,-0.5036,-0.4957,-0.4953,-0.4976,-0.5015,-0.5015,-0.5028,-0.5109,-0.5404,-0.6273,-0.7755,-0.79,-0.8013,-0.8152,-0.8117,-0.8108,-0.8108,0.0,0.0,0.0,0.0,0.0,0.0,0.0,0.0,0.0,0.0,0.0,-0.9399,-0.9301,-0.9245,-0.9345,-0.9416,-0.9453,-0.9457,-0.9554,-0.9799,-1.0258,-1.0346,-1.0394,-1.0398,-1.0543,-1.058,-1.0404,-1.0503,-1.0395,-1.0092,-0.9913,-0.97,-0.939,-0.9089,-0.8723,-0.8421,-0.8238,-0.8027,-0.7689,-0.7538,-0.7355,-0.7143,-0.6714,-0.641,-0.644,-0.6839,-0.7051,-0.6714,-0.653,-0.6287,-0.5978,-0.5794,-0.564,-0.5427,-0.5271,-0.5116,-0.4933,-0.4904,-0.4841,-0.4684,-0.4629,-0.4574,-0.445,-0.4396,-0.4361,-0.433,-0.4319,-0.4388,-0.4812,-0.527,-0.56,-0.6219,-0.6219,-0.6217,-0.6211,-0.6201,-0.5711,-0.5423,-0.5336,0.0,0.0,0.0,-0.5726,-0.5726,-0.5726,-0.5724,-0.5724,-0.5694,-0.5419,-0.5268,-0.5206,-0.4931,-0.4773,-0.4729,-0.467,-0.4603,-0.4531,-0.447,-0.4438,-0.438,-0.4379,-0.4382,-0.4464,-0.4469,-0.4507,-0.4634,-0.4861,-0.5544,-0.657,-0.6923,-0.7078,-0.7076,-0.7015,-0.6995,-0.6995,-0.6932,-0.7079,-0.739,-0.7614,-0.7891,-0.8283,-0.8503,-0.8663,-0.8783,-0.8597,-0.8485,-0.8557,-0.8368,-0.8266,-0.8319,-0.8417,-0.8474,-0.8474,-0.8636,-0.9088,-0.9996,-1.0162,-1.0208,-1.0208,-1.0353,-1.0334,-1.0095,-1.0001,-0.9727,-0.9211,-0.9031,-0.8757,-0.8297,-0.8144,-0.7933,-0.7416,-0.7355,-0.7174,-0.69,-0.6775,-0.6686,-0.6561,-0.607,-0.5732,-0.5794,-0.6162,-0.6285,-0.5857,-0.5732,-0.5517,-0.5087,-0.4872,-0.481,-0.4841,-0.4781,-0.4718,-0.4718,-0.4718,-0.4626,-0.4347,-0.4261,-0.4168,-0.3977,-0.3907,-0.3796,-0.3784,-0.3781,-0.3779,-0.3826,-0.4202,-0.4619,-0.5549,-0.5549,-0.5549,-0.5542,-0.5487,-0.5021,-0.4573,-0.4211,-0.4796,-0.5036,-0.5025,-0.5056,-0.5056,-0.5056,-0.5056,-0.5054,-0.5056,-0.4996,-0.4808,0.0,-0.4501,-0.4317,-0.4055,-0.4045,-0.3976,-0.3918,-0.3907,-0.3898,-0.389,-0.3916,-0.3923,-0.3931,-0.3903,-0.405,-0.4321,-0.4442,-0.4716,-0.5203,-0.5635,-0.5848,-0.5848,-0.5864,-0.5829,-0.5827,-0.5843,-0.61,-0.6626,-0.6708,-0.6974,-0.7522,-0.758,-0.7617,-0.7634,-0.7576,-0.7628,-0.7738,-0.7752,-0.7799,-0.7931,-0.7991,-0.7997,-0.7997,-0.8014,-0.8343,-0.9015,-0.9118,-0.9128,-0.9128,-0.9177,-0.9159,-0.9065,-0.8848,-0.8659,-0.848,-0.8025,-0.763,-0.7538,-0.7263,-0.7051,-0.6898,-0.6962,-0.6806,-0.6436,-0.6191,-0.5945,-0.5638,-0.5364,-0.5058,-0.5056,-0.5118,-0.5148,-0.5058,-0.5025,-0.4996,-0.481,-0.4624,-0.447,-0.447,-0.4256,-0.4104,-0.4134,-0.4134,-0.4104,-0.4011,-0.3986,-0.395,-0.3886,-0.384,-0.3777,-0.3732,-0.372,-0.3706,-0.3638,-0.3767,-0.3962,-0.454,-0.4507,-0.4304,-0.4186,-0.4117,-0.3872,-0.3653,-0.3426,-0.3733,-0.4071,-0.435,-0.4381,-0.435,-0.435,-0.435,-0.4381,-0.435,-0.435,-0.4258,-0.4133,-0.4133,-0.4057,-0.3912,-0.391,-0.3787,-0.3582,-0.3579,-0.3474,-0.327,-0.3267,-0.3282,-0.3309,-0.3368,-0.3455,-0.357,-0.3626,-0.3731,-0.3884,-0.4742,-0.5222,-0.5219,-0.5176,-0.5184,-0.5182,-0.5112,-0.5323,-0.5735,-0.5733,-0.5967,-0.6404,-0.6404,-0.6429,-0.6485,-0.6489,-0.6531,-0.6656,-0.6694,-0.6715,-0.6794,-0.6797,-0.6827,-0.6797,-0.6827,-0.695,-0.7225,-0.7961,-0.836,-0.8363,-0.8363,-0.8272,-0.8119,-0.7936,-0.778,-0.7597,-0.7141,-0.6804,-0.6589,-0.628,-0.6006,-0.5855,-0.5824,-0.5763,-0.5607,-0.5456,-0.5333,-0.5116,-0.4839,-0.4562,-0.441,-0.4382,-0.4441,-0.4593,-0.4624,-0.4533,-0.4381,-0.4256,-0.4133,-0.4134,-0.4011,-0.3919,-0.3919,-0.3919,-0.3919,-0.3912,-0.3877,-0.3849,-0.3842,-0.3762,-0.3698,-0.3672,-0.3658,-0.3643,-0.3594,-0.3587,-0.3692,-0.3666,-0.3632,-0.3329,-0.3164,-0.308,-0.3043,-0.3013,-0.2993,-0.2991,-0.3269,-0.3671,-0.3702,-0.3702,-0.3702,-0.3671,-0.3703,-0.3702,-0.3702,-0.3702,-0.3702,-0.3702,-0.3702,-0.3702,-0.3702,-0.3556,-0.3336,-0.3303,-0.3161,-0.2859,-0.2825,-0.2872,-0.2939,-0.2975,-0.2991,-0.2991,-0.2991,-0.2991,-0.3054,-0.3947,-0.4472,-0.447,-0.4419,-0.4391,-0.4388,-0.4342,-0.4461,-0.47,-0.473,-0.4878,-0.5199,-0.5201,-0.5229,-0.529,-0.5296,-0.5354,-0.5439,-0.5446,-0.551,-0.5571,-0.5632,-0.5663,-0.5663,-0.5665,-0.5694,-0.5757,-0.6585,-0.7291,-0.7411,-0.7411,-0.7319,-0.7108,-0.6985,-0.6834,-0.6591,-0.6252,-0.5945,-0.5702,-0.5454,-0.5208,-0.4935,-0.4904,-0.4933,-0.4902,-0.4841,-0.4749,-0.4656,-0.4441,-0.4164,-0.395,-0.3919,-0.4011,-0.4195,-0.4287,-0.4195,-0.395,-0.3919,-0.3919,-0.3919,-0.3919,-0.3919,-0.3919,-0.3919,-0.3919,-0.3909,-0.3867,-0.384,-0.3814,-0.3726,-0.3661,-0.365,-0.3639,-0.359,-0.3589,-0.3587,-0.3587,-0.3263,-0.3262,-0.3194,-0.3146,-0.3076,-0.3063,-0.3042,-0.2999,-0.2992,-0.3022,-0.3085,-0.3085,-0.3085,-0.3085,-0.3085,-0.3115,-0.3115,-0.3085,-0.3085,-0.3085,-0.3085,-0.3085,-0.3115,-0.3085,-0.3052,-0.3045,-0.3014,-0.2979,-0.291,-0.2944,-0.298,-0.2986,-0.299,-0.2961,-0.296,-0.2961,-0.2992,-0.2991,-0.3115,-0.3177,-0.3177,-0.3173,-0.3169,-0.317,-0.3165,-0.3317,-0.3679,-0.3625,-0.3776,-0.4018,-0.4045,-0.4081,-0.4087,-0.4088,-0.406,-0.4097,-0.4097,-0.4221,-0.453,-0.481,-0.4995,-0.4995,-0.4993,-0.4995,-0.4995,-0.5118,-0.5454,-0.5941,-0.6092,-0.6123,-0.6029,-0.5818,-0.5667,-0.5636,-0.53,-0.5025,-0.5025,-0.4964,-0.4935,-0.4935,-0.4812,-0.4904,-0.4781,-0.4626,-0.4316,-0.4134,-0.4073,-0.3979,-0.3919,-0.3919,-0.3919,-0.395,-0.395,-0.395,-0.3888,-0.3919,-0.3919,-0.3919,-0.3919,-0.3919,-0.3919,-0.3919,-0.3919,-0.3912,-0.3897,-0.3876,-0.385,-0.3786,-0.3674,-0.3694,-0.3665,-0.3594,-0.359,-0.3598,-0.3604,-0.2895,-0.2894,-0.2692,-0.2563,-0.2519,-0.2516,-0.2474,-0.2408,-0.2407,-0.2395,-0.2409,-0.2407,-0.2623,-0.2991,-0.2991,-0.2991,-0.2991,-0.2991,-0.2991,-0.2991,-0.2991,-0.2991,-0.2991,-0.2991,-0.2929,-0.2714,-0.2714,-0.2622,-0.2438,-0.2407,-0.2407,-0.2408,-0.2407,-0.2407,-0.2407,-0.2408,-0.2407,-0.2407,-0.2407,-0.2408,-0.2438,-0.2807,-0.2991,-0.2991,-0.2991,-0.3054,-0.3177,-0.3208,-0.3269,-0.3361,-0.3361,-0.3391,-0.3361,-0.3361,-0.3361,-0.3361,-0.3361,-0.3515,-0.3856,-0.3979,-0.4133,-0.4288,-0.4288,-0.429,-0.4288,-0.4319,-0.4441,-0.4685,-0.5053,-0.5298,-0.5298,-0.5177,-0.5118,-0.5054,-0.4808,-0.4593,-0.4593,-0.4441,-0.4319,-0.4321,-0.4321,-0.4319,-0.4288,-0.4195,-0.4041,-0.3919,-0.3888,-0.3888,-0.3888,-0.3919,-0.3919,-0.3888,-0.3796,-0.3734,-0.3857,-0.3919,-0.3888,-0.3888,-0.3919,-0.3919,-0.3888,-0.3919,-0.3919,-0.3888,-0.3872,-0.3898,-0.3917,-0.3829,-0.3759,-0.3751,-0.3751,-0.3724,-0.3724,-0.3724,-0.3724,-0.2559,-0.2526,-0.229,-0.217,-0.211,-0.2109,-0.2079,-0.2034,-0.2031,-0.2019,-0.2033,-0.2032,-0.2281,-0.2714,-0.2727,-0.2716,-0.2715,-0.2746,-0.2716,-0.2716,-0.2716,-0.2715,-0.2716,-0.2716,-0.2591,-0.2406,-0.2344,-0.2227,-0.2019,-0.2029,-0.2032,-0.2032,-0.2032,-0.2032,-0.2032,-0.2031,-0.2028,-0.2019,-0.2019,-0.2016,-0.207,-0.247,-0.2716,-0.2746,-0.2716,-0.2716,-0.2746,-0.2715,-0.2746,-0.2715,-0.2716,-0.2746,-0.2716,-0.2715,-0.2716,-0.2746,-0.2807,-0.296,-0.3239,-0.3394,-0.3579,-0.3765,-0.3857,-0.3919,-0.3919,-0.3919,-0.3919,-0.398,-0.435,-0.4627,-0.4627,-0.4626,-0.4627,-0.4627,-0.4378,-0.4255,-0.4255,-0.4011,-0.3919,-0.3919,-0.398,-0.3919,-0.3919,-0.3919,-0.3919,-0.3919,-0.3857,-0.3796,-0.3765,-0.3703,-0.364,-0.364,-0.3486,-0.3486,-0.3703,-0.3671,-0.3671,-0.3671,-0.3609,-0.3609,-0.3671,-0.3671,-0.3734,-0.3637,-0.3722,-0.3829,-0.3891,-0.3843,-0.3783,-0.3803,-0.3799,-0.377,-0.3781,-0.3794,-0.3795,-0.2223,-0.2223,-0.2222,-0.2171,-0.211,-0.211,-0.2092,-0.2094,-0.2094,-0.2092,-0.2088,-0.2089,-0.2124,-0.2181,-0.216,-0.207,-0.2071,-0.2105,-0.2105,-0.2106,-0.2104,-0.2071,-0.2038,-0.2038,-0.2071,-0.2077,-0.2078,-0.2057,-0.2018,-0.2076,-0.2093,-0.2091,-0.2087,-0.2089,-0.2088,-0.2086,-0.2044,-0.2019,-0.2017,-0.2005,-0.2013,-0.2041,-0.2071,-0.2102,-0.2069,-0.2099,-0.2069,-0.2038,-0.2069,-0.2038,-0.2099,-0.2069,-0.2069,-0.21,-0.2099,-0.2131,-0.2345,-0.2528,-0.2651,-0.3115,-0.3486,-0.3517,-0.3702,-0.3888,-0.3857,-0.3857,-0.3857,-0.3919,-0.398,-0.4011,-0.4011,-0.4073,-0.4042,-0.4042,-0.398,-0.395,-0.395,-0.395,-0.3919,-0.3919,-0.3919,-0.3919,-0.3919,-0.3919,-0.3888,-0.3826,-0.3671,-0.3517,-0.3455,-0.3269,-0.3146,-0.3115,-0.3085,-0.3115,-0.3394,-0.3362,-0.3177,-0.3177,-0.3239,-0.3085,-0.3054,-0.3085,-0.3269,-0.3394,-0.3445,-0.3592,-0.3808,-0.387,-0.3783,-0.3757,-0.3743,-0.3766,-0.3815,-0.3813,-0.3818,-0.2188,-0.2188,-0.2188,-0.2181,-0.2172,-0.2139,-0.2121,-0.2094,-0.2093,-0.2114,-0.2098,-0.2097,-0.2097,-0.2095,-0.2074,-0.2064,-0.2064,-0.2064,-0.2064,-0.2064,-0.2064,-0.2064,-0.2064,-0.2064,-0.2064,-0.2064,-0.2064,-0.2069,-0.2078,-0.2091,-0.2097,-0.2097,-0.2097,-0.2097,-0.2097,-0.2097,-0.209,-0.2081,-0.208,-0.2074,-0.2031,-0.2014,-0.2003,-0.2003,-0.2017,-0.2008,-0.2008,-0.2008,-0.2008,-0.2008,-0.2008,-0.2008,-0.2008,-0.2008,-0.2008,-0.2008,-0.2099,-0.2283,-0.2498,-0.2714,-0.296,-0.3177,-0.3269,-0.3425,-0.3579,-0.364,-0.3703,-0.3857,-0.3888,-0.3919,-0.3919,-0.3919,-0.3919,-0.3919,-0.3919,-0.3919,-0.3919,-0.3919,-0.3919,-0.3919,-0.3919,-0.3919,-0.3919,-0.3919,-0.3826,-0.3671,-0.3579,-0.3425,-0.3208,-0.3054,-0.2961,-0.2929,-0.2806,-0.2714,-0.2837,-0.2991,-0.2991,-0.2991,-0.3022,-0.2992,-0.2961,-0.293,-0.3054,-0.3115,-0.3177,-0.3237,-0.3416,-0.3442,-0.3429,-0.3581,-0.3595,-0.3646,-0.3855,-0.3738,-0.3775,-0.1852,-0.1852,-0.1852,-0.1818,-0.1852,-0.1852,-0.1808,-0.1792,-0.1792,-0.1782,-0.1801,-0.1766,-0.1798,-0.1766,-0.1766,-0.1766,-0.1796,-0.2009,-0.2097,-0.2097,-0.2097,-0.2097,-0.2097,-0.2097,-0.2032,-0.1904,-0.1783,-0.1754,-0.1755,-0.1762,-0.1798,-0.1766,-0.1766,-0.1766,-0.1766,-0.1798,-0.1795,-0.1756,-0.1753,-0.175,-0.174,-0.182,-0.1843,-0.1872,-0.1983,-0.2026,-0.201,-0.2008,-0.2008,-0.2008,-0.2008,-0.2008,-0.2008,-0.2008,-0.2008,-0.2008,-0.2008,-0.2099,-0.2314,-0.2437,-0.259,-0.2806,-0.296,-0.3115,-0.3331,-0.3331,-0.3455,-0.3579,-0.3609,-0.3609,-0.364,-0.3702,-0.3826,-0.3888,-0.3919,-0.3919,-0.3919,-0.3919,-0.3919,-0.3919,-0.3919,-0.3919,-0.3919,-0.3919,-0.3765,-0.3548,-0.3425,-0.3208,-0.2929,-0.2746,-0.2685,-0.2653,-0.2468,-0.2376,-0.2407,-0.25,-0.2561,-0.2592,-0.2623,-0.2685,-0.2746,-0.2746,-0.2776,-0.2806,-0.2868,-0.2899,-0.2929,-0.296,-0.3115,-0.33,-0.3318,-0.3332,-0.3469,-0.357,-0.356,-0.1077,-0.1043,-0.1077,-0.101,-0.0976,-0.0976,-0.1043,-0.0974,-0.1008,-0.0972,-0.0937,-0.1007,-0.0971,-0.1041,-0.1004,-0.1075,-0.1135,-0.1604,-0.1912,-0.1976,-0.2007,-0.2007,-0.2008,-0.1977,-0.1782,-0.1459,-0.1146,-0.1021,-0.1022,-0.1066,-0.1073,-0.1109,-0.1073,-0.1105,-0.1076,-0.1072,-0.1068,-0.1025,-0.1021,-0.1015,-0.1034,-0.1291,-0.1451,-0.1515,-0.1834,-0.2033,-0.1984,-0.2013,-0.2015,-0.2011,-0.201,-0.2008,-0.2008,-0.2008,-0.2008,-0.2008,-0.2008,-0.2008,-0.2038,-0.2283,-0.2436,-0.2529,-0.2775,-0.293,-0.296,-0.2991,-0.3022,-0.3115,-0.3085,-0.3053,-0.3115,-0.3331,-0.3579,-0.3857,-0.3857,-0.3919,-0.3919,-0.3919,-0.3919,-0.3919,-0.3919,-0.3919,-0.3919,-0.3857,-0.3734,-0.3455,-0.3177,-0.2869,-0.256,-0.2284,-0.21,-0.2069,-0.2131,-0.213,-0.2069,-0.2038,-0.2038,-0.2069,-0.2131,-0.2193,-0.2285,-0.2285,-0.2377,-0.2438,-0.2499,-0.253,-0.2653,-0.2684,-0.2807,-0.293,-0.2961,-0.3054,-0.3177,-0.3269,-0.3177,0.0403,0.0403,0.0403,0.0403,0.0403,0.0403,0.0403,0.0403,0.0403,0.0437,0.0403,0.0403,0.0403,0.0336,0.0135,0.0,-0.0034,-0.0467,-0.093,-0.1294,-0.1394,-0.1394,-0.1394,-0.1394,-0.1229,-0.0831,-0.0467,-0.0301,-0.0301,-0.0336,-0.0337,-0.0337,-0.0337,-0.0337,-0.0303,-0.0337,-0.0336,-0.0301,-0.0334,-0.0334,-0.0332,-0.0625,-0.0818,-0.0883,-0.1361,-0.1668,-0.1655,-0.1909,-0.2058,-0.2007,-0.2005,-0.2028,-0.2012,-0.2008,-0.2008,-0.2008,-0.2008,-0.2008,-0.2008,-0.2099,-0.216,-0.2192,-0.2253,-0.2438,-0.2621,-0.2652,-0.2775,-0.293,-0.2991,-0.2991,-0.3022,-0.3085,-0.3269,-0.3609,-0.3765,-0.3888,-0.3919,-0.3919,-0.3919,-0.3919,-0.3919,-0.3919,-0.3857,-0.3796,-0.3517,-0.3208,-0.2899,-0.256,-0.2253,-0.2099,-0.2008,-0.2008,-0.2008,-0.2008,-0.2008,-0.2008,-0.2008,-0.2008,-0.2008,-0.2008,-0.2008,-0.2038,-0.21,-0.213,-0.2191,-0.2253,-0.2346,-0.2407,-0.2531,-0.2591,-0.2653,-0.2775,-0.2929,-0.293,-0.2838,0.1882,0.1882,0.1882,0.1882,0.1882,0.1882,0.1882,0.1882,0.1882,0.1882,0.1882,0.1882,0.1882,0.1781,0.148,0.1312,0.1278,0.0976,0.0572,0.0034,-0.0539,-0.0673,-0.064,-0.037,-0.0168,0.0135,0.0606,0.0808,0.0808,0.0808,0.0842,0.0808,0.0808,0.0842,0.0808,0.0808,0.0842,0.0808,0.0841,0.0741,0.0571,0.0267,-0.0033,-0.0365,-0.0987,-0.1377,-0.154,-0.1901,-0.2111,-0.2044,-0.2035,-0.2026,-0.2042,-0.2042,-0.204,-0.2039,-0.203,-0.2024,-0.2023,-0.2015,-0.2008,-0.2008,-0.2008,-0.21,-0.2284,-0.2314,-0.2438,-0.2592,-0.2623,-0.2622,-0.2622,-0.2776,-0.293,-0.3085,-0.3486,-0.3765,-0.3857,-0.3919,-0.3919,-0.3919,-0.3919,-0.3919,-0.3857,-0.3671,-0.3362,-0.3053,-0.2714,-0.2375,-0.213,-0.2038,-0.2008,-0.2008,-0.2008,-0.2008,-0.2008,-0.2008,-0.2008,-0.2008,-0.2008,-0.2008,-0.2008,-0.2008,-0.2038,-0.2069,-0.2099,-0.2099,-0.2192,-0.2131,-0.2192,-0.2253,-0.2345,-0.2376,-0.25,-0.25,-0.2439,0.3396,0.3396,0.3396,0.3429,0.3429,0.343,0.3462,0.3429,0.3429,0.3462,0.3429,0.3462,0.3429,0.3328,0.3093,0.2892,0.279,0.2455,0.2289,0.1884,0.111,0.0505,0.0337,0.0909,0.1211,0.1346,0.1986,0.2289,0.2289,0.2289,0.2323,0.2323,0.2322,0.2323,0.2289,0.2323,0.2255,0.2222,0.2222,0.1986,0.1683,0.1312,0.084,0.0134,-0.0604,-0.1207,-0.1542,-0.1943,-0.2156,-0.2107,-0.2096,-0.2091,-0.2093,-0.2096,-0.209,-0.2087,-0.2035,-0.2024,-0.2015,-0.2035,-0.2021,-0.2022,-0.2022,-0.2011,-0.2046,-0.2077,-0.2074,-0.2132,-0.21,-0.2069,-0.213,-0.2315,-0.2498,-0.2651,-0.3208,-0.3609,-0.3857,-0.3919,-0.3919,-0.3919,-0.3919,-0.3919,-0.3888,-0.364,-0.33,-0.3023,-0.2683,-0.2315,-0.213,-0.2008,-0.2008,-0.2008,-0.2008,-0.2008,-0.2008,-0.2008,-0.2008,-0.2008,-0.2008,-0.2008,-0.2008,-0.2008,-0.2008,-0.2008,-0.2008,-0.2008,-0.2008,-0.2008,-0.2008,-0.21,-0.2099,-0.2038,-0.2069,-0.2162,-0.2224,0.5579,0.5545,0.5545,0.5547,0.5579,0.5579,0.5545,0.5545,0.5512,0.5478,0.5547,0.5545,0.5478,0.548,0.4941,0.4673,0.4505,0.4034,0.3732,0.3698,0.3394,0.2522,0.1951,0.2321,0.2623,0.2724,0.3329,0.3732,0.3732,0.3698,0.3697,0.3731,0.3698,0.3732,0.3731,0.3498,0.3398,0.3331,0.3061,0.2892,0.2691,0.2188,0.1683,0.1144,0.0,-0.0808,-0.1245,-0.1885,-0.2172,-0.21,-0.2107,-0.2097,-0.21,-0.21,-0.2102,-0.21,-0.2091,-0.2084,-0.2082,-0.2075,-0.2071,-0.2073,-0.2067,-0.2031,-0.2009,-0.2007,-0.2028,-0.2015,-0.2008,-0.2008,-0.2008,-0.2099,-0.2346,-0.2837,-0.3208,-0.3579,-0.3826,-0.3919,-0.3919,-0.3919,-0.3919,-0.3888,-0.3796,-0.3455,-0.3115,-0.293,-0.2531,-0.213,-0.2038,-0.2008,-0.2008,-0.2008,-0.2008,-0.2008,-0.2008,-0.2008,-0.2008,-0.2008,-0.2008,-0.2008,-0.2008,-0.2008,-0.2008,-0.2008,-0.2008,-0.2008,-0.2008,-0.2008,-0.2008,-0.2008,-0.2008,-0.2008,-0.2008,-0.2069,-0.21,0.6855,0.6855,0.6855,0.6855,0.6855,0.6891,0.6855,0.6855,0.6889,0.6855,0.6855,0.6889,0.6889,0.6819,0.6317,0.6083,0.5982,0.5444,0.5208,0.5173,0.5139,0.437,0.3498,0.3631,0.3866,0.3933,0.447,0.4705,0.4739,0.4772,0.4772,0.4739,0.4739,0.4772,0.4705,0.4572,0.4371,0.4203,0.3967,0.3765,0.3431,0.2927,0.2356,0.175,0.0572,-0.0404,-0.1212,-0.1885,-0.2179,-0.2161,-0.2145,-0.2135,-0.2135,-0.2135,-0.2134,-0.2135,-0.2124,-0.2116,-0.2112,-0.2105,-0.2097,-0.2096,-0.2097,-0.2088,-0.2073,-0.2069,-0.2057,-0.2,-0.2026,-0.2019,-0.201,-0.2008,-0.2254,-0.2683,-0.3085,-0.3455,-0.3857,-0.3919,-0.3919,-0.3919,-0.3888,-0.3826,-0.3765,-0.3269,-0.2991,-0.2746,-0.2346,-0.2131,-0.2008,-0.2008,-0.2008,-0.2008,-0.2008,-0.2008,-0.2008,-0.2008,-0.2008,-0.2008,-0.2008,-0.2008,-0.2008,-0.2008,-0.2008,-0.2008,-0.2008,-0.2008,-0.2008,-0.2008,-0.2008,-0.2008,-0.2008,-0.2008,-0.2008,-0.2008,-0.2008,0.7627,0.7627,0.7627,0.7591,0.7627,0.7627,0.7624,0.7627,0.7627,0.7624,0.7627,0.7593,0.7624,0.7591,0.7221,0.7085,0.7051,0.6585,0.6485,0.6418,0.6351,0.578,0.4938,0.494,0.5041,0.5076,0.5379,0.5513,0.5547,0.5515,0.5515,0.5515,0.5515,0.5513,0.548,0.5446,0.5245,0.4975,0.4807,0.4472,0.3968,0.3464,0.2893,0.2154,0.0808,-0.037,-0.1313,-0.1953,-0.2187,-0.2188,-0.2188,-0.2182,-0.2183,-0.2186,-0.2186,-0.2179,-0.2159,-0.2114,-0.2111,-0.2125,-0.2111,-0.2114,-0.2112,-0.2102,-0.2102,-0.21,-0.2056,-0.2026,-0.202,-0.2003,-0.2013,-0.2008,-0.2192,-0.2529,-0.2806,-0.3208,-0.364,-0.3857,-0.3919,-0.3888,-0.3888,-0.3734,-0.3486,-0.3177,-0.2837,-0.2652,-0.2284,-0.2069,-0.2008,-0.2008,-0.2008,-0.2008,-0.2008,-0.2008,-0.2008,-0.2008,-0.2008,-0.2008,-0.2008,-0.2008,-0.2008,-0.2008,-0.2008,-0.2008,-0.2008,-0.2008,-0.2008,-0.2008,-0.2008,-0.2008,-0.2008,-0.2008,-0.2008,-0.2008,-0.2008,0.8354,0.8356,0.8354,0.839,0.8354,0.8387,0.8356,0.8356,0.8354,0.8289,0.8356,0.8356,0.8323,0.8323,0.7956,0.7858,0.7791,0.7457,0.7259,0.7259,0.7259,0.7158,0.6719,0.6583,0.6349,0.6284,0.6485,0.6518,0.6353,0.6254,0.6254,0.6254,0.6185,0.6252,0.6185,0.5915,0.5746,0.561,0.5413,0.5009,0.4505,0.3901,0.3229,0.2389,0.0707,-0.0606,-0.1447,-0.1986,-0.2188,-0.2188,-0.2188,-0.2188,-0.2188,-0.2188,-0.2188,-0.2187,-0.2183,-0.2177,-0.2177,-0.2168,-0.2168,-0.2163,-0.2159,-0.2158,-0.2101,-0.2099,-0.2085,-0.2089,-0.2033,-0.2013,-0.2016,-0.2009,-0.2162,-0.2407,-0.259,-0.2775,-0.3177,-0.3609,-0.3826,-0.3826,-0.3671,-0.3548,-0.3455,-0.2929,-0.2652,-0.2467,-0.2284,-0.2069,-0.2008,-0.2008,-0.2008,-0.2008,-0.2008,-0.2008,-0.2008,-0.2008,-0.2008,-0.2008,-0.2008,-0.2008,-0.2008,-0.2008,-0.2008,-0.2008,-0.2008,-0.2008,-0.2008,-0.2008,-0.2008,-0.2008,-0.2008,-0.2008,-0.2008,-0.2008,-0.2008,0.862,0.862,0.862,0.862,0.862,0.862,0.862,0.862,0.862,0.862,0.862,0.862,0.862,0.8587,0.8423,0.8323,0.8289,0.8123,0.8023,0.8023,0.8023,0.8025,0.7992,0.7789,0.7522,0.7087,0.7123,0.7123,0.6989,0.6924,0.6889,0.6721,0.6721,0.6587,0.652,0.6284,0.6081,0.5878,0.5713,0.5377,0.4807,0.4136,0.3095,0.1984,0.0404,-0.0774,-0.1313,-0.1919,-0.2155,-0.2188,-0.2188,-0.2188,-0.2188,-0.2188,-0.2188,-0.2188,-0.2188,-0.2188,-0.2188,-0.2188,-0.2187,-0.2188,-0.2188,-0.218,-0.2168,-0.2164,-0.2116,-0.2091,-0.2069,-0.2046,-0.2003,-0.2028,-0.2147,-0.2224,-0.2406,-0.256,-0.2775,-0.3177,-0.3486,-0.3455,-0.3331,-0.3177,-0.2929,-0.2652,-0.2437,-0.2284,-0.2223,-0.2008,-0.2008,-0.2008,-0.2008,-0.2008,-0.2008,-0.2008,-0.2008,-0.2008,-0.2008,-0.2008,-0.2008,-0.2008,-0.2008,-0.2008,-0.2008,-0.2008,-0.2008,-0.2008,-0.2008,-0.2008,-0.2008,-0.2008,-0.2008,-0.2008,-0.2008,-0.2008,-0.2008,0.862,0.862,0.862,0.862,0.862,0.862,0.862,0.862,0.862,0.862,0.862,0.862,0.862,0.8587,0.8587,0.8587,0.8587,0.8587,0.8487,0.8487,0.8487,0.8487,0.849,0.8387,0.8187,0.7694,0.7624,0.7557,0.7459,0.7493,0.7259,0.7087,0.7087,0.6922,0.6654,0.6587,0.6418,0.6081,0.6014,0.5647,0.4941,0.4237,0.306,0.1346,0.0168,-0.0673,-0.1212,-0.1784,-0.2188,-0.2188,-0.2188,-0.2188,-0.2188,-0.2188,-0.2188,-0.2188,-0.2188,-0.2188,-0.2188,-0.2188,-0.2188,-0.2188,-0.2188,-0.2188,-0.2186,-0.2183,-0.2172,-0.2123,-0.2104,-0.208,-0.2033,-0.2025,-0.2011,-0.2055,-0.2262,-0.238,-0.2468,-0.2714,-0.2838,-0.3054,-0.2991,-0.2868,-0.2683,-0.2436,-0.2253,-0.2099,-0.2038,-0.2008,-0.2008,-0.2008,-0.2008,-0.2008,-0.2008,-0.2008,-0.2008,-0.2008,-0.2008,-0.2008,-0.2008,-0.2008,-0.2008,-0.2008,-0.2008,-0.2008,-0.2008,-0.2008,-0.2008,-0.2008,-0.2008,-0.2008,-0.2008,-0.2008,-0.2008,-0.2008,-0.2008,0.862,0.862,0.862,0.862,0.862,0.862,0.862,0.862,0.862,0.862,0.862,0.862,0.862,0.862,0.862,0.862,0.862,0.862,0.862,0.862,0.862,0.862,0.862,0.8587,0.8487,0.839,0.8123,0.7858,0.7627,0.7495,0.756,0.7426,0.7424,0.7257,0.702,0.6918,0.6719,0.6418,0.6351,0.5949,0.5245,0.4336,0.3126,0.1245,0.0101,-0.064,-0.1144,-0.1784,-0.2188,-0.2188,-0.2188,-0.2188,-0.2188,-0.2188,-0.2188,-0.2188,-0.2188,-0.2188,-0.2188,-0.2188,-0.2188,-0.2188,-0.2188,-0.2188,-0.2188,-0.2188,-0.2183,-0.2176,-0.2122,-0.2095,-0.2061,-0.2056,-0.2041,-0.2053,-0.2072,-0.2127,-0.214,-0.2227,-0.2471,-0.2777,-0.2684,-0.256,-0.2406,-0.2284,-0.2161,-0.2069,-0.2038,-0.2008,-0.2008,-0.2008,-0.2008,-0.2008,-0.2008,-0.2008,-0.2008,-0.2008,-0.2008,-0.2008,-0.2008,-0.2008,-0.2008,-0.2008,-0.2008,-0.2008,-0.2008,-0.2008,-0.2008,-0.2008,-0.2008,-0.2008,-0.2008,-0.2008,-0.2008,-0.2008,-0.2008,0.862,0.862,0.862,0.862,0.862,0.862,0.862,0.862,0.862,0.862,0.862,0.862,0.862,0.862,0.862,0.862,0.862,0.862,0.862,0.862,0.862,0.862,0.862,0.862,0.862,0.8554,0.842,0.8256,0.8089,0.8089,0.7958,0.7827,0.7791,0.7622,0.7288,0.7054,0.6953,0.6753,0.6585,0.6152,0.5312,0.4235,0.2657,0.1481,0.0168,-0.064,-0.1144,-0.1818,-0.2188,-0.2188,-0.2188,-0.2188,-0.2188,-0.2188,-0.2188,-0.2188,-0.2188,-0.2188,-0.2188,-0.2188,-0.2188,-0.2188,-0.2188,-0.2188,-0.2188,-0.2188,-0.2188,-0.2185,-0.218,-0.2154,-0.2091,-0.2121,-0.2072,-0.205,-0.2041,-0.2028,-0.2008,-0.2031,-0.224,-0.2508,-0.238,-0.2255,-0.2222,-0.213,-0.2038,-0.2008,-0.2008,-0.2008,-0.2008,-0.2008,-0.2008,-0.2008,-0.2008,-0.2008,-0.2008,-0.2008,-0.2008,-0.2008,-0.2008,-0.2008,-0.2008,-0.2008,-0.2008,-0.2008,-0.2008,-0.2008,-0.2008,-0.2008,-0.2008,-0.2008,-0.2008,-0.2008,-0.2008,-0.2008,-0.2008,0.862,0.862,0.862,0.862,0.862,0.862,0.862,0.862,0.862,0.862,0.862,0.862,0.862,0.862,0.862,0.862,0.862,0.862,0.862,0.862,0.862,0.862,0.862,0.862,0.862,0.8587,0.8587,0.862,0.852,0.852,0.839,0.8259,0.8189,0.7992,0.7658,0.7421,0.7221,0.702,0.6786,0.6183,0.5076,0.3631,0.2354,0.1548,0.0236,-0.0673,-0.1111,-0.1818,-0.2155,-0.2188,-0.2188,-0.2188,-0.2188,-0.2188,-0.2188,-0.2188,-0.2188,-0.2188,-0.2188,-0.2188,-0.2188,-0.2188,-0.2188,-0.2188,-0.2188,-0.2188,-0.2188,-0.2188,-0.2186,-0.2178,-0.2156,-0.2119,-0.2103,-0.2114,-0.2104,-0.2095,-0.2039,-0.2024,-0.2012,-0.2096,-0.202,-0.2044,-0.2074,-0.2069,-0.2008,-0.2008,-0.2008,-0.2008,-0.2008,-0.2008,-0.2008,-0.2008,-0.2008,-0.2008,-0.2008,-0.2008,-0.2008,-0.2008,-0.2008,-0.2008,-0.2008,-0.2008,-0.2008,-0.2008,-0.2008,-0.2008,-0.2008,-0.2008,-0.2008,-0.2008,-0.2008,-0.2008,-0.2008,-0.2008,-0.2008,0.862,0.862,0.862,0.862,0.862,0.862,0.862,0.862,0.862,0.862,0.862,0.862,0.862,0.862,0.862,0.862,0.862,0.862,0.862,0.862,0.862,0.862,0.862,0.862,0.862,0.862,0.862,0.862,0.862,0.862,0.8587,0.849,0.8456,0.839,0.8023,0.7858,0.7791,0.7459,0.7087,0.6282,0.494,0.3529,0.2489,0.1481,0.0337,-0.0673,-0.1111,-0.1784,-0.2188,-0.2188,-0.2188,-0.2188,-0.2188,-0.2188,-0.2188,-0.2188,-0.2188,-0.2188,-0.2188,-0.2188,-0.2188,-0.2188,-0.2188,-0.2188,-0.2188,-0.2188,-0.2188,-0.2188,-0.2188,-0.2187,-0.2179,-0.2181,-0.2165,-0.2117,-0.2136,-0.212,-0.2099,-0.2057,-0.2044,-0.2026,-0.2016,-0.2028,-0.2018,-0.2012,-0.2008,-0.2008,-0.2008,-0.2008,-0.2008,-0.2008,-0.2008,-0.2008,-0.2008,-0.2008,-0.2008,-0.2008,-0.2008,-0.2008,-0.2008,-0.2008,-0.2008,-0.2008,-0.2008,-0.2008,-0.2008,-0.2012,-0.2016,-0.2015,-0.201,-0.201,-0.2014,-0.2011,-0.2008,-0.2009,-0.2019,0.862,0.862,0.862,0.862,0.862,0.862,0.862,0.862,0.862,0.862,0.862,0.862,0.862,0.862,0.862,0.862,0.862,0.862,0.862,0.862,0.862,0.862,0.862,0.862,0.862,0.862,0.862,0.862,0.862,0.862,0.862,0.862,0.8587,0.8554,0.8323,0.8189,0.8025,0.7658,0.7123,0.6317,0.531,0.4068,0.2893,0.1919,0.0539,-0.0404,-0.1111,-0.1784,-0.2155,-0.2188,-0.2188,-0.2188,-0.2188,-0.2188,-0.2188,-0.2188,-0.2188,-0.2188,-0.2188,-0.2188,-0.2188,-0.2188,-0.2188,-0.2188,-0.2188,-0.2188,-0.2188,-0.2188,-0.2188,-0.2188,-0.2188,-0.2188,-0.2182,-0.2172,-0.2164,-0.2115,-0.2131,-0.2092,-0.208,-0.2061,-0.2041,-0.2024,-0.2038,-0.2026,-0.2017,-0.2008,-0.2008,-0.2008,-0.2008,-0.2008,-0.2008,-0.2008,-0.2008,-0.2008,-0.2008,-0.2008,-0.2008,-0.2008,-0.2008,-0.2008,-0.2008,-0.2008,-0.2012,-0.2011,-0.201,-0.2015,-0.2025,-0.2021,-0.2015,-0.2017,-0.2021,-0.2026,-0.2034,-0.2053,-0.2062,0.862,0.862,0.862,0.862,0.862,0.862,0.862,0.862,0.862,0.862,0.862,0.862,0.862,0.862,0.862,0.862,0.862,0.862,0.862,0.862,0.862,0.862,0.862,0.862,0.862,0.862,0.862,0.862,0.862,0.862,0.862,0.862,0.862,0.8587,0.8523,0.839,0.8189,0.7989,0.7154,0.6451,0.5679,0.4473,0.3263,0.212,0.0909,-0.0269,-0.1077,-0.1683,-0.202,-0.2188,-0.2188,-0.2188,-0.2188,-0.2188,-0.2188,-0.2188,-0.2188,-0.2188,-0.2188,-0.2188,-0.2188,-0.2188,-0.2188,-0.2188,-0.2188,-0.2188,-0.2188,-0.2188,-0.2188,-0.2188,-0.2188,-0.2188,-0.2186,-0.2186,-0.2184,-0.2171,-0.2126,-0.2152,-0.2108,-0.2087,-0.207,-0.2057,-0.207,-0.2046,-0.203,-0.2012,-0.2008,-0.201,-0.2012,-0.2015,-0.2012,-0.2013,-0.2011,-0.2011,-0.201,-0.201,-0.2009,-0.2012,-0.2013,-0.201,-0.2012,-0.2019,-0.2025,-0.2021,-0.2021,-0.2039,-0.206,-0.2039,-0.2021,-0.2041,-0.2057,-0.2027,-0.2068,-0.2088,-0.2096,0.862,0.862,0.862,0.862,0.862,0.862,0.862,0.862,0.862,0.862,0.862,0.862,0.862,0.862,0.862,0.862,0.862,0.862,0.862,0.862,0.862,0.862,0.862,0.862,0.862,0.862,0.862,0.862,0.862,0.862,0.862,0.862,0.862,0.862,0.8587,0.852,0.8356,0.8089,0.7355,0.6617,0.5778,0.4605,0.333,0.2255,0.1111,0.0,-0.1043,-0.1447,-0.1784,-0.2087,-0.2087,-0.2188,-0.2188,-0.2188,-0.2188,-0.2188,-0.2188,-0.2188,-0.2188,-0.2188,-0.2188,-0.2188,-0.2188,-0.2188,-0.2188,-0.2188,-0.2188,-0.2188,-0.2188,-0.2188,-0.2188,-0.2188,-0.2188,-0.2188,-0.2188,-0.2184,-0.2177,-0.2179,-0.2165,-0.2113,-0.2099,-0.2089,-0.2074,-0.2084,-0.206,-0.2042,-0.2035,-0.2036,-0.2029,-0.2029,-0.2022,-0.2019,-0.2017,-0.2015,-0.2014,-0.2018,-0.2032,-0.2035,-0.2034,-0.2026,-0.202,-0.2028,-0.2047,-0.2052,-0.2057,-0.2076,-0.2089,-0.2043,-0.2069,-0.2084,-0.2093,-0.2096,-0.2069,-0.2116,-0.2116,0.862,0.862,0.862,0.862,0.862,0.862,0.862,0.862,0.862,0.862,0.862,0.862,0.862,0.862,0.862,0.862,0.862,0.862,0.862,0.862,0.862,0.862,0.862,0.862,0.862,0.862,0.862,0.862,0.862,0.862,0.862,0.862,0.862,0.862,0.862,0.862,0.8523,0.8256,0.7689,0.6953,0.6081,0.4839,0.3598,0.2523,0.1144,0.0303,-0.0404,-0.0976,-0.1414,-0.1717,-0.1818,-0.1953,-0.2121,-0.2121,-0.2155,-0.2155,-0.2188,-0.2188,-0.2188,-0.2188,-0.2188,-0.2188,-0.2188,-0.2188,-0.2188,-0.2188,-0.2188,-0.2188,-0.2188,-0.2188,-0.2188,-0.2188,-0.2188,-0.2188,-0.2188,-0.2188,-0.2188,-0.2188,-0.2186,-0.2164,-0.2161,-0.2157,-0.2141,-0.2091,-0.2098,-0.2074,-0.2067,-0.206,-0.2054,-0.2051,-0.2048,-0.2046,-0.2046,-0.2049,-0.2049,-0.2054,-0.206,-0.2057,-0.2055,-0.2051,-0.2048,-0.2064,-0.208,-0.2084,-0.2091,-0.2105,-0.2113,-0.2079,-0.2079,-0.2113,-0.2123,-0.2134,-0.214,-0.2145,-0.2143,0.862,0.862,0.862,0.862,0.862,0.862,0.862,0.862,0.862,0.862,0.862,0.862,0.862,0.862,0.862,0.862,0.862,0.862,0.862,0.862,0.862,0.862,0.862,0.862,0.862,0.862,0.862,0.862,0.862,0.862,0.862,0.862,0.862,0.862,0.862,0.862,0.862,0.8423,0.7856,0.7123,0.6317,0.5141,0.3831,0.2757,0.148,0.0572,-0.0034,-0.064,-0.1043,-0.1346,-0.1481,-0.1582,-0.1784,-0.1953,-0.1986,-0.2054,-0.2121,-0.2188,-0.2188,-0.2188,-0.2188,-0.2188,-0.2188,-0.2188,-0.2188,-0.2188,-0.2188,-0.2188,-0.2188,-0.2188,-0.2188,-0.2188,-0.2188,-0.2188,-0.2188,-0.2188,-0.2188,-0.2188,-0.2188,-0.2182,-0.2181,-0.2177,-0.2171,-0.2152,-0.2125,-0.21,-0.2084,-0.208,-0.208,-0.208,-0.2082,-0.2082,-0.2083,-0.2089,-0.2094,-0.2087,-0.208,-0.2078,-0.2078,-0.2084,-0.2087,-0.2101,-0.211,-0.2114,-0.2122,-0.2134,-0.2141,-0.2146,-0.214,-0.2132,-0.2145,-0.216,-0.2165,-0.217,-0.2174,0.862,0.862,0.862,0.862,0.862,0.862,0.862,0.862,0.862,0.862,0.862,0.862,0.862,0.862,0.862,0.862,0.862,0.862,0.862,0.862,0.862,0.862,0.862,0.862,0.862,0.862,0.862,0.862,0.862,0.862,0.862,0.862,0.862,0.862,0.862,0.862,0.862,0.8487,0.7856,0.7156,0.6384,0.5342,0.4066,0.2992,0.1918,0.0976,0.0303,-0.0269,-0.0707,-0.101,-0.1111,-0.1178,-0.1279,-0.1515,-0.1616,-0.1616,-0.1953,-0.2087,-0.2155,-0.2188,-0.2188,-0.2188,-0.2188,-0.2188,-0.2188,-0.2188,-0.2188,-0.2188,-0.2188,-0.2188,-0.2188,-0.2188,-0.2188,-0.2188,-0.2188,-0.2188,-0.2188,-0.2188,-0.2188,-0.2188,-0.2188,-0.2188,-0.2188,-0.2178,-0.215,-0.2125,-0.2104,-0.21,-0.2107,-0.2114,-0.212,-0.2122,-0.2124,-0.2123,-0.2125,-0.2109,-0.2102,-0.21,-0.2106,-0.2117,-0.2123,-0.2132,-0.2106,-0.2109,-0.2118,-0.2161,-0.2174,-0.2185,-0.217,-0.2159,-0.217,-0.2182,-0.2188,-0.2188,-0.2188,0.862,0.862,0.862,0.862,0.862,0.862,0.862,0.862,0.862,0.862,0.862,0.862,0.862,0.862,0.862,0.862,0.862,0.862,0.862,0.862,0.862,0.862,0.862,0.862,0.862,0.862,0.862,0.862,0.862,0.862,0.862,0.862,0.862,0.862,0.862,0.862,0.862,0.8487,0.7891,0.7257,0.6684,0.5513,0.4372,0.34,0.2257,0.1348,0.0673,0.0135,-0.0337,-0.0673,-0.0707,-0.0808,-0.0976,-0.1212,-0.1245,-0.1279,-0.1481,-0.1582,-0.1818,-0.1986,-0.2188,-0.2188,-0.2188,-0.2188,-0.2188,-0.2188,-0.2188,-0.2188,-0.2188,-0.2188,-0.2188,-0.2188,-0.2188,-0.2188,-0.2188,-0.2188,-0.2188,-0.2188,-0.2188,-0.2188,-0.2188,-0.2188,-0.2188,-0.2188,-0.2167,-0.2161,-0.2144,-0.2146,-0.2154,-0.216,-0.2165,-0.2165,-0.2165,-0.2161,-0.2155,-0.2143,-0.2141,-0.2144,-0.2152,-0.2163,-0.2168,-0.2161,-0.2165,-0.2167,-0.2178,-0.2188,-0.2188,-0.2188,-0.2188,-0.2187,-0.2188,-0.2188,-0.2188,-0.2188,-0.2188,0.862,0.862,0.862,0.862,0.862,0.862,0.862,0.862,0.862,0.862,0.862,0.862,0.862,0.862,0.862,0.862,0.862,0.862,0.862,0.862,0.862,0.862,0.862,0.862,0.862,0.862,0.862,0.862,0.862,0.862,0.862,0.862,0.862,0.862,0.862,0.862,0.862,0.8423,0.7894,0.7349,0.6726,0.5793,0.4676,0.373,0.2746,0.176,0.1113,0.0539,0.0,-0.0236,0.0,0.0,0.0,-0.0842,-0.0875,-0.0909,-0.1077,-0.1212,-0.1447,-0.1582,-0.1784,-0.1953,-0.2087,-0.2188,-0.2188,-0.2188,-0.2188,-0.2188,-0.2188,-0.2188,-0.2188,-0.2188,-0.2188,-0.2188,-0.2188,-0.2188,-0.2188,-0.2188,-0.2188,-0.2188,-0.2155,-0.2155,-0.2155,-0.2188,-0.2182,-0.2184,-0.2186,-0.2155,-0.2155,-0.2155,-0.2155,-0.2187,-0.2186,-0.2179,-0.2177,-0.2177,-0.2178,-0.2187,-0.2188,-0.2188,-0.2186,-0.2177,-0.2184,-0.2188,-0.2188,-0.2188,-0.2188,-0.2188,-0.2188,-0.2188,-0.2188,-0.2188,-0.2188,-0.2188,-0.2188,0.862,0.862,0.862,0.862,0.862,0.862,0.862,0.862,0.862,0.862,0.862,0.862,0.862,0.862,0.862,0.862,0.862,0.862,0.862,0.862,0.862,0.862,0.862,0.862,0.862,0.862,0.862,0.862,0.862,0.862,0.862,0.862,0.862,0.862,0.862,0.862,0.862,0.8423,0.8025,0.7523,0.7018,0.6206,0.5149,0.4189,0.3221,0.2214,0.1423,0.0708,0.0303,0.0,0.0,0.0,0.0,0.0,-0.0438,-0.0572,-0.0842,-0.0976,-0.1077,-0.1178,-0.1346,-0.1616,-0.1885,-0.2087,-0.2188,-0.2188,-0.2188,-0.2188,-0.2188,-0.2188,-0.2188,-0.2188,-0.2188,-0.2188,-0.2188,-0.2188,-0.2188,-0.2188,-0.2188,-0.2188,-0.2121,-0.2054,-0.1953,-0.1953,-0.1919,-0.1885,-0.1818,-0.1852,-0.1852,-0.202,-0.2054,-0.2188,-0.2154,-0.2155,-0.2155,-0.2155,-0.2188,-0.2188,-0.2188,-0.2188,-0.2188,-0.2188,-0.2188,-0.2188,-0.2188,-0.2188,-0.2188,-0.2188,-0.2188,-0.2188,-0.2188,-0.2188,-0.2188,-0.2188,-0.2188,0.862,0.862,0.862,0.862,0.862,0.862,0.862,0.862,0.862,0.862,0.862,0.862,0.862,0.862,0.862,0.862,0.862,0.862,0.862,0.862,0.862,0.862,0.862,0.862,0.862,0.862,0.862,0.862,0.862,0.862,0.862,0.862,0.862,0.862,0.862,0.862,0.862,0.8511,0.8125,0.7813,0.7392,0.6718,0.5696,0.4765,0.3735,0.2712,0.1706,0.0947,0.0506,0.0,0.0,0.0,0.0,-0.0101,-0.0168,-0.0168,-0.0438,-0.0673,-0.0707,-0.0943,-0.1111,-0.1178,-0.138,-0.1751,-0.1986,-0.2121,-0.2121,-0.2054,-0.202,-0.1986,-0.1986,-0.1986,-0.1986,-0.1986,-0.1986,-0.1986,-0.1986,-0.1986,-0.1986,-0.1953,-0.1919,-0.1751,-0.1616,-0.1515,-0.1481,-0.1447,-0.1447,-0.1515,-0.1582,-0.1717,-0.1818,-0.1919,-0.1919,-0.1852,-0.2054,-0.2121,-0.2155,-0.2188,-0.2087,-0.2054,-0.2054,-0.2054,-0.2155,-0.2155,-0.2054,-0.2121,-0.2188,-0.2188,-0.2188,-0.2188,-0.2188,-0.2188,-0.2188,-0.2188,-0.2188,0.8478,0.8516,0.8519,0.8546,0.8617,0.862,0.862,0.862,0.862,0.862,0.862,0.862,0.862,0.862,0.862,0.862,0.862,0.862,0.862,0.862,0.862,0.862,0.862,0.862,0.862,0.862,0.862,0.862,0.862,0.862,0.862,0.862,0.862,0.862,0.862,0.862,0.862,0.8496,0.8324,0.8064,0.7656,0.7137,0.6231,0.5286,0.4265,0.3231,0.2063,0.1327,0.0881,0.0337,0.0202,0.0101,0.0,0.0,0.0,0.0,-0.0168,-0.0303,-0.0337,-0.0471,-0.0673,-0.0808,-0.0875,-0.1178,-0.1481,-0.165,-0.165,-0.165,-0.1683,-0.1717,-0.1751,-0.1751,-0.1717,-0.1717,-0.1717,-0.1717,-0.1717,-0.1717,-0.1717,-0.1683,-0.1548,-0.1346,-0.1212,-0.1111,-0.1111,-0.1178,-0.1245,-0.1245,-0.1279,-0.1346,-0.1447,-0.1548,-0.1515,-0.1447,-0.1717,-0.1852,-0.1784,-0.1717,-0.1616,-0.1616,-0.1784,-0.1751,-0.1683,-0.1751,-0.1852,-0.1885,-0.1919,-0.2155,-0.2188,-0.2157,-0.2125,-0.2125,-0.2158,-0.2188,-0.2188,0.8272,0.8407,0.8383,0.8481,0.8565,0.8579,0.862,0.862,0.862,0.862,0.862,0.862,0.862,0.862,0.862,0.862,0.862,0.862,0.862,0.862,0.862,0.862,0.862,0.862,0.862,0.862,0.862,0.862,0.862,0.862,0.862,0.862,0.862,0.862,0.862,0.862,0.8623,0.8575,0.8439,0.8196,0.7863,0.7253,0.6507,0.5545,0.4769,0.3957,0.2774,0.2093,0.1708,0.0981,0.0471,0.0337,0.0,0.0,0.0,0.0,0.0,0.0,0.0,0.0,0.0,-0.0404,-0.0471,-0.0673,-0.0909,-0.1245,-0.1346,-0.1346,-0.138,-0.1414,-0.1414,-0.1414,-0.138,-0.138,-0.138,-0.138,-0.138,-0.138,-0.1313,-0.1245,-0.1111,-0.0943,-0.0774,-0.0673,-0.064,-0.0875,-0.0909,-0.0875,0.0,0.0,-0.1077,-0.1144,-0.1111,-0.1111,-0.1279,-0.138,-0.1279,-0.1178,-0.1178,-0.1245,-0.1414,-0.1313,-0.1144,-0.1313,-0.1515,-0.1548,-0.1616,-0.1784,-0.1889,-0.1897,-0.1897,-0.203,-0.2062,-0.2033,-0.2159,0.8218,0.8256,0.8345,0.8435,0.847,0.8552,0.8617,0.862,0.862,0.862,0.862,0.862,0.862,0.862,0.862,0.862,0.862,0.862,0.862,0.862,0.862,0.862,0.862,0.862,0.862,0.862,0.862,0.862,0.862,0.862,0.862,0.862,0.862,0.862,0.862,0.862,0.859,0.8595,0.8608,0.8452,0.8221,0.7931,0.7391,0.6465,0.5643,0.4688,0.3563,0.2659,0.2084,0.1384,0.0775,0.037,0.0,0.0,0.0,0.0,0.0,0.0,0.0,0.0,0.0,0.0,0.0,0.0,-0.0404,-0.0842,-0.1043,-0.1043,-0.1043,-0.1043,-0.1043,-0.1043,-0.1043,-0.1043,-0.1043,-0.1043,-0.1043,-0.0976,-0.0909,-0.0808,-0.0673,-0.0539,-0.0404,0.0,0.0,-0.0269,-0.0236,0.0,0.0,0.0,0.0,-0.0774,-0.0707,-0.0741,-0.0875,-0.0943,-0.0842,-0.0909,-0.0943,-0.101,0.0,-0.0943,-0.0842,-0.1043,-0.1178,-0.1212,-0.1212,-0.128,-0.1351,-0.1496,-0.154,-0.161,-0.1551,-0.1487,-0.1778,0.8106,0.8166,0.8253,0.8304,0.8326,0.8462,0.8511,0.8522,0.8565,0.862,0.862,0.862,0.862,0.862,0.862,0.862,0.862,0.862,0.862,0.862,0.862,0.862,0.862,0.862,0.862,0.862,0.862,0.862,0.862,0.862,0.862,0.862,0.862,0.862,0.862,0.862,0.862,0.8626,0.8743,0.8692,0.8566,0.834,0.7821,0.6979,0.6285,0.5394,0.4454,0.3455,0.279,0.1904,0.1014,0.0539,0.0236,0.0,0.0,0.0,0.0,0.0,0.0,0.0,0.0,0.0,0.0,0.0,0.0,-0.0438,-0.0471,-0.0471,-0.0471,-0.0471,-0.0471,-0.0471,-0.0471,-0.0471,-0.0471,-0.0471,-0.0471,-0.0438,-0.0404,-0.037,-0.0303,-0.0269,0.0,0.0,0.0,0.0,0.0,0.0,0.0,0.0,0.0,0.0,0.0,0.0,-0.0404,-0.0471,-0.0471,-0.0572,0.0,0.0,0.0,0.0,-0.0606,-0.0673,-0.0741,-0.0808,-0.0842,-0.0913,-0.1053,-0.1266,-0.1207,-0.1181,-0.1085,-0.102,-0.1288,0.7968,0.8074,0.816,0.818,0.8199,0.831,0.8375,0.8402,0.8519,0.8573,0.862,0.862,0.862,0.862,0.862,0.862,0.862,0.862,0.862,0.862,0.862,0.862,0.862,0.862,0.862,0.862,0.862,0.862,0.862,0.862,0.862,0.862,0.862,0.862,0.862,0.862,0.862,0.8639,0.869,0.8812,0.8729,0.8676,0.8045,0.7501,0.6946,0.6255,0.5287,0.4373,0.3689,0.2576,0.139,0.0742,0.037,0.0,0.0,0.0,0.0,0.0,0.0,0.0,0.0,0.0,0.0,0.0,0.0,0.0,0.0,0.0,0.0,0.0,0.0,0.0,0.0,0.0,0.0,0.0,0.0,0.0,0.0,0.0,0.0,0.0,0.0,0.0,0.0,0.0,0.0,0.0,0.0,0.0,0.0,0.0,0.0,0.0,0.0,0.0,0.0,0.0,0.0,0.0,0.0,0.0,0.0,-0.0168,-0.0269,0.0,0.0,-0.0616,-0.079,0.0,-0.0768,-0.0669,-0.071,-0.0676,-0.0779,0.7913,0.7946,0.8066,0.8121,0.8137,0.8185,0.8291,0.8378,0.8437,0.85,0.8565,0.8617,0.862,0.862,0.862,0.862,0.862,0.862,0.862,0.862,0.862,0.862,0.862,0.862,0.862,0.862,0.862,0.862,0.862,0.862,0.862,0.862,0.862,0.862,0.862,0.862,0.8623,0.8639,0.8633,0.8734,0.8793,0.8711,0.8576,0.8033,0.746,0.6967,0.6215,0.5112,0.4317,0.3299,0.2002,0.1045,0.0505,0.0,0.0,0.0,0.0,0.0,0.0,0.0,0.0,0.0,0.0,0.0,0.0,0.0,0.0,0.0,0.0,0.0,0.0,0.0,0.0,0.0,0.0,0.0,0.0,0.0,0.0,0.0,0.0,0.0,0.0,0.0,0.0,0.0,0.0,0.0,0.0,0.0,0.0,0.0,0.0,0.0,0.0,0.0,0.0,0.0,0.0,0.0,0.0,0.0,0.0,0.0,0.0,0.0,0.0,0.0,0.0,0.0,0.0,-0.0143,0.0,0.0,0.0]},{"header":{"parameterUnit":"m.s-1","parameterCategory":1,"la1":31.0,"la2":29.5877,"lo1":-88.7671,"lo2":-86.6584,"dy":0.0162,"dx":0.0185,"nx":115,"ny":88,"refTime":"2023-09-17T12:00:00:Z","depth":0,"parameterNumber":3,"parameterNumberName":"V-component_of_WINDS"},"data":[0.0,0.0,0.0,0.0,0.0,0.0,0.0,0.0,0.0,0.0,0.0,0.0,0.0,0.0,0.0,0.0,0.0,0.0,0.0,0.0,0.0,0.0,0.0,0.0,0.0,0.0,0.0,0.0,0.0,0.0,0.0,0.0,0.0,0.0,0.0,0.0,0.0,0.0,0.0,0.0,0.0,0.0,0.0,0.0,0.0,0.0,0.0,0.0,0.0,0.0,0.0,0.0,0.0,0.0,0.0,0.0,0.0,0.0,0.0,0.0,0.0,0.0,0.0,0.0,0.0,0.0,0.0,0.0,0.0,0.0,0.0,0.0,0.0,0.0,0.0,0.0,0.0,0.0,0.0,0.0,0.0,0.0,0.0,0.0,0.0,0.0,0.0,0.0,0.0,0.0,0.0,0.0,0.0,0.0,0.0,0.0,0.0,0.0,0.0,0.0,0.0,0.0,0.0,0.0,0.0,0.0,0.0,0.0,0.0,0.0,0.0,0.0,0.0,0.0,0.0,0.0,0.0,0.0,0.0,0.0,0.0,0.0,0.0,0.0,0.0,0.0,0.0,0.0,0.0,0.0,0.0,0.0,0.0,0.0,0.0,0.0,0.0,0.0,0.0,0.0,0.0,0.0,0.0,0.0,0.0,0.0,0.0,0.0,0.0,0.0,0.0,0.0,0.0,0.0,0.0,0.0,0.0,0.0,0.0,0.0,0.0,0.0,0.0,0.0,0.0,0.0,0.0,0.0,0.0,0.0,0.0,0.0,0.0,0.0,0.0,0.0,0.0,0.0,0.0,0.0,0.0,0.0,0.0,0.0,0.0,0.0,0.0,0.0,0.0,0.0,0.0,0.0,0.0,0.0,0.0,0.0,0.0,0.0,0.0,0.0,0.0,0.0,0.0,0.0,0.0,0.0,0.0,0.0,0.0,0.0,0.0,0.0,0.0,0.0,0.0,0.0,0.0,0.0,0.0,0.0,0.0,0.0,0.0,0.0,0.0,0.0,0.0,0.0,0.0,0.0,0.0,0.0,0.0,0.0,0.0,0.0,0.0,0.0,0.0,0.0,0.0,0.0,0.0,0.0,0.0,0.0,0.0,0.0,0.0,0.0,0.0,0.0,0.0,0.0,0.0,0.0,0.0,0.0,0.0,0.0,0.0,0.0,0.0,0.0,0.0,0.0,0.0,0.0,0.0,0.0,0.0,0.0,0.0,0.0,0.0,0.0,0.0,0.0,0.0,0.0,0.0,0.0,0.0,0.0,0.0,0.0,0.0,0.0,0.0,0.0,0.0,0.0,0.0,0.0,0.0,0.0,0.0,0.0,0.0,0.0,0.0,0.0,0.0,0.0,0.0,0.0,0.0,0.0,0.0,0.0,0.0,0.0,0.0,0.0,0.0,0.0,0.0,0.0,0.0,0.0,0.0,0.0,0.0,0.0,0.0,0.0,0.0,0.0,0.0,0.0,0.0,0.0,0.0,0.0,0.0,0.0,0.0,0.0,0.0,0.0,0.0,0.0,0.0,0.0,0.0,0.0,0.0,0.0,0.0,0.0,0.0,0.0,0.0,0.0,0.0,0.0,0.0,0.0,0.0,0.0,0.0,0.0,0.0,0.0,0.0,0.0,0.0,0.0,0.0,0.0,0.0,0.0,0.0,0.0,0.0,0.0,0.0,0.0,0.0,0.0,0.0,0.0,0.0,0.0,0.0,0.0,0.0,0.0,0.0,0.0,0.0,0.0,0.0,0.0,0.0,0.0,0.0,0.0,0.0,0.0,0.0,0.0,0.0,0.0,0.0,0.0,0.0,0.0,0.0,0.0,0.0,0.0,0.0,0.0,0.0,0.0,0.0,0.0,0.0,0.0,0.0,0.0,0.0,0.0,0.0,0.0,0.0,0.0,0.0,0.0,0.0,0.0,0.0,0.0,0.0,0.0,0.0,0.0,0.0,0.0,0.0,0.0,0.0,0.0,0.0,0.0,0.0,0.0,0.0,0.0,0.0,0.0,0.0,0.0,0.0,0.0,0.0,0.0,0.0,0.0,0.0,0.0,0.0,0.0,0.0,0.0,0.0,0.0,0.0,0.0,0.0,0.0,0.0,0.0,0.0,0.0,0.0,0.0,0.0,0.0,0.0,0.0,0.0,0.0,0.0,0.0,0.0,0.0,0.0,0.0,0.0,0.0,0.0,0.0,0.0,0.0,0.0,0.0,0.0,0.0,0.0,0.0,0.0,0.0,0.0,0.0,0.0,0.0,0.0,0.0,0.0,0.0,0.0,0.0,0.0,0.0,0.0,0.0,0.0,0.0,0.0,0.0,0.0,0.0,0.0,0.0,0.0,0.0,0.0,0.0,0.0,0.0,0.0,0.0,0.0,0.0,0.0,0.0,0.0,0.0,0.0,0.0,0.0,0.0,0.0,0.0,0.0,0.0,0.0,0.0,0.0,0.0,0.0,0.0,0.0,0.0,0.0,0.0,0.0,0.0,0.0,0.0,0.0,0.0,0.0,0.0,0.0,0.0,0.0,0.0,0.0,0.0,0.0,0.0,0.0,0.0,0.0,0.0,0.0,0.0,0.0,0.0,0.0,0.0,0.0,0.0,0.0,0.0,0.0,0.0,0.0,0.0,0.0,0.0,0.0,0.0,0.0,0.0,0.0,0.0,0.0,0.0,0.0,0.0,0.0,0.0,0.0,0.0,0.0,0.0,0.0,0.0,0.0,0.0,0.0,0.0,0.0,0.0,0.0,0.0,0.0,0.0,0.0,0.0,0.0,0.0,0.0,0.0,0.0,0.0,0.0,0.0,0.0,0.0,0.0,0.0,0.0,0.0,0.0,0.0,0.0,0.0,0.0,0.0,0.0,0.0,0.0,0.0,0.0,0.0,0.0,0.0,0.0,0.0,0.0,0.0,0.0,0.0,0.0,0.0,0.0,0.0,0.0,0.0,0.0,0.0,0.0,0.0,0.0,0.0,0.0,0.0,0.0,0.0,0.0,0.0,0.0,0.0,0.0,0.0,0.0,0.0,0.0,0.0,0.0,0.0,0.0,0.0,0.0,0.0,0.0,0.0,0.0,0.0,0.0,0.0,0.0,0.0,0.0,0.0,0.0,0.0,0.0,0.0,0.0,0.0,0.0,0.0,0.0,0.0,0.0,0.0,0.0,0.0,0.0,0.0,0.0,0.0,0.0,0.0,0.0,0.0,0.0,0.0,0.0,0.0,0.0,0.0,0.0,0.0,0.0,0.0,0.0,0.0,0.0,0.0,0.0,0.0,0.0,0.0,0.0,0.0,0.0,0.0,0.0,0.0,0.0,0.0,0.0,0.0,0.0,0.0,0.0,0.0,0.0,0.0,0.0,0.0,0.0,0.0,0.0,0.0,0.0,0.0,0.0,0.0,0.0,0.0,0.0,0.0,0.0,0.0,0.0,0.0,0.0,0.0,0.0,0.0,0.0,0.0,0.0,0.0,0.0,0.0,0.0,0.0,0.0,0.0,0.0,0.0,0.0,0.0,0.0,0.0,0.0,0.0,0.0,0.0,0.0,0.0,0.0,0.0,0.0,0.0,0.0,0.0,0.0,0.0,0.0,0.0,0.0,0.0,0.0,0.0,0.0,0.0,0.0,0.0,0.0,0.0,0.0,0.0,0.0,0.0,0.0,0.0,0.0,0.0,0.0,0.0,0.0,0.0,0.0,0.0,0.0,0.0,0.0,0.0,0.0,0.0,0.0,0.0,0.0,0.0,0.0,0.0,0.0,0.0,0.0,0.0,0.0,0.0,0.0,0.0,0.0,0.0,0.0,0.0,0.0,0.0,0.0,0.0,0.0,0.0,0.0,0.0,0.0,0.0,0.0,0.0,0.0,0.0,0.0,0.0,0.0,0.0,0.0,0.0,0.0,0.0,0.0,0.0,0.0,0.0,0.0,0.0,0.0,0.0,0.0,0.0,0.0,0.0,0.0,0.0,0.0,0.0,0.0,0.0,0.0,0.0,0.0,0.0,0.0,0.0,0.0,0.0,0.0,0.0,0.0,0.0,0.0,0.0,0.0,0.0,0.0,0.0,0.0,0.0,0.0,0.0,0.0,0.0,0.0,0.0,0.0,0.0,0.0,0.0,0.0,0.0,0.0,0.0,0.0,0.0,0.0,0.0,0.0,0.0,0.0,0.0,0.0,0.0,0.0,0.0,0.0,0.0,0.0,0.0,0.0,0.0,0.0,0.0,0.0,0.0,0.0,0.0,0.0,0.0,0.0,0.0,0.0,0.0,0.0,0.0,0.0,0.0,3.7024,0.0,0.0,0.0,0.0,0.0,0.0,0.0,0.0,0.0,0.0,0.0,0.0,0.0,0.0,0.0,0.0,0.0,0.0,0.0,0.0,0.0,0.0,0.0,0.0,0.0,0.0,0.0,0.0,0.0,0.0,0.0,0.0,0.0,0.0,0.0,0.0,0.0,0.0,0.0,0.0,0.0,0.0,0.0,0.0,0.0,0.0,0.0,0.0,0.0,0.0,0.0,0.0,0.0,0.0,0.0,0.0,0.0,0.0,0.0,0.0,0.0,0.0,0.0,0.0,0.0,0.0,0.0,0.0,0.0,0.0,0.0,0.0,0.0,0.0,0.0,0.0,0.0,0.0,0.0,0.0,0.0,0.0,0.0,0.0,0.0,0.0,0.0,0.0,0.0,0.0,0.0,0.0,0.0,0.0,0.0,0.0,0.0,0.0,0.0,0.0,0.0,0.0,0.0,0.0,0.0,0.0,0.0,0.0,0.0,0.0,3.7258,3.6425,3.6884,3.692,3.6435,0.0,0.0,0.0,0.0,0.0,0.0,0.0,0.0,0.0,0.0,0.0,0.0,0.0,0.0,0.0,0.0,0.0,0.0,0.0,0.0,0.0,0.0,0.0,0.0,0.0,0.0,0.0,0.0,0.0,0.0,0.0,0.0,0.0,0.0,0.0,0.0,0.0,0.0,0.0,0.0,0.0,0.0,0.0,0.0,0.0,0.0,0.0,0.0,0.0,0.0,0.0,0.0,0.0,0.0,0.0,0.0,0.0,0.0,0.0,0.0,0.0,0.0,0.0,0.0,0.0,0.0,0.0,0.0,0.0,0.0,0.0,0.0,0.0,0.0,0.0,0.0,0.0,0.0,0.0,0.0,0.0,0.0,0.0,0.0,0.0,0.0,0.0,0.0,0.0,0.0,0.0,0.0,0.0,0.0,0.0,0.0,0.0,0.0,0.0,0.0,0.0,0.0,0.0,0.0,0.0,0.0,0.0,0.0,0.0,0.0,0.0,0.0,3.6897,3.6856,3.5838,0.0,0.0,0.0,0.0,0.0,0.0,0.0,0.0,0.0,0.0,0.0,0.0,0.0,0.0,0.0,0.0,0.0,0.0,0.0,0.0,0.0,0.0,0.0,0.0,0.0,0.0,0.0,0.0,0.0,0.0,0.0,0.0,0.0,0.0,0.0,0.0,0.0,0.0,0.0,0.0,0.0,0.0,0.0,0.0,0.0,0.0,0.0,0.0,0.0,0.0,0.0,0.0,0.0,0.0,0.0,0.0,0.0,0.0,0.0,0.0,0.0,0.0,0.0,0.0,0.0,0.0,0.0,0.0,0.0,0.0,0.0,0.0,0.0,0.0,0.0,0.0,0.0,0.0,0.0,0.0,0.0,0.0,0.0,0.0,0.0,0.0,0.0,0.0,0.0,0.0,0.0,0.0,0.0,0.0,0.0,0.0,0.0,0.0,0.0,0.0,0.0,0.0,0.0,0.0,0.0,0.0,0.0,0.0,0.0,0.0,3.8427,3.687,3.7619,0.0,3.5842,0.0,0.0,0.0,0.0,0.0,0.0,0.0,0.0,0.0,0.0,0.0,0.0,0.0,0.0,0.0,0.0,0.0,0.0,0.0,0.0,0.0,0.0,0.0,0.0,0.0,0.0,0.0,0.0,0.0,0.0,0.0,0.0,0.0,0.0,0.0,0.0,0.0,0.0,0.0,0.0,0.0,0.0,0.0,0.0,0.0,0.0,0.0,0.0,0.0,0.0,0.0,0.0,0.0,0.0,0.0,0.0,0.0,0.0,0.0,0.0,0.0,0.0,0.0,0.0,0.0,0.0,0.0,0.0,0.0,0.0,0.0,0.0,0.0,0.0,0.0,0.0,0.0,0.0,0.0,0.0,0.0,0.0,0.0,0.0,0.0,0.0,0.0,0.0,0.0,0.0,0.0,0.0,0.0,0.0,0.0,0.0,0.0,0.0,0.0,0.0,0.0,0.0,0.0,0.0,0.0,0.0,0.0,0.0,0.0,0.0,3.7684,3.6048,3.6392,3.6274,0.0,0.0,0.0,0.0,0.0,0.0,0.0,0.0,0.0,0.0,0.0,0.0,0.0,0.0,0.0,0.0,0.0,0.0,0.0,0.0,0.0,0.0,0.0,0.0,0.0,0.0,0.0,0.0,0.0,0.0,0.0,0.0,0.0,0.0,0.0,0.0,0.0,0.0,0.0,0.0,0.0,0.0,0.0,0.0,0.0,0.0,0.0,0.0,0.0,0.0,0.0,0.0,0.0,0.0,0.0,0.0,0.0,0.0,0.0,0.0,0.0,0.0,0.0,0.0,0.0,0.0,0.0,0.0,0.0,0.0,0.0,0.0,0.0,0.0,0.0,0.0,0.0,0.0,0.0,0.0,0.0,0.0,0.0,0.0,0.0,0.0,0.0,0.0,0.0,0.0,0.0,0.0,0.0,0.0,0.0,0.0,0.0,0.0,0.0,0.0,0.0,0.0,0.0,0.0,0.0,0.0,0.0,0.0,0.0,0.0,3.685,3.7179,3.6082,3.584,3.5656,3.5468,0.0,0.0,0.0,0.0,0.0,0.0,0.0,0.0,0.0,0.0,0.0,0.0,0.0,0.0,0.0,0.0,0.0,0.0,0.0,0.0,0.0,0.0,0.0,0.0,0.0,0.0,0.0,0.0,0.0,0.0,0.0,0.0,0.0,0.0,0.0,0.0,0.0,0.0,0.0,0.0,0.0,0.0,0.0,0.0,0.0,0.0,0.0,0.0,0.0,0.0,0.0,0.0,0.0,0.0,0.0,0.0,0.0,0.0,0.0,0.0,0.0,0.0,0.0,0.0,0.0,0.0,0.0,0.0,0.0,0.0,0.0,0.0,0.0,0.0,0.0,0.0,0.0,0.0,0.0,0.0,0.0,0.0,0.0,0.0,0.0,0.0,0.0,0.0,0.0,0.0,0.0,0.0,0.0,0.0,0.0,0.0,0.0,0.0,0.0,0.0,0.0,0.0,0.0,0.0,0.0,0.0,0.0,0.0,3.5049,3.6654,3.749,3.7441,3.6753,3.6033,0.0,0.0,0.0,0.0,0.0,0.0,0.0,0.0,0.0,0.0,0.0,0.0,0.0,0.0,0.0,0.0,0.0,0.0,0.0,0.0,0.0,0.0,0.0,0.0,0.0,0.0,0.0,0.0,0.0,0.0,0.0,0.0,0.0,0.0,0.0,0.0,0.0,0.0,0.0,0.0,0.0,0.0,0.0,0.0,0.0,0.0,0.0,0.0,0.0,0.0,0.0,0.0,0.0,0.0,0.0,0.0,0.0,0.0,0.0,0.0,0.0,0.0,0.0,0.0,0.0,0.0,0.0,0.0,0.0,0.0,0.0,0.0,0.0,0.0,0.0,0.0,0.0,0.0,0.0,0.0,0.0,0.0,0.0,0.0,0.0,0.0,0.0,0.0,0.0,0.0,0.0,0.0,0.0,0.0,0.0,0.0,0.0,0.0,0.0,0.0,0.0,0.0,0.0,0.0,0.0,0.0,0.0,0.0,0.0,3.4773,3.5916,3.6814,3.7354,3.6668,3.5884,0.0,0.0,0.0,0.0,0.0,0.0,0.0,0.0,0.0,0.0,0.0,0.0,0.0,0.0,0.0,0.0,0.0,0.0,0.0,0.0,0.0,0.0,0.0,0.0,0.0,0.0,0.0,0.0,0.0,0.0,0.0,0.0,0.0,0.0,0.0,0.0,0.0,0.0,0.0,0.0,0.0,0.0,0.0,0.0,0.0,0.0,0.0,0.0,0.0,0.0,0.0,0.0,0.0,0.0,0.0,0.0,0.0,0.0,0.0,0.0,0.0,0.0,0.0,0.0,0.0,0.0,0.0,0.0,0.0,0.0,0.0,0.0,0.0,0.0,0.0,0.0,0.0,0.0,0.0,0.0,0.0,0.0,0.0,0.0,0.0,0.0,0.0,0.0,0.0,0.0,0.0,0.0,0.0,0.0,0.0,0.0,0.0,0.0,0.0,0.0,0.0,0.0,0.0,0.0,0.0,0.0,0.0,0.0,0.0,3.5334,0.0,3.6577,3.7159,3.6742,3.5972,0.0,0.0,0.0,0.0,0.0,0.0,0.0,0.0,0.0,0.0,0.0,0.0,0.0,0.0,0.0,0.0,0.0,0.0,0.0,0.0,0.0,0.0,0.0,0.0,0.0,0.0,0.0,0.0,0.0,0.0,0.0,0.0,0.0,0.0,0.0,0.0,0.0,0.0,0.0,0.0,0.0,0.0,0.0,0.0,0.0,0.0,0.0,0.0,0.0,0.0,0.0,0.0,0.0,0.0,0.0,0.0,0.0,0.0,0.0,0.0,0.0,0.0,0.0,0.0,0.0,0.0,0.0,0.0,0.0,0.0,0.0,0.0,0.0,0.0,0.0,0.0,0.0,0.0,0.0,0.0,0.0,0.0,0.0,0.0,0.0,0.0,0.0,0.0,0.0,0.0,0.0,0.0,0.0,0.0,0.0,0.0,0.0,0.0,0.0,0.0,0.0,0.0,0.0,0.0,0.0,0.0,0.0,0.0,3.5226,3.6777,3.6889,3.6981,3.703,3.7058,3.6346,0.0,0.0,0.0,0.0,0.0,0.0,0.0,0.0,0.0,0.0,0.0,0.0,0.0,0.0,0.0,0.0,0.0,0.0,0.0,0.0,0.0,0.0,0.0,0.0,0.0,0.0,0.0,0.0,0.0,0.0,0.0,0.0,0.0,0.0,0.0,0.0,0.0,0.0,0.0,0.0,0.0,0.0,0.0,0.0,0.0,0.0,0.0,0.0,0.0,0.0,0.0,0.0,0.0,0.0,0.0,0.0,0.0,0.0,0.0,0.0,0.0,0.0,0.0,0.0,0.0,0.0,0.0,0.0,0.0,0.0,0.0,0.0,0.0,0.0,0.0,0.0,0.0,0.0,0.0,0.0,0.0,0.0,0.0,0.0,0.0,0.0,0.0,0.0,0.0,0.0,0.0,0.0,0.0,0.0,0.0,0.0,0.0,0.0,0.0,0.0,0.0,0.0,0.0,0.0,0.0,0.0,0.0,0.0,0.0,3.6802,3.7373,3.7685,3.7723,3.7243,3.6462,0.0,0.0,0.0,0.0,0.0,0.0,0.0,0.0,0.0,0.0,0.0,0.0,0.0,0.0,0.0,0.0,0.0,0.0,0.0,0.0,0.0,0.0,0.0,0.0,0.0,0.0,0.0,0.0,0.0,0.0,0.0,0.0,0.0,0.0,0.0,0.0,0.0,0.0,0.0,0.0,0.0,0.0,0.0,0.0,0.0,0.0,0.0,0.0,0.0,0.0,0.0,0.0,0.0,0.0,0.0,0.0,0.0,0.0,0.0,0.0,0.0,0.0,0.0,0.0,0.0,0.0,0.0,0.0,0.0,0.0,0.0,0.0,0.0,0.0,0.0,0.0,0.0,0.0,0.0,0.0,0.0,0.0,0.0,0.0,0.0,0.0,0.0,0.0,0.0,0.0,0.0,0.0,0.0,0.0,0.0,0.0,0.0,0.0,0.0,0.0,0.0,0.0,0.0,0.0,0.0,0.0,0.0,0.0,0.0,3.7625,3.7867,3.7999,3.8031,3.7268,3.6497,3.5698,0.0,0.0,0.0,0.0,0.0,0.0,0.0,0.0,0.0,0.0,0.0,0.0,0.0,0.0,0.0,0.0,0.0,0.0,0.0,0.0,0.0,0.0,0.0,0.0,0.0,0.0,0.0,0.0,0.0,0.0,0.0,0.0,0.0,0.0,0.0,0.0,0.0,0.0,0.0,0.0,0.0,0.0,0.0,0.0,0.0,0.0,0.0,0.0,0.0,0.0,0.0,0.0,0.0,0.0,0.0,0.0,0.0,0.0,0.0,0.0,0.0,0.0,0.0,0.0,0.0,0.0,0.0,0.0,0.0,0.0,0.0,0.0,0.0,0.0,0.0,0.0,0.0,0.0,0.0,0.0,0.0,0.0,0.0,0.0,0.0,0.0,0.0,0.0,0.0,0.0,0.0,0.0,0.0,0.0,0.0,0.0,0.0,0.0,0.0,0.0,0.0,0.0,0.0,0.0,0.0,0.0,0.0,0.0,3.9145,3.8439,3.8067,3.8049,3.7346,3.6528,0.0,0.0,0.0,0.0,0.0,0.0,0.0,0.0,0.0,0.0,0.0,0.0,0.0,0.0,0.0,0.0,0.0,0.0,0.0,0.0,0.0,0.0,0.0,0.0,0.0,0.0,0.0,0.0,0.0,0.0,0.0,0.0,0.0,0.0,0.0,0.0,0.0,0.0,0.0,0.0,0.0,0.0,0.0,0.0,0.0,0.0,0.0,0.0,0.0,0.0,0.0,0.0,0.0,0.0,0.0,0.0,0.0,0.0,0.0,0.0,0.0,0.0,0.0,0.0,0.0,0.0,0.0,0.0,0.0,0.0,0.0,0.0,0.0,0.0,0.0,0.0,0.0,0.0,0.0,0.0,0.0,0.0,0.0,0.0,0.0,0.0,0.0,0.0,0.0,0.0,0.0,0.0,0.0,0.0,0.0,0.0,0.0,0.0,0.0,0.0,0.0,0.0,0.0,0.0,0.0,0.0,0.0,0.0,0.0,3.9944,3.9851,3.9751,3.974,3.8936,3.7873,0.0,0.0,0.0,0.0,0.0,0.0,0.0,0.0,0.0,0.0,0.0,0.0,0.0,0.0,0.0,0.0,0.0,0.0,0.0,0.0,0.0,0.0,0.0,0.0,0.0,0.0,0.0,0.0,0.0,0.0,0.0,0.0,0.0,0.0,0.0,0.0,0.0,0.0,0.0,0.0,0.0,0.0,0.0,0.0,0.0,0.0,0.0,0.0,0.0,0.0,0.0,0.0,0.0,0.0,0.0,0.0,0.0,0.0,0.0,0.0,0.0,0.0,0.0,0.0,0.0,0.0,0.0,0.0,0.0,0.0,0.0,0.0,0.0,0.0,0.0,0.0,0.0,0.0,0.0,0.0,0.0,0.0,0.0,0.0,0.0,0.0,0.0,0.0,0.0,0.0,0.0,0.0,0.0,0.0,0.0,0.0,0.0,0.0,0.0,0.0,0.0,0.0,0.0,0.0,0.0,0.0,0.0,0.0,3.8686,4.0733,4.1115,4.1282,4.1263,3.9828,3.8312,0.0,0.0,0.0,0.0,0.0,0.0,0.0,0.0,0.0,0.0,0.0,0.0,0.0,0.0,0.0,0.0,0.0,0.0,0.0,0.0,0.0,0.0,0.0,0.0,0.0,0.0,0.0,0.0,0.0,0.0,0.0,0.0,0.0,0.0,0.0,0.0,0.0,0.0,0.0,0.0,0.0,0.0,0.0,0.0,0.0,0.0,0.0,0.0,0.0,0.0,0.0,0.0,0.0,0.0,0.0,0.0,0.0,0.0,0.0,0.0,0.0,0.0,0.0,0.0,0.0,0.0,0.0,0.0,0.0,0.0,0.0,0.0,0.0,0.0,0.0,0.0,0.0,0.0,0.0,0.0,0.0,0.0,0.0,0.0,0.0,0.0,0.0,0.0,0.0,0.0,0.0,0.0,0.0,0.0,0.0,0.0,0.0,0.0,0.0,0.0,0.0,0.0,0.0,0.0,0.0,0.0,0.0,0.0,3.9752,4.1282,4.2079,4.2487,4.2424,4.0359,3.8486,0.0,0.0,0.0,0.0,0.0,0.0,0.0,0.0,0.0,0.0,0.0,0.0,0.0,0.0,0.0,0.0,0.0,0.0,0.0,0.0,0.0,0.0,0.0,0.0,0.0,0.0,0.0,0.0,0.0,0.0,0.0,0.0,0.0,0.0,0.0,0.0,0.0,0.0,0.0,0.0,0.0,0.0,0.0,0.0,0.0,0.0,0.0,0.0,0.0,0.0,0.0,0.0,0.0,0.0,0.0,0.0,0.0,0.0,0.0,0.0,0.0,0.0,0.0,0.0,0.0,0.0,0.0,0.0,0.0,0.0,0.0,0.0,0.0,0.0,0.0,0.0,0.0,0.0,0.0,0.0,0.0,0.0,0.0,0.0,0.0,0.0,0.0,0.0,0.0,0.0,0.0,0.0,0.0,0.0,0.0,0.0,0.0,0.0,0.0,0.0,0.0,0.0,0.0,0.0,0.0,0.0,0.0,0.0,3.9701,4.1256,4.2097,4.2474,4.2427,4.1354,4.0041,0.0,0.0,0.0,0.0,0.0,0.0,0.0,0.0,0.0,0.0,0.0,0.0,0.0,0.0,0.0,0.0,0.0,0.0,0.0,0.0,0.0,0.0,0.0,0.0,0.0,0.0,0.0,0.0,0.0,0.0,0.0,0.0,0.0,0.0,0.0,0.0,0.0,0.0,0.0,0.0,0.0,0.0,0.0,0.0,0.0,0.0,0.0,0.0,4.0545,0.0,0.0,0.0,0.0,0.0,0.0,0.0,0.0,0.0,0.0,0.0,0.0,0.0,0.0,0.0,0.0,0.0,0.0,0.0,0.0,0.0,0.0,0.0,0.0,0.0,0.0,0.0,0.0,0.0,0.0,0.0,0.0,0.0,0.0,0.0,0.0,0.0,0.0,0.0,0.0,0.0,0.0,0.0,0.0,0.0,0.0,0.0,0.0,0.0,0.0,0.0,0.0,0.0,0.0,0.0,0.0,0.0,0.0,0.0,4.0323,4.1119,4.2219,4.2811,4.275,4.1631,4.0296,0.0,0.0,0.0,0.0,0.0,0.0,0.0,0.0,0.0,0.0,0.0,0.0,0.0,0.0,0.0,0.0,0.0,0.0,0.0,0.0,0.0,0.0,0.0,0.0,0.0,0.0,0.0,0.0,0.0,0.0,0.0,0.0,0.0,0.0,0.0,0.0,0.0,0.0,0.0,0.0,0.0,0.0,0.0,0.0,0.0,0.0,0.0,0.0,0.0,0.0,0.0,0.0,0.0,0.0,0.0,0.0,0.0,0.0,0.0,0.0,0.0,0.0,0.0,0.0,0.0,0.0,0.0,0.0,0.0,0.0,0.0,0.0,0.0,0.0,0.0,0.0,0.0,0.0,0.0,0.0,0.0,0.0,0.0,0.0,0.0,0.0,0.0,0.0,0.0,0.0,0.0,0.0,0.0,0.0,0.0,0.0,0.0,0.0,0.0,0.0,0.0,0.0,0.0,0.0,0.0,0.0,0.0,3.9974,4.1009,4.0979,4.2402,4.3178,4.3133,4.1541,4.0059,3.88,0.0,0.0,0.0,0.0,0.0,0.0,0.0,0.0,0.0,0.0,0.0,0.0,0.0,0.0,0.0,0.0,0.0,0.0,0.0,0.0,0.0,0.0,0.0,0.0,0.0,0.0,0.0,0.0,0.0,0.0,0.0,0.0,0.0,0.0,0.0,0.0,0.0,0.0,4.0917,4.2918,0.0,0.0,0.0,0.0,0.0,0.0,0.0,0.0,4.3254,0.0,0.0,0.0,0.0,0.0,0.0,0.0,0.0,0.0,0.0,0.0,0.0,0.0,0.0,0.0,0.0,0.0,0.0,0.0,0.0,0.0,0.0,0.0,0.0,0.0,0.0,0.0,0.0,0.0,0.0,0.0,0.0,0.0,0.0,0.0,0.0,0.0,0.0,0.0,0.0,0.0,0.0,0.0,0.0,0.0,0.0,0.0,0.0,0.0,0.0,0.0,0.0,0.0,0.0,0.0,0.0,3.87,4.0183,4.0914,4.0924,4.2358,4.305,4.2902,4.1324,4.0284,3.9842,0.0,0.0,0.0,0.0,0.0,0.0,0.0,0.0,0.0,0.0,0.0,0.0,0.0,0.0,0.0,0.0,0.0,0.0,0.0,0.0,0.0,0.0,0.0,0.0,0.0,0.0,0.0,0.0,0.0,0.0,0.0,0.0,0.0,0.0,0.0,0.0,0.0,0.0,0.0,4.444,4.5091,0.0,0.0,0.0,0.0,0.0,0.0,0.0,0.0,4.4584,0.0,0.0,0.0,0.0,0.0,0.0,0.0,0.0,0.0,0.0,0.0,0.0,0.0,0.0,0.0,0.0,0.0,0.0,0.0,0.0,0.0,0.0,0.0,0.0,0.0,0.0,0.0,0.0,0.0,0.0,0.0,0.0,0.0,0.0,0.0,0.0,0.0,0.0,0.0,0.0,0.0,0.0,0.0,0.0,0.0,0.0,0.0,0.0,0.0,0.0,0.0,0.0,0.0,0.0,0.0,3.8826,4.0158,4.0798,4.074,4.2168,4.2889,4.2711,4.1102,4.0217,0.0,0.0,0.0,0.0,0.0,0.0,0.0,0.0,0.0,0.0,0.0,0.0,0.0,0.0,0.0,0.0,0.0,0.0,0.0,0.0,0.0,0.0,0.0,0.0,0.0,0.0,0.0,0.0,0.0,0.0,0.0,0.0,0.0,0.0,0.0,0.0,0.0,0.0,0.0,0.0,4.5417,4.6069,4.6494,0.0,0.0,0.0,0.0,0.0,0.0,4.5291,4.5057,0.0,0.0,0.0,0.0,0.0,0.0,0.0,0.0,0.0,0.0,0.0,0.0,0.0,0.0,0.0,0.0,0.0,0.0,0.0,0.0,0.0,0.0,0.0,0.0,0.0,0.0,0.0,0.0,0.0,0.0,0.0,0.0,0.0,0.0,0.0,0.0,0.0,0.0,0.0,0.0,0.0,0.0,0.0,0.0,0.0,0.0,0.0,0.0,0.0,0.0,0.0,0.0,0.0,0.0,0.0,3.9043,4.0227,4.0812,4.0853,4.2082,4.2715,4.2573,4.093,4.0066,0.0,0.0,0.0,0.0,0.0,0.0,0.0,0.0,0.0,0.0,0.0,0.0,0.0,0.0,0.0,0.0,0.0,0.0,0.0,0.0,0.0,0.0,0.0,0.0,0.0,0.0,0.0,0.0,0.0,0.0,0.0,0.0,0.0,0.0,0.0,0.0,0.0,0.0,0.0,0.0,0.0,4.7283,4.8101,4.8238,0.0,0.0,0.0,0.0,4.644,4.6194,0.0,0.0,0.0,0.0,0.0,0.0,0.0,0.0,0.0,0.0,0.0,0.0,0.0,0.0,0.0,0.0,0.0,0.0,0.0,0.0,0.0,0.0,0.0,0.0,0.0,0.0,0.0,0.0,0.0,0.0,0.0,0.0,0.0,0.0,0.0,0.0,0.0,0.0,0.0,0.0,0.0,0.0,0.0,0.0,0.0,0.0,0.0,0.0,0.0,0.0,0.0,0.0,0.0,0.0,0.0,0.0,3.9911,4.0584,4.1187,4.1803,4.2344,4.2601,4.2581,4.0853,3.9906,0.0,0.0,0.0,0.0,0.0,0.0,0.0,0.0,0.0,0.0,0.0,0.0,0.0,0.0,0.0,0.0,0.0,0.0,0.0,0.0,0.0,0.0,0.0,0.0,0.0,0.0,0.0,0.0,0.0,0.0,0.0,0.0,0.0,0.0,0.0,0.0,0.0,0.0,0.0,0.0,0.0,4.8963,4.9887,5.0017,4.9977,0.0,0.0,4.9922,4.9831,4.9219,0.0,0.0,0.0,0.0,0.0,0.0,0.0,0.0,0.0,0.0,0.0,0.0,0.0,0.0,0.0,0.0,0.0,0.0,0.0,0.0,0.0,0.0,0.0,0.0,0.0,0.0,0.0,0.0,0.0,0.0,0.0,0.0,0.0,0.0,0.0,0.0,0.0,0.0,0.0,0.0,0.0,0.0,0.0,0.0,0.0,0.0,0.0,0.0,0.0,0.0,0.0,0.0,0.0,0.0,0.0,3.86,4.0055,4.0703,4.1268,4.1833,4.2398,4.2657,4.2538,4.0822,3.9886,0.0,0.0,0.0,0.0,0.0,0.0,0.0,0.0,0.0,0.0,0.0,0.0,0.0,0.0,0.0,0.0,0.0,0.0,0.0,0.0,0.0,0.0,0.0,0.0,0.0,0.0,0.0,0.0,0.0,0.0,0.0,0.0,0.0,0.0,0.0,0.0,0.0,0.0,0.0,0.0,0.0,0.0,5.086,5.1428,0.0,0.0,0.0,5.1556,5.0652,0.0,0.0,0.0,0.0,0.0,0.0,0.0,0.0,0.0,0.0,0.0,0.0,0.0,0.0,0.0,0.0,0.0,0.0,0.0,0.0,0.0,0.0,0.0,0.0,0.0,0.0,0.0,0.0,0.0,0.0,0.0,0.0,0.0,0.0,0.0,0.0,0.0,0.0,0.0,0.0,0.0,0.0,0.0,0.0,0.0,0.0,0.0,0.0,0.0,0.0,0.0,0.0,0.0,0.0,0.0,0.0,0.0,4.0448,4.0917,4.1489,4.2123,4.2592,4.2735,4.2566,4.1058,0.0,0.0,0.0,0.0,0.0,0.0,0.0,0.0,0.0,0.0,0.0,0.0,0.0,0.0,0.0,0.0,0.0,0.0,0.0,0.0,0.0,0.0,0.0,0.0,0.0,0.0,0.0,3.9508,0.0,0.0,0.0,0.0,0.0,0.0,0.0,0.0,0.0,0.0,0.0,0.0,0.0,0.0,5.0099,5.1548,5.2582,5.2959,0.0,0.0,5.2957,5.1567,5.0708,4.9995,0.0,0.0,0.0,0.0,0.0,0.0,0.0,0.0,0.0,0.0,0.0,0.0,0.0,0.0,0.0,0.0,0.0,0.0,0.0,0.0,0.0,0.0,0.0,0.0,0.0,0.0,0.0,0.0,0.0,0.0,0.0,0.0,0.0,0.0,0.0,0.0,0.0,0.0,0.0,0.0,0.0,0.0,0.0,0.0,0.0,0.0,0.0,0.0,0.0,0.0,0.0,0.0,0.0,0.0,0.0,4.1442,4.1357,4.1985,4.3298,4.306,4.2853,4.2756,4.1752,4.0807,0.0,0.0,0.0,0.0,0.0,0.0,0.0,0.0,0.0,0.0,0.0,0.0,0.0,0.0,0.0,0.0,0.0,0.0,0.0,0.0,0.0,0.0,0.0,0.0,0.0,0.0,0.0,0.0,0.0,0.0,0.0,0.0,0.0,0.0,0.0,0.0,0.0,0.0,0.0,0.0,0.0,5.0949,5.1932,5.3387,5.4139,0.0,0.0,5.4322,5.3498,5.2703,5.1963,5.1241,0.0,0.0,0.0,0.0,0.0,0.0,0.0,0.0,0.0,0.0,0.0,0.0,0.0,0.0,0.0,0.0,0.0,0.0,0.0,0.0,0.0,0.0,0.0,0.0,0.0,0.0,0.0,0.0,0.0,0.0,0.0,0.0,0.0,0.0,0.0,0.0,0.0,0.0,0.0,0.0,0.0,0.0,0.0,0.0,0.0,0.0,0.0,0.0,0.0,0.0,0.0,0.0,0.0,4.0701,4.1702,4.2058,4.2902,4.4227,4.4035,4.3805,4.3604,4.2692,4.1802,0.0,0.0,0.0,0.0,0.0,0.0,0.0,0.0,0.0,0.0,0.0,0.0,0.0,0.0,0.0,0.0,0.0,0.0,0.0,0.0,0.0,0.0,0.0,0.0,0.0,0.0,0.0,0.0,4.0432,4.056,4.0998,0.0,0.0,0.0,0.0,0.0,0.0,0.0,0.0,0.0,0.0,5.1563,5.2934,5.4091,0.0,0.0,5.4442,5.4732,5.3897,5.3209,5.2674,5.2402,5.1507,0.0,0.0,0.0,0.0,0.0,0.0,0.0,0.0,0.0,0.0,0.0,0.0,0.0,0.0,0.0,0.0,0.0,0.0,0.0,0.0,0.0,0.0,0.0,0.0,0.0,0.0,0.0,0.0,0.0,0.0,0.0,0.0,0.0,0.0,0.0,0.0,0.0,0.0,0.0,0.0,0.0,0.0,0.0,0.0,0.0,0.0,0.0,0.0,0.0,0.0,0.0,0.0,4.1107,4.1829,4.2716,4.3749,4.4895,4.4954,4.4748,4.4249,4.3637,4.2726,0.0,0.0,0.0,0.0,0.0,0.0,0.0,0.0,0.0,0.0,0.0,0.0,0.0,0.0,0.0,0.0,0.0,0.0,0.0,0.0,0.0,0.0,0.0,0.0,0.0,0.0,0.0,0.0,4.1431,4.1586,4.2084,0.0,0.0,0.0,0.0,0.0,0.0,0.0,0.0,0.0,0.0,5.1988,5.3395,5.4503,5.4895,5.4103,5.4736,5.5016,5.4211,5.3727,5.3372,5.3172,0.0,0.0,0.0,0.0,0.0,0.0,0.0,0.0,0.0,0.0,0.0,0.0,0.0,0.0,0.0,0.0,0.0,0.0,0.0,0.0,0.0,0.0,0.0,0.0,0.0,0.0,0.0,0.0,0.0,0.0,4.1014,0.0,0.0,0.0,0.0,0.0,0.0,0.0,0.0,0.0,0.0,0.0,0.0,0.0,0.0,0.0,0.0,0.0,0.0,0.0,0.0,0.0,0.0,4.1248,4.1936,4.3338,4.442,4.5196,4.576,4.5579,4.4656,4.4464,4.3515,4.1751,0.0,0.0,0.0,0.0,0.0,0.0,0.0,0.0,0.0,0.0,0.0,0.0,0.0,0.0,0.0,0.0,0.0,0.0,0.0,0.0,0.0,0.0,0.0,0.0,0.0,0.0,4.2479,4.2357,4.2307,0.0,0.0,0.0,0.0,0.0,0.0,0.0,0.0,0.0,0.0,5.0804,5.2196,5.303,5.4542,5.5265,5.4504,5.5067,5.5319,5.4604,5.4459,5.4237,0.0,0.0,0.0,0.0,0.0,0.0,0.0,0.0,0.0,0.0,0.0,0.0,0.0,0.0,0.0,0.0,0.0,0.0,0.0,0.0,0.0,0.0,0.0,0.0,0.0,0.0,0.0,4.4549,4.3963,0.0,0.0,0.0,0.0,0.0,0.0,0.0,0.0,0.0,0.0,0.0,4.8302,4.8321,0.0,0.0,0.0,0.0,0.0,0.0,0.0,0.0,0.0,0.0,0.0,0.0,4.214,4.2902,4.3863,4.4957,4.6161,4.631,4.6136,4.5677,4.5579,4.4471,4.2247,0.0,0.0,0.0,0.0,0.0,0.0,0.0,0.0,0.0,0.0,0.0,0.0,0.0,0.0,0.0,0.0,0.0,0.0,0.0,0.0,0.0,0.0,0.0,0.0,0.0,4.2792,0.0,0.0,0.0,0.0,0.0,0.0,0.0,0.0,0.0,0.0,0.0,4.9032,5.0153,5.1795,5.3198,5.4054,5.463,5.4893,0.0,0.0,0.0,0.0,0.0,0.0,0.0,0.0,0.0,0.0,0.0,0.0,0.0,0.0,5.4223,5.1136,5.0593,5.0475,5.0159,0.0,0.0,0.0,0.0,0.0,0.0,0.0,0.0,0.0,0.0,0.0,0.0,0.0,0.0,0.0,0.0,4.5217,0.0,0.0,0.0,0.0,0.0,0.0,0.0,0.0,4.8093,4.896,5.0101,5.0126,5.012,0.0,4.9537,4.8378,0.0,0.0,0.0,0.0,0.0,0.0,0.0,0.0,4.2945,4.3447,4.4452,4.5432,4.6342,4.6525,4.6392,4.5966,4.5605,4.4646,4.3095,4.2731,4.235,0.0,0.0,0.0,0.0,0.0,0.0,0.0,0.0,0.0,0.0,0.0,0.0,0.0,0.0,0.0,0.0,0.0,0.0,0.0,0.0,0.0,0.0,0.0,4.4304,0.0,0.0,0.0,0.0,0.0,0.0,0.0,0.0,0.0,4.8175,4.9308,5.0607,5.1703,5.2839,5.3868,5.472,0.0,0.0,0.0,0.0,0.0,0.0,0.0,5.5058,5.5381,5.524,5.5196,5.5493,5.6014,5.6559,5.7058,0.0,0.0,5.3448,5.3017,5.2832,5.2193,5.2072,5.2091,5.2072,5.2072,5.2072,0.0,0.0,0.0,0.0,0.0,0.0,0.0,0.0,4.7618,4.7605,0.0,4.7485,0.0,0.0,0.0,0.0,0.0,4.7169,0.0,0.0,5.0101,5.1072,5.2557,5.2614,5.2614,5.2538,5.0964,5.0165,4.993,4.6682,0.0,0.0,0.0,0.0,0.0,0.0,4.3592,4.3599,4.499,4.5789,4.5839,4.6435,4.6349,4.5525,4.4636,4.417,4.4162,4.3412,4.2976,4.3036,4.2161,0.0,0.0,0.0,0.0,0.0,0.0,0.0,0.0,0.0,0.0,0.0,0.0,0.0,0.0,0.0,0.0,0.0,0.0,0.0,0.0,4.5521,0.0,0.0,0.0,0.0,0.0,0.0,0.0,0.0,0.0,0.0,5.0071,5.0839,5.1981,5.3563,0.0,0.0,0.0,0.0,5.5094,5.5101,5.5101,5.512,5.5101,5.5146,5.5431,5.625,0.0,0.0,5.6257,5.6409,5.6475,5.6537,5.6005,5.5219,5.5016,5.4858,5.435,5.2883,5.2599,5.2523,5.2504,5.2656,5.2618,5.5745,0.0,0.0,0.0,0.0,5.1082,5.1028,5.1048,5.1083,5.0805,5.0209,4.9549,0.0,0.0,0.0,0.0,0.0,0.0,4.9936,5.1027,5.1592,5.2507,5.3581,5.3607,5.3626,5.3627,5.2545,5.1724,5.1082,4.8899,4.6874,4.4986,0.0,0.0,0.0,0.0,4.3925,4.443,4.4852,4.5366,4.5923,4.6045,4.5953,4.5629,4.4916,4.4546,4.4554,4.4301,4.4195,4.419,4.3316,0.0,0.0,0.0,0.0,0.0,0.0,0.0,0.0,0.0,0.0,0.0,0.0,0.0,0.0,0.0,0.0,0.0,0.0,0.0,4.6645,4.7141,4.7518,0.0,0.0,0.0,0.0,0.0,0.0,0.0,0.0,0.0,5.2831,5.3026,5.3323,0.0,0.0,5.4853,5.5082,5.5082,5.5121,5.5169,0.0,0.0,0.0,5.581,5.632,5.6588,5.6442,5.6397,5.6652,5.669,5.6888,5.7507,5.7436,5.7084,5.6428,5.5689,5.5062,5.4579,5.4465,5.4465,5.4465,5.4465,5.4446,5.9147,5.6084,5.5071,5.4384,5.3953,5.3667,5.3536,5.3498,5.3241,5.2842,5.2341,5.1439,5.0773,5.0285,4.9784,0.0,0.0,0.0,5.1674,5.2507,5.3029,5.3754,5.4549,5.4587,5.4625,5.4605,5.3438,5.264,5.2123,5.0425,4.8579,4.6675,0.0,0.0,4.5251,4.5232,4.5297,4.5431,4.5425,4.5508,4.5653,4.5533,4.5454,4.5368,4.5016,4.4833,4.4815,4.4827,4.4815,4.4808,4.4259,4.3806,0.0,0.0,0.0,0.0,0.0,0.0,0.0,0.0,0.0,0.0,0.0,4.4304,4.4642,0.0,0.0,0.0,4.6708,4.7379,4.822,4.8596,0.0,0.0,0.0,0.0,0.0,0.0,0.0,5.1699,5.3099,5.4174,5.4505,5.453,5.4504,5.4504,5.4924,5.5236,5.5262,0.0,5.5281,5.5326,5.5307,5.532,5.5377,5.5841,5.6242,5.6272,5.692,5.7205,5.6931,5.6892,5.7071,5.749,5.7384,5.7052,5.6569,5.5947,5.551,5.5474,5.5462,5.5462,5.5456,5.5443,5.5443,6.1896,6.0227,5.7839,5.6709,5.6428,5.5668,5.5339,5.5263,5.4475,5.4132,5.4068,5.3135,5.2691,5.264,5.2692,0.0,5.293,5.2983,5.3472,5.4308,5.4367,5.4818,5.5516,5.5497,5.5483,5.5387,5.3776,5.2996,5.2828,5.1294,5.0078,4.9206,4.8306,4.7763,4.7631,4.7593,4.7264,4.6528,4.6503,4.6117,4.5318,4.5241,4.5182,4.5116,4.5125,4.5123,4.5123,4.5117,4.5123,4.5098,4.512,4.4768,4.4065,0.0,0.0,0.0,0.0,0.0,0.0,0.0,0.0,0.0,0.0,0.0,0.0,0.0,0.0,0.0,4.8023,0.0,4.9219,5.0015,0.0,0.0,0.0,5.2792,5.2792,5.2849,5.3218,5.4014,0.0,0.0,5.5306,0.0,5.542,5.5426,5.542,5.5413,5.5473,5.5498,5.551,5.5516,5.5497,5.5547,5.5558,5.5679,5.5836,5.5931,5.708,5.7709,5.7052,5.686,5.692,5.6923,5.6327,5.589,5.5929,5.5933,5.5876,5.5766,5.573,5.5719,5.5708,5.5708,5.5708,6.3253,6.2235,6.1085,5.9353,5.7421,5.7339,5.7308,5.7238,5.6473,5.6109,5.5994,5.4491,5.3434,5.2828,5.2899,5.3326,5.4015,5.4046,5.449,5.5322,5.5371,5.5473,5.5646,5.5665,5.5335,5.4694,5.3646,5.2858,5.2271,5.1203,5.0543,5.0317,5.0023,4.9156,4.7796,4.7752,4.7657,4.746,4.7415,4.726,4.7023,4.6987,4.6975,4.6957,4.6439,4.6144,4.6144,4.6144,4.6144,4.6163,4.6663,4.6862,4.6678,4.6689,0.0,0.0,0.0,0.0,0.0,0.0,0.0,0.0,0.0,4.7578,4.7794,0.0,4.8086,0.0,4.9958,5.0793,5.099,5.1735,0.0,0.0,5.2671,5.2792,5.2811,5.3427,5.3954,5.4146,5.4737,5.5232,5.5436,5.5541,5.5568,5.5613,5.5539,5.5486,5.5523,5.5545,5.559,5.5635,5.5684,5.5745,5.581,5.6321,5.6688,5.6821,5.7163,5.7164,5.6376,5.6226,5.6231,5.6225,5.6145,5.6036,5.6044,5.6093,5.6113,5.6065,5.5956,5.586,5.5865,5.586,5.5865,6.3315,6.2535,6.2145,6.0891,5.9128,5.9185,5.8993,5.8601,5.7781,5.7217,5.6814,5.548,5.4616,5.4189,5.4241,5.4533,5.5066,5.5079,5.533,5.5778,5.5817,5.5832,5.5827,5.5442,5.5032,5.4554,5.3338,5.256,5.2119,5.1228,5.0771,5.0791,5.075,5.0209,4.9216,4.9089,4.8855,4.8464,4.8061,4.7808,4.7775,4.7775,4.7775,4.7775,4.7382,4.7182,4.7168,4.7141,4.7125,4.7125,4.7489,4.769,4.769,4.7718,4.7741,0.0,0.0,0.0,0.0,0.0,0.0,0.0,0.0,0.0,0.0,0.0,4.9265,0.0,5.1391,5.2136,5.2136,5.2881,5.339,5.3427,5.3746,5.3968,5.3999,5.4456,5.4792,5.4821,5.5259,5.5568,5.5638,5.5676,5.5719,5.5771,5.5745,5.567,5.5687,5.5708,5.5759,5.5771,5.5822,5.5876,5.5923,5.6351,5.6664,5.671,5.6732,5.6583,5.6163,5.6086,5.6074,5.6094,5.6118,5.6141,5.614,5.6155,5.6192,5.6201,5.6102,5.6046,5.6042,5.6033,5.6033,6.2842,6.2053,6.2105,6.1671,6.0911,6.0681,6.0196,5.9469,5.8512,5.7621,5.6818,5.6073,5.5776,5.5841,5.5851,5.5871,5.5933,5.5941,5.5949,5.5938,5.5997,5.596,5.5829,5.5078,5.4633,5.4358,5.2922,5.2167,5.2032,5.1297,5.0933,5.091,5.0933,5.0971,5.1061,5.0917,5.0389,4.9495,4.874,4.835,4.834,4.8321,4.834,4.8321,4.8244,4.8167,4.8176,4.8111,4.8066,4.808,4.8135,4.816,4.8141,4.8195,4.829,0.0,4.8466,0.0,0.0,0.0,0.0,0.0,0.0,0.0,0.0,5.065,5.0975,5.1714,5.2523,5.2988,5.2988,5.3772,5.4306,5.438,5.5011,5.545,5.5504,5.5527,5.5556,5.5632,5.5624,5.5673,5.5792,5.5817,5.5856,5.5909,5.5951,5.5922,5.5928,5.5933,5.5929,5.5929,5.5932,5.5986,5.602,5.6082,5.6153,5.616,5.6234,5.6221,5.6252,5.6232,5.6243,5.6232,5.6223,5.6233,5.6204,5.6226,5.6188,5.6035,5.5987,5.6019,5.6151,5.618,5.6206,6.306,6.2331,6.2341,6.1887,6.1093,6.0361,5.9939,5.9639,5.8138,5.6993,5.6187,5.6013,5.594,5.5973,5.6027,5.6053,5.6061,5.6121,5.6141,5.6156,5.6163,5.5813,5.52,5.5006,5.4191,5.2884,5.2515,5.1994,5.1315,5.1143,5.1066,5.1066,5.1066,5.1415,5.2078,0.0,0.0,0.0,5.0259,5.0159,5.012,5.0101,5.0101,5.0101,4.9466,0.0,4.9042,4.9047,4.9007,4.898,4.9616,0.0,0.0,0.0,0.0,0.0,0.0,0.0,0.0,0.0,0.0,0.0,5.2458,5.2326,5.2479,5.2499,5.2556,5.2748,5.352,5.4024,5.4024,5.474,5.5244,5.5275,5.5437,5.5568,5.5585,5.5687,5.5751,5.5761,5.5816,5.5861,5.588,5.5922,5.5986,5.6048,5.6098,5.6141,5.6149,5.6097,5.6057,5.608,5.6098,5.6145,5.6153,5.6156,5.6192,5.6239,5.6275,5.6303,5.6344,5.6369,5.6372,5.6361,5.6364,5.6325,5.6331,5.6372,5.6042,5.5436,5.53,5.5478,5.6074,5.6209,5.6208,6.2286,0.0,6.1918,6.1422,0.0,5.9754,5.9134,5.8649,5.7781,5.6909,5.6118,5.6098,5.6098,5.6118,5.614,5.6147,5.6151,5.6209,5.6236,5.6253,5.6272,5.6093,5.568,5.5252,5.4374,5.3108,5.2644,5.2003,5.1186,5.1147,5.1381,5.1789,5.1789,5.2219,5.3055,5.3085,5.2753,5.2082,5.208,5.2063,5.2021,5.1612,5.1376,5.1376,0.0,0.0,0.0,0.0,0.0,0.0,0.0,0.0,0.0,0.0,0.0,5.2465,5.2582,5.277,5.3169,5.3573,5.3785,5.3804,5.4184,5.4021,5.308,5.3382,5.3631,5.365,5.4398,5.4908,5.4961,5.532,5.5579,5.5635,5.5687,5.5724,5.5738,5.5808,5.5866,5.5932,5.5959,5.601,5.6037,5.6077,5.6102,5.6149,5.6202,5.6257,5.6253,5.6206,5.6161,5.6202,5.6223,5.6271,5.6285,5.6304,5.632,5.636,5.6355,5.635,5.6386,5.6408,5.6394,5.6368,5.6079,5.5789,5.576,5.547,5.5023,5.4633,5.4497,5.4609,5.5005,5.5041,5.5009,6.1424,6.1424,6.1405,6.1013,6.0268,5.9315,5.8322,5.7389,0.0,0.0,0.0,5.6252,5.6252,5.6252,5.6233,5.6233,5.6236,5.6283,5.6317,5.6322,5.6367,5.6321,5.6168,5.5468,5.467,5.3813,5.3093,5.2371,5.169,5.167,5.2042,5.2682,5.2741,5.3188,5.3981,5.4196,5.417,5.3996,5.3716,5.3538,5.3519,5.2837,5.2465,5.2465,5.1784,5.139,5.1365,5.1333,5.1271,5.1209,5.1153,5.1424,5.2136,5.2247,5.2641,5.346,5.3589,5.3703,5.3853,5.449,5.4857,5.4857,5.5504,5.5234,5.3607,5.4172,5.4581,5.4581,5.5189,5.559,5.5654,5.5651,5.57,5.5788,5.5837,5.588,5.5931,5.5953,5.6003,5.6094,5.6102,5.6145,5.6199,5.6194,5.6225,5.622,5.6275,5.631,5.6304,5.6265,5.6251,5.6317,5.631,5.6332,5.6372,5.6391,5.6397,5.6394,5.6419,5.6404,5.6404,5.6404,5.6412,5.6415,5.5696,5.5273,5.515,5.4587,5.387,5.3695,5.3656,5.3617,5.3457,5.3389,5.3473,6.1488,6.1488,6.1488,6.141,6.118,5.9633,5.8101,5.666,5.6594,5.6495,5.6378,5.6375,5.6375,5.6375,5.6375,5.6356,5.6375,5.64,5.6377,0.0,5.6403,5.6025,5.5379,5.5243,5.4719,5.392,5.3764,5.3647,5.3531,5.349,5.3587,5.3684,5.3706,5.4106,5.4908,5.5663,5.6013,5.595,5.4475,5.3667,5.3667,5.3547,5.3492,5.3472,5.3353,5.3285,5.3242,5.3192,5.3197,5.3103,5.3094,5.3148,5.3264,5.3272,5.364,5.4413,5.451,5.4839,5.555,5.5758,5.5797,5.5797,5.5913,5.5825,5.5543,5.5605,5.5663,5.5663,5.5773,5.5855,5.5851,5.5866,5.5856,5.5903,5.599,5.6065,5.6077,5.6114,5.6161,5.618,5.6191,5.6191,5.6215,5.6242,5.6269,5.63,5.6347,5.6395,5.6375,5.637,5.6367,5.6395,5.6378,5.64,5.6397,5.6393,5.6405,5.6405,5.6441,5.6472,5.647,5.647,5.6472,5.6479,5.5697,5.5191,5.5137,5.4494,5.3597,5.2954,5.2779,5.2584,5.2021,5.1836,5.2154,6.1551,6.1554,6.1549,6.1302,6.0779,5.9072,5.7658,5.6517,5.6478,5.6455,5.6454,5.6451,5.6454,5.6454,5.6454,5.6451,5.6454,5.6454,5.6461,5.645,5.645,5.626,5.5937,5.5918,5.5457,5.4648,5.4609,5.4362,5.3944,5.3905,5.4139,5.4587,5.5073,5.5498,5.5862,5.627,5.6459,5.6429,5.5599,5.5183,5.5144,5.4697,5.4461,5.4441,5.4016,5.3741,5.3718,5.3699,5.3673,5.3603,5.3603,5.3816,5.4282,5.4321,5.467,5.5461,5.5516,5.569,5.6094,5.6113,5.6109,5.6113,5.6109,5.6094,5.606,5.598,5.5941,5.596,5.596,5.5974,5.5996,5.6023,5.6025,5.605,5.613,5.6171,5.6197,5.6213,5.6262,5.6298,5.6301,5.6307,5.6303,5.6338,5.635,5.635,5.6375,5.6398,5.6429,5.6471,5.6427,5.6395,5.6393,5.642,5.6451,5.6441,5.645,5.647,5.6479,5.6485,5.6485,5.6485,5.6485,5.6388,5.545,5.4611,5.4513,5.3383,5.2467,5.2097,5.1902,5.1688,5.1398,5.13,5.1587,6.159,6.1592,6.159,6.1012,6.0019,5.8671,5.7499,5.6522,5.6483,5.6487,5.6482,5.648,5.648,5.648,5.6482,5.65,5.648,5.648,5.648,5.648,5.648,5.648,5.648,5.648,5.6137,5.5544,5.5488,5.5144,5.4554,5.4477,5.4807,5.5508,5.6171,5.6483,5.6483,5.6483,5.6483,5.6499,5.6444,5.6425,5.6405,5.5763,5.5412,5.5373,5.4789,5.4407,5.4407,5.4404,5.4391,5.4302,5.4322,5.4613,5.5255,5.5313,5.5602,5.6163,5.6241,5.6254,5.6248,5.6242,5.6239,5.6239,5.6258,5.6236,5.6249,5.6158,5.609,5.6055,5.6055,5.6067,5.6114,5.6129,5.6168,5.6216,5.6235,5.6269,5.6314,5.6318,5.6342,5.6406,5.6408,5.6386,5.6389,5.6394,5.6402,5.641,5.6427,5.6448,5.6483,5.6485,5.6479,5.6446,5.6439,5.6446,5.6483,5.6485,5.6485,5.6485,5.6485,5.6485,5.6485,5.6485,5.6485,5.6349,5.5295,5.4494,5.4123,5.2877,5.1941,5.1785,5.163,5.1339,5.132,5.13,5.13,6.1613,6.1593,6.1597,6.0661,5.9315,5.9061,5.8045,5.6639,5.6503,5.6482,5.6498,5.6498,5.6498,5.6498,5.6498,5.6496,5.6496,5.6498,5.6498,5.6498,5.6498,5.6498,5.6496,5.6498,5.646,5.6343,5.6326,5.6249,5.6116,5.6173,5.6269,5.6386,5.6464,5.6504,5.6485,5.6504,5.6503,5.6483,5.6496,5.6493,5.6493,5.6415,5.6356,5.6376,5.6278,5.625,5.6129,5.625,5.6201,5.6145,5.6085,5.616,5.6238,5.6258,5.6299,5.6375,5.6375,5.6385,5.6381,5.6397,5.6381,5.6381,5.6361,5.6381,5.6381,5.637,5.6318,5.623,5.6194,5.6191,5.6181,5.6243,5.6278,5.6281,5.6333,5.6378,5.6378,5.6383,5.6406,5.6406,5.6416,5.6408,5.6419,5.6412,5.6417,5.647,5.6474,5.6461,5.6485,5.6485,5.6485,5.6483,5.6483,5.6483,5.6487,5.6485,5.6485,5.6485,5.6485,5.6485,5.6485,5.6485,5.6485,5.6388,5.5723,5.5,5.463,5.3714,5.2547,5.2409,5.2,5.1398,5.1339,5.1456,5.1534,6.167,6.1651,6.166,6.0981,5.9947,5.9869,5.8874,5.7313,5.7274,5.7,5.6589,5.655,5.6541,5.6483,5.6483,5.6483,5.6483,5.6483,5.6483,5.6483,5.6483,5.6483,5.6483,5.6483,5.6486,5.6497,5.6497,5.6521,5.6549,5.655,5.655,5.657,5.655,5.655,5.655,5.657,5.655,5.655,5.655,5.657,5.6549,5.6512,5.6483,5.6483,5.6483,5.6499,5.6493,5.6491,5.6487,5.6462,5.6462,5.6461,5.6462,5.6462,5.6462,5.6462,5.6462,5.6453,5.647,5.6461,5.645,5.6458,5.6458,5.6478,5.6458,5.6456,5.6427,5.6388,5.6336,5.6314,5.6314,5.6345,5.637,5.6356,5.6377,5.6395,5.6395,5.6427,5.6456,5.6475,5.6475,5.6456,5.6458,5.6446,5.6457,5.6485,5.6487,5.6487,5.6487,5.6485,5.6485,5.6487,5.6494,5.6498,5.6489,5.6485,5.6487,5.6487,5.6485,5.6485,5.6487,5.6485,5.6485,5.6487,5.5803,5.5312,5.5154,5.4338,5.3344,5.3227,5.3227,5.2838,5.2838,5.2838,5.2838,6.1705,6.1706,6.1715,6.1192,6.0412,6.0393,5.9534,5.8246,5.8168,5.7816,5.7308,5.7288,5.7259,5.7162,5.677,5.6536,5.6517,5.6515,5.6536,5.6536,5.6536,5.6517,5.6536,5.6536,5.6523,5.6531,5.6514,5.6675,5.6937,5.721,5.7288,5.7288,5.7288,5.7288,5.7288,5.7269,5.7171,5.6937,5.6937,5.6839,5.6622,5.6567,5.6536,5.6535,5.6536,5.6536,5.6515,5.6517,5.6535,5.6517,5.6536,5.6535,5.6536,5.6517,5.6536,5.6515,5.6512,5.6485,5.6489,5.65,5.6488,5.6496,5.6489,5.6485,5.6485,5.6485,5.6485,5.6481,5.6454,5.6432,5.6432,5.6412,5.6432,5.6432,5.6412,5.6422,5.6422,5.6479,5.6485,5.6485,5.6481,5.6485,5.6485,5.6485,5.6485,5.6485,5.6489,5.6494,5.6496,5.65,5.6484,5.6484,5.6494,5.6494,5.65,5.6482,5.6482,5.6482,5.6486,5.6486,5.6482,5.6482,5.6498,5.6426,5.5853,5.563,5.5645,5.4963,5.4106,5.3968,5.3909,5.3911,5.3656,5.3831,5.3851,6.1718,6.1718,6.1698,6.1211,6.0412,6.0432,5.9905,5.9045,5.9045,5.8986,5.8869,5.8889,5.8966,5.8788,5.7381,5.6622,5.6642,5.6719,5.6738,5.6758,5.6699,5.6642,5.6604,5.6604,5.6661,5.6817,5.6837,5.7111,5.7777,5.8537,5.9006,5.8947,5.885,5.8908,5.8869,5.8811,5.8538,5.7816,5.7758,5.7426,5.6761,5.6662,5.6642,5.666,5.6583,5.6582,5.6603,5.6604,5.6603,5.6584,5.6582,5.6603,5.6603,5.6602,5.6582,5.66,5.6533,5.6486,5.6481,5.6496,5.6494,5.6492,5.648,5.6487,5.6489,5.6489,5.6489,5.6485,5.6481,5.6479,5.6479,5.6474,5.6476,5.6476,5.6481,5.6483,5.6483,5.6483,5.6485,5.6485,5.6485,5.6485,5.6485,5.6485,5.6487,5.6492,5.6482,5.6492,5.6496,5.6487,5.6494,5.6496,5.6498,5.6496,5.65,5.6482,5.6493,5.6493,5.6489,5.6498,5.6499,5.6498,5.6487,5.65,5.632,5.6213,5.6219,5.5784,5.4967,5.4578,5.4383,5.4283,5.4554,5.4104,5.4182,6.1699,6.1699,6.1699,6.1504,6.125,6.1252,6.0744,5.9963,5.9944,5.9591,5.9162,5.9123,5.9123,5.9064,5.8479,5.8205,5.8186,5.8205,5.8205,5.8205,5.8205,5.8205,5.8205,5.8186,5.8205,5.8205,5.8186,5.8342,5.8596,5.8967,5.9123,5.9123,5.9123,5.9123,5.9123,5.9123,5.8928,5.8674,5.8635,5.8479,5.8148,5.766,5.7367,5.7348,5.6859,5.6605,5.6605,5.6605,5.6605,5.6605,5.6605,5.6605,5.6605,5.6605,5.6605,5.6605,5.6563,5.6536,5.6507,5.6497,5.6485,5.6493,5.6487,5.6498,5.6488,5.6484,5.65,5.6489,5.6487,5.6485,5.6485,5.6485,5.6485,5.6485,5.6485,5.6485,5.6485,5.6485,5.6485,5.6485,5.6485,5.6485,5.6485,5.6485,5.6492,5.6482,5.6488,5.6498,5.6491,5.6499,5.6504,5.6486,5.6493,5.6497,5.6491,5.6483,5.6483,5.6483,5.6482,5.6503,5.6504,5.6506,5.6499,5.6496,5.6493,5.647,5.6361,5.6281,5.5558,5.5568,5.5313,5.5172,5.5569,5.5186,5.5281,6.171,6.171,6.171,6.1711,6.171,6.171,6.136,6.0833,6.0813,6.0481,6.0012,5.9954,5.9934,5.9935,5.9935,5.9935,5.9856,5.938,5.9123,5.9123,5.9123,5.9123,5.9123,5.9123,5.9106,5.9149,5.9407,5.9525,5.9564,5.9798,5.9914,5.9954,5.9954,5.9935,5.9935,5.9934,5.9836,5.9603,5.9505,5.9388,5.9076,5.8526,5.8232,5.8153,5.7681,5.7132,5.6663,5.6605,5.6605,5.6605,5.6605,5.6605,5.6605,5.6605,5.6605,5.6605,5.6605,5.6582,5.6535,5.6529,5.6484,5.6493,5.6485,5.6496,5.6484,5.6484,5.6496,5.6488,5.6486,5.6486,5.6484,5.648,5.6492,5.6487,5.6485,5.6485,5.6485,5.6485,5.6485,5.6485,5.6485,5.6485,5.6485,5.6485,5.6496,5.649,5.6498,5.6491,5.6486,5.6515,5.6538,5.652,5.6528,5.6532,5.655,5.6546,5.6543,5.6542,5.6541,5.6538,5.6535,5.6535,5.6514,5.6493,5.649,5.6488,5.6486,5.6485,5.6496,5.6486,5.6269,5.5975,5.6221,5.6352,5.6196,6.1709,6.169,6.1709,6.1691,6.1691,6.1691,6.1671,6.1594,6.1593,6.1477,6.134,6.1535,6.1398,6.1554,6.1378,6.1573,6.122,5.9998,5.9383,5.9381,5.9321,5.9321,5.936,5.9401,5.9387,5.9416,6.0048,6.0401,6.044,6.1065,6.1455,6.1591,6.1475,6.1377,6.1631,6.1416,6.1162,6.0597,6.0401,6.003,5.9229,5.9165,5.9103,5.9102,5.8975,5.8226,5.6821,5.6761,5.68,5.6702,5.6683,5.6624,5.6624,5.6605,5.6605,5.6605,5.6605,5.6605,5.6584,5.6536,5.651,5.6506,5.6494,5.6506,5.6485,5.6483,5.6482,5.6496,5.6498,5.648,5.6496,5.6484,5.6488,5.6489,5.6489,5.6485,5.6485,5.6485,5.6485,5.6485,5.6485,5.6485,5.6485,5.6489,5.6498,5.6496,5.6493,5.6509,5.6504,5.6555,5.6602,5.6603,5.66,5.6581,5.6603,5.6604,5.6604,5.6603,5.66,5.6598,5.6594,5.6575,5.6571,5.6549,5.6527,5.6525,5.652,5.6518,5.6512,5.6506,5.6504,5.6499,5.6493,5.6487,5.6493,6.1639,6.1639,6.162,6.1639,6.1639,6.1639,6.162,6.1639,6.162,6.1639,6.1639,6.1639,6.162,6.164,6.1679,6.1699,6.166,6.1111,6.0891,6.0845,6.0843,6.0824,6.0843,6.0863,6.0886,6.0912,6.115,6.1288,6.1327,6.1561,6.1698,6.1698,6.1698,6.1698,6.1698,6.1698,6.1522,6.1347,6.1308,6.1151,6.0839,6.029,6.0014,5.9935,5.9418,5.8804,5.8355,5.8328,5.803,5.7484,5.7426,5.719,5.6742,5.6605,5.6605,5.6605,5.6605,5.6605,5.6605,5.6582,5.656,5.6579,5.6557,5.6549,5.6502,5.65,5.6494,5.6506,5.6483,5.6483,5.6482,5.6498,5.6487,5.6486,5.6496,5.6487,5.6485,5.6485,5.6485,5.6485,5.6485,5.6485,5.6489,5.6494,5.6492,5.6491,5.6488,5.6504,5.6557,5.6582,5.6605,5.6605,5.6605,5.6605,5.6605,5.6605,5.6605,5.6605,5.6605,5.6605,5.6605,5.6604,5.6602,5.6581,5.6559,5.6557,5.6553,5.655,5.6545,5.6523,5.652,5.6494,5.6486,5.6506,5.6511,6.1592,6.1592,6.1592,6.1592,6.1592,6.1592,6.1592,6.1592,6.1592,6.1592,6.1592,6.1592,6.1592,6.1595,6.1642,6.1666,6.1666,6.1672,6.1716,6.1699,6.1716,6.1715,6.1715,6.1717,6.1699,6.1699,6.1696,6.1713,6.1713,6.1713,6.1713,6.1713,6.1713,6.1713,6.1713,6.1713,6.1713,6.1713,6.1693,6.1714,6.1599,6.1171,6.0898,6.08,6.0343,6.0082,6.0078,6.0067,5.9513,5.8538,5.8285,5.8031,5.7581,5.7561,5.7522,5.7483,5.723,5.7054,5.7034,5.68,5.6605,5.6605,5.6605,5.6602,5.6555,5.6535,5.6549,5.6542,5.6541,5.6521,5.6521,5.6514,5.6506,5.6498,5.6494,5.6496,5.6489,5.6485,5.6485,5.6485,5.6485,5.6485,5.6489,5.6482,5.6482,5.648,5.6497,5.6513,5.6581,5.6604,5.6605,5.6605,5.6605,5.6605,5.6605,5.6605,5.6605,5.6605,5.6605,5.6605,5.6605,5.6605,5.6604,5.6603,5.6582,5.6582,5.6579,5.66,5.6579,5.6557,5.6533,5.6552,5.6546,5.6546,5.6568,6.1586,6.1586,6.1586,6.1565,6.1565,6.1584,6.1563,6.1565,6.1565,6.1563,6.1565,6.1563,6.1565,6.157,6.1582,6.1612,6.1597,6.1631,6.1676,6.167,6.1689,6.1697,6.1718,6.1692,6.1687,6.1684,6.1687,6.1676,6.1676,6.1676,6.1694,6.1694,6.1675,6.1694,6.1676,6.1694,6.1677,6.1698,6.1698,6.1687,6.1696,6.1666,6.1635,6.1621,6.154,6.1472,6.1445,6.1414,6.0782,5.9416,5.9084,5.8947,5.9025,5.9084,5.8928,5.885,5.8265,5.7953,5.7699,5.7386,5.6995,5.7015,5.7015,5.6702,5.6799,5.6817,5.6739,5.662,5.6602,5.6583,5.6581,5.6554,5.6507,5.6481,5.6491,5.6486,5.6489,5.6485,5.6485,5.6485,5.6485,5.6485,5.6487,5.6484,5.6486,5.6501,5.6499,5.6554,5.6581,5.6605,5.6605,5.6605,5.6605,5.6605,5.6605,5.6605,5.6605,5.6605,5.6605,5.6605,5.6605,5.6605,5.6605,5.6605,5.6605,5.6605,5.6605,5.6605,5.6605,5.6602,5.6582,5.6604,5.6603,5.6599,5.6597,6.1446,6.1449,6.1449,6.1469,6.1446,6.1446,6.1449,6.1449,6.1452,6.1455,6.1469,6.1449,6.1455,6.1475,6.1501,6.1522,6.1534,6.1547,6.1567,6.1569,6.1547,6.1628,6.1668,6.1636,6.1624,6.1619,6.159,6.1567,6.1567,6.1569,6.1549,6.1547,6.1569,6.1567,6.1547,6.16,6.1625,6.1629,6.1623,6.1612,6.164,6.168,6.1715,6.1708,6.1699,6.1713,6.1706,6.1709,6.1231,6.0139,5.9416,5.9123,5.922,5.922,5.9279,5.9201,5.8967,5.8752,5.8713,5.8518,5.8401,5.844,5.8284,5.8168,5.7523,5.7484,5.719,5.68,5.6605,5.6624,5.6605,5.6582,5.6553,5.6491,5.6491,5.6488,5.6492,5.6485,5.6485,5.6485,5.6485,5.6487,5.6494,5.6496,5.6496,5.6506,5.6545,5.6581,5.6604,5.6605,5.6605,5.6605,5.6605,5.6605,5.6605,5.6605,5.6605,5.6605,5.6605,5.6605,5.6605,5.6605,5.6605,5.6605,5.6605,5.6605,5.6605,5.6605,5.6605,5.6605,5.6605,5.6605,5.6605,5.6603,5.6602,6.1356,6.1356,6.1356,6.1356,6.1356,6.1372,6.1356,6.1356,6.1353,6.1356,6.1356,6.1353,6.1353,6.1341,6.1394,6.1418,6.1428,6.1458,6.1459,6.1443,6.1445,6.1525,6.16,6.1573,6.1558,6.1554,6.1517,6.15,6.1497,6.1495,6.1495,6.1497,6.1497,6.1495,6.15,6.1529,6.1544,6.1556,6.1552,6.1564,6.1604,6.163,6.1674,6.1694,6.1716,6.1717,6.1707,6.1709,6.1446,6.0938,6.0489,6.0196,6.0196,6.0196,6.0177,6.0196,5.9884,5.965,5.9552,5.9338,5.9123,5.9103,5.9123,5.8869,5.8459,5.8323,5.801,5.727,5.7112,5.6937,5.6663,5.6605,5.6576,5.6499,5.6498,5.6496,5.6489,5.6485,5.6485,5.6485,5.6487,5.6492,5.6496,5.6487,5.6483,5.6515,5.6572,5.66,5.6605,5.6605,5.6605,5.6605,5.6605,5.6605,5.6605,5.6605,5.6605,5.6605,5.6605,5.6605,5.6605,5.6605,5.6605,5.6605,5.6605,5.6605,5.6605,5.6605,5.6605,5.6605,5.6605,5.6605,5.6605,5.6605,5.6605,6.1285,6.1285,6.1285,6.127,6.1285,6.1285,6.1266,6.1285,6.1285,6.1266,6.1285,6.1289,6.1266,6.127,6.1295,6.1291,6.1295,6.1366,6.1377,6.1384,6.1391,6.1428,6.1462,6.1481,6.1473,6.149,6.1484,6.1472,6.1469,6.1491,6.1491,6.1491,6.1491,6.1472,6.1475,6.1478,6.1495,6.1498,6.1512,6.1537,6.1571,6.1602,6.1631,6.1681,6.1713,6.1717,6.1705,6.1707,6.166,6.1699,6.1699,6.1524,6.1563,6.1641,6.1621,6.1446,6.088,6.0549,6.0451,5.9923,5.9513,5.9591,5.9552,5.9279,5.9279,5.922,5.887,5.8011,5.7855,5.7348,5.6761,5.6605,5.6579,5.6506,5.6493,5.6491,5.6484,5.6489,5.6485,5.6487,5.6487,5.6498,5.6494,5.6493,5.6491,5.65,5.6555,5.6603,5.6605,5.6605,5.6605,5.6605,5.6605,5.6605,5.6605,5.6605,5.6605,5.6605,5.6605,5.6605,5.6605,5.6605,5.6605,5.6605,5.6605,5.6605,5.6605,5.6605,5.6605,5.6605,5.6605,5.6605,5.6605,5.6605,5.6605,6.1131,6.115,6.1131,6.1146,6.1131,6.1126,6.115,6.115,6.1131,6.1159,6.115,6.115,6.1155,6.1155,6.1204,6.1236,6.1245,6.1286,6.133,6.133,6.133,6.1341,6.1352,6.1347,6.1372,6.1398,6.1377,6.1373,6.141,6.144,6.144,6.144,6.1428,6.1421,6.1428,6.1434,6.1431,6.1424,6.1481,6.1495,6.1534,6.1576,6.1615,6.1653,6.1695,6.1716,6.1702,6.1706,6.1699,6.1699,6.1699,6.1699,6.1699,6.1699,6.1699,6.166,6.1563,6.1387,6.1368,6.1133,6.1114,6.0977,6.088,6.0841,6.0159,6.0119,5.971,5.8908,5.8207,5.7641,5.6839,5.6644,5.6599,5.655,5.6503,5.6494,5.6493,5.6486,5.6492,5.6492,5.6482,5.649,5.6496,5.6486,5.65,5.6509,5.6555,5.6603,5.6605,5.6605,5.6605,5.6605,5.6605,5.6605,5.6605,5.6605,5.6605,5.6605,5.6605,5.6605,5.6605,5.6605,5.6605,5.6605,5.6605,5.6605,5.6605,5.6605,5.6605,5.6605,5.6605,5.6605,5.6605,5.6605,5.6605,6.1094,6.1094,6.1094,6.1094,6.1094,6.1094,6.1094,6.1094,6.1094,6.1094,6.1094,6.1094,6.1094,6.1099,6.1141,6.1155,6.1159,6.1182,6.1195,6.1195,6.1195,6.1214,6.1219,6.1225,6.1259,6.131,6.1326,6.1326,6.1341,6.1368,6.1353,6.1371,6.1371,6.1386,6.1393,6.1398,6.1399,6.1399,6.1434,6.1464,6.1512,6.156,6.1621,6.1648,6.1678,6.1714,6.1705,6.1708,6.1701,6.1699,6.1699,6.1699,6.1699,6.1699,6.1699,6.1699,6.1699,6.1699,6.1699,6.1699,6.166,6.1699,6.1699,6.1465,6.1114,6.1016,6.0588,5.9885,5.9241,5.8597,5.7348,5.7171,5.703,5.6616,5.6531,5.6504,5.6494,5.6493,5.6494,5.6496,5.6484,5.6493,5.6486,5.65,5.6529,5.6555,5.6577,5.6605,5.6605,5.6605,5.6605,5.6605,5.6605,5.6605,5.6605,5.6605,5.6605,5.6605,5.6605,5.6605,5.6605,5.6605,5.6605,5.6605,5.6605,5.6605,5.6605,5.6605,5.6605,5.6605,5.6605,5.6605,5.6605,5.6605,5.6605,6.1094,6.1094,6.1094,6.1094,6.1094,6.1094,6.1094,6.1094,6.1094,6.1094,6.1094,6.1094,6.1094,6.1099,6.1099,6.1099,6.1099,6.1099,6.1113,6.1113,6.1113,6.1113,6.1132,6.1126,6.1154,6.1277,6.1266,6.1274,6.1306,6.1301,6.133,6.131,6.131,6.1349,6.1378,6.1386,6.1384,6.1399,6.1405,6.146,6.1501,6.1553,6.1604,6.1684,6.1699,6.1715,6.1707,6.1712,6.1699,6.1699,6.1699,6.1699,6.1699,6.1699,6.1699,6.1699,6.1699,6.1699,6.1699,6.1699,6.1699,6.1699,6.1699,6.1699,6.1641,6.1563,6.1231,6.0803,6.0237,5.9553,5.8226,5.7992,5.7601,5.7053,5.6771,5.6649,5.6528,5.6497,5.6511,5.6499,5.6483,5.649,5.6499,5.651,5.6557,5.6582,5.6604,5.6605,5.6605,5.6605,5.6605,5.6605,5.6605,5.6605,5.6605,5.6605,5.6605,5.6605,5.6605,5.6605,5.6605,5.6605,5.6605,5.6605,5.6605,5.6605,5.6605,5.6605,5.6605,5.6605,5.6605,5.6605,5.6605,5.6605,5.6605,6.1094,6.1094,6.1094,6.1094,6.1094,6.1094,6.1094,6.1094,6.1094,6.1094,6.1094,6.1094,6.1094,6.1094,6.1094,6.1094,6.1094,6.1094,6.1094,6.1094,6.1094,6.1094,6.1094,6.1099,6.1113,6.1146,6.1182,6.1236,6.1285,6.1321,6.1293,6.131,6.129,6.131,6.1318,6.131,6.1352,6.1384,6.1391,6.1431,6.1495,6.1527,6.1581,6.1687,6.1699,6.1715,6.1708,6.1712,6.1699,6.1699,6.1699,6.1699,6.1699,6.1699,6.1699,6.1699,6.1699,6.1699,6.1699,6.1699,6.1699,6.1699,6.1699,6.1699,6.1699,6.1699,6.1563,6.1348,6.0764,6.0002,5.9007,5.889,5.846,5.7893,5.7541,5.7324,5.6835,5.6675,5.6606,5.6533,5.6518,5.6504,5.6531,5.6555,5.658,5.6603,5.6604,5.6605,5.6605,5.6605,5.6605,5.6605,5.6605,5.6605,5.6605,5.6605,5.6605,5.6605,5.6605,5.6605,5.6605,5.6605,5.6605,5.6605,5.6605,5.6605,5.6605,5.6605,5.6605,5.6605,5.6605,5.6605,5.6605,5.6605,5.6605,6.1094,6.1094,6.1094,6.1094,6.1094,6.1094,6.1094,6.1094,6.1094,6.1094,6.1094,6.1094,6.1094,6.1094,6.1094,6.1094,6.1094,6.1094,6.1094,6.1094,6.1094,6.1094,6.1094,6.1094,6.1094,6.1103,6.1122,6.1164,6.1186,6.1186,6.1223,6.126,6.1245,6.1246,6.1287,6.1314,6.1326,6.1348,6.1366,6.1431,6.149,6.1534,6.1622,6.1681,6.1699,6.1715,6.1708,6.1711,6.1699,6.1699,6.1699,6.1699,6.1699,6.1699,6.1699,6.1699,6.1699,6.1699,6.1699,6.1699,6.1699,6.1699,6.1699,6.1699,6.1699,6.1699,6.1699,6.1602,6.1465,6.0723,5.9885,5.9806,5.9339,5.8695,5.846,5.807,5.7504,5.7269,5.7007,5.6741,5.663,5.6615,5.6558,5.6581,5.6604,5.6605,5.6605,5.6605,5.6605,5.6605,5.6605,5.6605,5.6605,5.6605,5.6605,5.6605,5.6605,5.6605,5.6605,5.6605,5.6605,5.6605,5.6605,5.6605,5.6605,5.6605,5.6605,5.6605,5.6605,5.6605,5.6605,5.6605,5.6605,5.6605,5.6605,6.1094,6.1094,6.1094,6.1094,6.1094,6.1094,6.1094,6.1094,6.1094,6.1094,6.1094,6.1094,6.1094,6.1094,6.1094,6.1094,6.1094,6.1094,6.1094,6.1094,6.1094,6.1094,6.1094,6.1094,6.1094,6.1099,6.1099,6.1094,6.1108,6.1108,6.1146,6.1183,6.1173,6.1219,6.1261,6.1271,6.1295,6.1318,6.1344,6.1408,6.149,6.1573,6.1635,6.168,6.1699,6.1715,6.1709,6.1711,6.1701,6.1699,6.1699,6.1699,6.1699,6.1699,6.1699,6.1699,6.1699,6.1699,6.1699,6.1699,6.1699,6.1699,6.1699,6.1699,6.1699,6.1699,6.1699,6.1699,6.1641,6.1407,6.0782,6.0666,6.0217,5.9611,5.9318,5.9064,5.8402,5.7972,5.7621,5.7325,5.6956,5.676,5.672,5.6603,5.6605,5.6605,5.6605,5.6605,5.6605,5.6605,5.6605,5.6605,5.6605,5.6605,5.6605,5.6605,5.6605,5.6605,5.6605,5.6605,5.6605,5.6605,5.6605,5.6605,5.6605,5.6605,5.6605,5.6624,5.6605,5.6605,5.6605,5.6605,5.6605,5.6605,5.6605,6.1094,6.1094,6.1094,6.1094,6.1094,6.1094,6.1094,6.1094,6.1094,6.1094,6.1094,6.1094,6.1094,6.1094,6.1094,6.1094,6.1094,6.1094,6.1094,6.1094,6.1094,6.1094,6.1094,6.1094,6.1094,6.1094,6.1094,6.1094,6.1094,6.1094,6.1099,6.1132,6.1137,6.1146,6.1195,6.1236,6.1245,6.1306,6.131,6.1378,6.1481,6.1559,6.1629,6.1681,6.1698,6.1715,6.1709,6.1712,6.1699,6.1699,6.1699,6.1699,6.1699,6.1699,6.1699,6.1699,6.1699,6.1699,6.1699,6.1699,6.1699,6.1699,6.1699,6.1699,6.1699,6.1699,6.1699,6.1699,6.1699,6.166,6.1446,6.1485,6.1055,6.0627,6.0235,5.9786,5.9181,5.8909,5.8538,5.8031,5.7719,5.719,5.6898,5.6742,5.6605,5.6605,5.6605,5.6605,5.6605,5.6605,5.6605,5.6605,5.6605,5.6605,5.6605,5.6605,5.6605,5.6605,5.6605,5.6605,5.6605,5.6605,5.6605,5.6605,5.6624,5.6722,5.6839,5.682,5.6683,5.6683,5.6781,5.6702,5.6605,5.6644,5.6937,6.1094,6.1094,6.1094,6.1094,6.1094,6.1094,6.1094,6.1094,6.1094,6.1094,6.1094,6.1094,6.1094,6.1094,6.1094,6.1094,6.1094,6.1094,6.1094,6.1094,6.1094,6.1094,6.1094,6.1094,6.1094,6.1094,6.1094,6.1094,6.1094,6.1094,6.1094,6.1094,6.1099,6.1103,6.1155,6.1173,6.1214,6.1261,6.1326,6.1394,6.147,6.1545,6.1631,6.1708,6.1716,6.1717,6.1709,6.1712,6.1701,6.1699,6.1699,6.1699,6.1699,6.1699,6.1699,6.1699,6.1699,6.1699,6.1699,6.1699,6.1699,6.1699,6.1699,6.1699,6.1699,6.1699,6.1699,6.1699,6.1699,6.1699,6.1699,6.1699,6.1524,6.1231,6.1016,6.0568,6.0079,5.9905,5.9553,5.9007,5.846,5.7972,5.7464,5.7112,5.6878,5.6605,5.6605,5.6605,5.6605,5.6605,5.6605,5.6605,5.6605,5.6605,5.6605,5.6605,5.6605,5.6605,5.6605,5.6605,5.6605,5.6605,5.6722,5.6702,5.6663,5.682,5.7093,5.6976,5.68,5.6859,5.6976,5.7132,5.7347,5.7893,5.8127,6.1094,6.1094,6.1094,6.1094,6.1094,6.1094,6.1094,6.1094,6.1094,6.1094,6.1094,6.1094,6.1094,6.1094,6.1094,6.1094,6.1094,6.1094,6.1094,6.1094,6.1094,6.1094,6.1094,6.1094,6.1094,6.1094,6.1094,6.1094,6.1094,6.1094,6.1094,6.1094,6.1094,6.1099,6.1127,6.1146,6.1173,6.1199,6.1303,6.1381,6.1437,6.1556,6.1613,6.1682,6.1712,6.1698,6.1709,6.1715,6.1705,6.1699,6.1699,6.1699,6.1699,6.1699,6.1699,6.1699,6.1699,6.1699,6.1699,6.1699,6.1699,6.1699,6.1699,6.1699,6.1699,6.1699,6.1699,6.1699,6.1699,6.1699,6.1699,6.1699,6.1641,6.1621,6.1582,6.1211,6.0881,6.0684,6.0354,5.9768,5.928,5.8909,5.8362,5.7698,5.723,5.6742,5.6605,5.6663,5.6722,5.68,5.6722,5.6761,5.6702,5.6702,5.6683,5.6663,5.6644,5.6742,5.6761,5.6683,5.6742,5.6917,5.7093,5.6995,5.6976,5.7483,5.8088,5.7483,5.6995,5.7542,5.7991,5.805,5.8303,5.8869,5.9084,6.1094,6.1094,6.1094,6.1094,6.1094,6.1094,6.1094,6.1094,6.1094,6.1094,6.1094,6.1094,6.1094,6.1094,6.1094,6.1094,6.1094,6.1094,6.1094,6.1094,6.1094,6.1094,6.1094,6.1094,6.1094,6.1094,6.1094,6.1094,6.1094,6.1094,6.1094,6.1094,6.1094,6.1094,6.1099,6.1108,6.115,6.1186,6.1279,6.1343,6.1408,6.1507,6.1609,6.1677,6.1709,6.1699,6.171,6.1702,6.1712,6.1703,6.1703,6.1699,6.1699,6.1699,6.1699,6.1699,6.1699,6.1699,6.1699,6.1699,6.1699,6.1699,6.1699,6.1699,6.1699,6.1699,6.1699,6.1699,6.1699,6.1699,6.1699,6.1699,6.1699,6.1699,6.1699,6.1582,6.1368,6.1426,6.1055,6.051,6.0119,5.9807,5.9397,5.8772,5.8069,5.7581,5.7366,5.7405,5.721,5.721,5.7015,5.6937,5.6878,5.682,5.6781,5.6898,5.7288,5.7366,5.7347,5.7132,5.6956,5.719,5.7717,5.7854,5.7991,5.8537,5.8908,5.8499,5.8342,5.8752,5.9025,5.9084,5.9241,5.9669,5.9669,6.1094,6.1094,6.1094,6.1094,6.1094,6.1094,6.1094,6.1094,6.1094,6.1094,6.1094,6.1094,6.1094,6.1094,6.1094,6.1094,6.1094,6.1094,6.1094,6.1094,6.1094,6.1094,6.1094,6.1094,6.1094,6.1094,6.1094,6.1094,6.1094,6.1094,6.1094,6.1094,6.1094,6.1094,6.1094,6.1094,6.1127,6.1164,6.1238,6.1326,6.1399,6.1489,6.1575,6.1647,6.1688,6.1698,6.1717,6.1711,6.1702,6.1714,6.1711,6.1707,6.1702,6.1702,6.1701,6.1701,6.1699,6.1699,6.1699,6.1699,6.1699,6.1699,6.1699,6.1699,6.1699,6.1699,6.1699,6.1699,6.1699,6.1699,6.1699,6.1699,6.1699,6.1699,6.1699,6.1699,6.1699,6.1699,6.1621,6.1016,6.0938,6.0821,6.0372,5.9885,5.9142,5.8479,5.8284,5.8088,5.7913,5.7835,5.7737,5.7698,5.7678,5.7776,5.7776,5.7913,5.8069,5.7991,5.7952,5.7835,5.7737,5.8186,5.8635,5.8772,5.8947,5.9357,5.9572,5.9534,5.9534,5.9572,5.9845,6.0157,6.0333,6.0489,6.0411,6.1094,6.1094,6.1094,6.1094,6.1094,6.1094,6.1094,6.1094,6.1094,6.1094,6.1094,6.1094,6.1094,6.1094,6.1094,6.1094,6.1094,6.1094,6.1094,6.1094,6.1094,6.1094,6.1094,6.1094,6.1094,6.1094,6.1094,6.1094,6.1094,6.1094,6.1094,6.1094,6.1094,6.1094,6.1094,6.1094,6.1094,6.1141,6.1217,6.1326,6.1394,6.1465,6.1541,6.1598,6.1662,6.1696,6.1699,6.1715,6.171,6.1704,6.1701,6.1698,6.1712,6.1707,6.1706,6.1704,6.1702,6.1699,6.1699,6.1699,6.1699,6.1699,6.1699,6.1699,6.1699,6.1699,6.1699,6.1699,6.1699,6.1699,6.1699,6.1699,6.1699,6.1699,6.1699,6.1699,6.1699,6.1699,6.1699,6.1524,6.1485,6.1387,6.1211,6.0684,5.9904,5.9201,5.8752,5.8635,5.8654,5.8635,5.8713,5.8713,5.8732,5.8889,5.9045,5.885,5.8654,5.8596,5.8596,5.8752,5.883,5.924,5.9494,5.9591,5.9826,6.0157,6.0372,6.0509,6.0333,6.0099,6.0489,6.0899,6.1055,6.1172,6.1309,6.1094,6.1094,6.1094,6.1094,6.1094,6.1094,6.1094,6.1094,6.1094,6.1094,6.1094,6.1094,6.1094,6.1094,6.1094,6.1094,6.1094,6.1094,6.1094,6.1094,6.1094,6.1094,6.1094,6.1094,6.1094,6.1094,6.1094,6.1094,6.1094,6.1094,6.1094,6.1094,6.1094,6.1094,6.1094,6.1094,6.1094,6.1113,6.1217,6.1322,6.1388,6.1448,6.1526,6.1587,6.1669,6.1711,6.1698,6.1698,6.1715,6.171,6.1709,6.1707,6.1705,6.17,6.1717,6.1717,6.1707,6.1703,6.1701,6.1699,6.1699,6.1699,6.1699,6.1699,6.1699,6.1699,6.1699,6.1699,6.1699,6.1699,6.1699,6.1699,6.1699,6.1699,6.1699,6.1699,6.1699,6.1699,6.1699,6.1699,6.1699,6.168,6.168,6.1407,6.0606,5.9923,5.9318,5.9201,5.9416,5.9611,5.9786,5.9826,5.9884,5.9865,5.9904,5.9474,5.9259,5.922,5.9377,5.9689,5.9865,6.0099,6.0295,6.0393,6.0646,6.0938,6.1289,6.1602,6.1192,6.086,6.1192,6.1524,6.168,6.1699,6.1699,6.1094,6.1094,6.1094,6.1094,6.1094,6.1094,6.1094,6.1094,6.1094,6.1094,6.1094,6.1094,6.1094,6.1094,6.1094,6.1094,6.1094,6.1094,6.1094,6.1094,6.1094,6.1094,6.1094,6.1094,6.1094,6.1094,6.1094,6.1094,6.1094,6.1094,6.1094,6.1094,6.1094,6.1094,6.1094,6.1094,6.1094,6.1113,6.1232,6.131,6.1336,6.1472,6.1564,6.1664,6.1736,6.1762,6.1715,6.1699,6.1698,6.1715,6.1715,6.1713,6.1711,6.1707,6.1706,6.1705,6.1701,6.1698,6.1711,6.1706,6.1699,6.1699,6.1699,6.1699,6.1699,6.1699,6.1699,6.1699,6.1699,6.1699,6.1699,6.1699,6.1699,6.1699,6.1699,6.1699,6.1699,6.1699,6.1699,6.1699,6.1699,6.1699,6.1699,6.1699,6.1094,6.0919,6.045,6.0509,6.0723,6.0899,6.1055,6.1055,6.1055,6.0938,6.0762,6.0411,6.0353,6.045,6.0684,6.0997,6.1114,6.0938,6.1036,6.1094,6.1407,6.1699,6.1699,6.1699,6.1699,6.166,6.1699,6.1699,6.1699,6.1699,6.1699,6.1094,6.1094,6.1094,6.1094,6.1094,6.1094,6.1094,6.1094,6.1094,6.1094,6.1094,6.1094,6.1094,6.1094,6.1094,6.1094,6.1094,6.1094,6.1094,6.1094,6.1094,6.1094,6.1094,6.1094,6.1094,6.1094,6.1094,6.1094,6.1094,6.1094,6.1094,6.1094,6.1094,6.1094,6.1094,6.1094,6.1094,6.1141,6.1251,6.1516,6.1724,6.1937,6.2011,6.2095,6.2107,6.2026,6.1806,6.1716,6.1699,6.1699,6.1699,6.1699,6.1699,6.1713,6.1712,6.1712,6.1709,6.1707,6.1702,6.1718,6.1712,6.1707,6.1703,6.1699,6.1699,6.1699,6.1699,6.1699,6.1699,6.1699,6.1699,6.1699,6.1699,6.1699,6.1699,6.1699,6.1699,6.1699,6.1699,6.1699,6.1701,6.1701,6.1701,6.1699,6.1524,6.1582,6.1621,6.1701,6.1701,6.1701,6.1701,6.166,6.1621,6.1426,6.1368,6.1368,6.1407,6.166,6.1699,6.168,6.1641,6.1387,6.1582,6.1699,6.1699,6.1699,6.1699,6.1699,6.1699,6.1699,6.1699,6.1699,6.1699,6.1699,6.1699,6.1094,6.1094,6.1094,6.1094,6.1094,6.1094,6.1094,6.1094,6.1094,6.1094,6.1094,6.1094,6.1094,6.1094,6.1094,6.1094,6.1094,6.1094,6.1094,6.1094,6.1094,6.1094,6.1094,6.1094,6.1094,6.1094,6.1094,6.1094,6.1094,6.1094,6.1094,6.1094,6.1094,6.1094,6.1094,6.1094,6.1094,6.1141,6.147,6.1829,6.2203,6.2662,6.2797,6.2868,6.2769,6.2422,6.2093,6.1793,6.1737,6.1699,6.1699,6.1699,6.1699,6.1699,6.1717,6.1716,6.1713,6.1711,6.1709,6.1707,6.1704,6.1717,6.1709,6.1703,6.1699,6.1699,6.1699,6.1699,6.1699,6.1699,6.1699,6.1699,6.1699,6.1699,6.1699,6.1699,6.1699,6.1699,6.1699,6.1699,6.1702,6.1704,6.1707,6.1707,6.1708,6.1709,6.1711,6.171,6.171,6.1705,6.1704,6.1699,6.1681,6.1701,6.1701,6.1701,6.1699,6.1699,6.1699,6.1699,6.1699,6.1699,6.1699,6.1699,6.1699,6.1699,6.1699,6.1699,6.1699,6.1699,6.1699,6.1699,6.1699,6.1699,6.1699,6.1094,6.1094,6.1094,6.1094,6.1094,6.1094,6.1094,6.1094,6.1094,6.1094,6.1094,6.1094,6.1094,6.1094,6.1094,6.1094,6.1094,6.1094,6.1094,6.1094,6.1094,6.1094,6.1094,6.1094,6.1094,6.1094,6.1094,6.1094,6.1094,6.1094,6.1094,6.1094,6.1094,6.1094,6.1094,6.1094,6.1094,6.1287,6.1713,6.2226,6.275,6.3257,6.3514,6.365,6.3327,6.291,6.2555,6.2004,6.1853,6.1699,6.1699,6.1699,6.1699,6.1699,6.1699,6.1699,6.1717,6.1715,6.1715,6.1711,6.1709,6.1707,6.1703,6.1713,6.1706,6.1702,6.1702,6.1704,6.1705,6.1706,6.1706,6.1706,6.1706,6.1706,6.1706,6.1706,6.1706,6.1706,6.1706,6.1707,6.1708,6.1713,6.1717,6.17,6.1701,6.1702,6.1702,6.17,6.1698,6.1714,6.1711,6.1708,6.1708,6.171,6.1704,6.1702,6.1701,6.1699,6.1703,6.1704,6.1704,6.1704,6.1701,6.1701,6.1704,6.1702,6.1699,6.1699,6.1699,6.1699,6.1699,6.1699,6.1699,6.1699,6.1699,6.0325,6.0596,6.0615,6.0809,6.1075,6.1094,6.1094,6.1094,6.1094,6.1094,6.1094,6.1094,6.1094,6.1094,6.1094,6.1094,6.1094,6.1094,6.1094,6.1094,6.1094,6.1094,6.1094,6.1094,6.1094,6.1094,6.1094,6.1094,6.1094,6.1094,6.1094,6.1094,6.1094,6.1094,6.1094,6.1094,6.1094,6.1427,6.1923,6.2568,6.321,6.388,6.4347,6.4471,6.3999,6.3648,6.3032,6.2388,6.2103,6.1796,6.1699,6.1699,6.1699,6.1699,6.1699,6.1699,6.1699,6.1698,6.1698,6.1717,6.1715,6.1713,6.1712,6.1707,6.1701,6.1716,6.1716,6.1716,6.1715,6.1714,6.1713,6.1713,6.1714,6.1714,6.1714,6.1714,6.1714,6.1714,6.1714,6.1715,6.1699,6.1704,6.1707,6.1709,6.1709,6.1707,6.1706,6.1706,6.1705,6.1704,6.1702,6.1699,6.17,6.1702,6.1714,6.171,6.1712,6.1714,6.1717,6.1717,6.1712,6.1713,6.1715,6.1713,6.171,6.1709,6.1708,6.1701,6.1699,6.1759,6.1819,6.1819,6.1798,6.1699,6.1699,5.9092,5.9822,5.9885,6.0344,6.0944,6.1041,6.1094,6.1094,6.1094,6.1094,6.1094,6.1094,6.1094,6.1094,6.1094,6.1094,6.1094,6.1094,6.1094,6.1094,6.1094,6.1094,6.1094,6.1094,6.1094,6.1094,6.1094,6.1094,6.1094,6.1094,6.1094,6.1094,6.1094,6.1094,6.1094,6.1094,6.1113,6.1258,6.2006,6.2787,6.3755,6.4594,6.5341,6.5429,6.5138,6.4703,6.3533,6.2895,6.2613,6.2023,6.1717,6.1698,6.1699,6.1699,6.1699,6.1699,6.1699,6.1699,6.1699,6.1699,6.1699,6.1717,6.1717,6.1715,6.1712,6.1706,6.1704,6.1704,6.1703,6.1702,6.1702,6.1702,6.1703,6.1703,6.1703,6.1703,6.1703,6.1703,6.1705,6.1706,6.1709,6.1711,6.1714,6.1715,6.1715,6.1712,6.1712,6.1712,6.1699,6.1699,6.1709,6.1708,6.1709,6.1709,6.1705,6.1703,6.1705,6.1707,6.1707,6.1706,6.1702,6.1705,6.1708,6.1705,6.17,6.1699,6.1717,6.1712,6.1826,6.208,6.21,6.1998,6.1958,6.2115,6.1837,5.8705,5.8976,5.9614,6.0016,6.0267,6.0847,6.1075,6.1094,6.1094,6.1094,6.1094,6.1094,6.1094,6.1094,6.1094,6.1094,6.1094,6.1094,6.1094,6.1094,6.1094,6.1094,6.1094,6.1094,6.1094,6.1094,6.1094,6.1094,6.1094,6.1094,6.1094,6.1094,6.1094,6.1094,6.1094,6.1094,6.1118,6.1157,6.1983,6.2872,6.3789,6.5183,6.6151,6.6012,6.5735,6.5007,6.3983,6.3284,6.2621,6.1898,6.1753,6.1717,6.1699,6.1699,6.1699,6.1699,6.1699,6.1699,6.1699,6.1699,6.1699,6.1699,6.1699,6.1699,6.1717,6.1713,6.171,6.171,6.171,6.171,6.171,6.171,6.171,6.171,6.171,6.171,6.171,6.1711,6.1712,6.1713,6.1715,6.1716,6.1717,6.1699,6.1699,6.1698,6.1699,6.1699,6.1699,6.1699,6.1699,6.1714,6.1715,6.1714,6.1712,6.1711,6.1713,6.1712,6.1711,6.171,6.1699,6.1711,6.1713,6.171,6.1707,6.1707,6.1726,6.1744,6.1919,6.2306,6.2735,6.2792,6.3164,6.34,6.2689,5.7675,5.8101,5.8956,5.9324,5.9479,6.0209,6.0557,6.0634,6.0944,6.1094,6.1094,6.1094,6.1094,6.1094,6.1094,6.1094,6.1094,6.1094,6.1094,6.1094,6.1094,6.1094,6.1094,6.1094,6.1094,6.1094,6.1094,6.1094,6.1094,6.1094,6.1094,6.1094,6.1094,6.1094,6.1094,6.1094,6.1094,6.1133,6.1964,6.2839,6.3724,6.4994,6.6082,6.6058,6.603,6.5344,6.471,6.393,6.3122,6.2334,6.1984,6.1736,6.1699,6.1699,6.1699,6.1699,6.1699,6.1699,6.1699,6.1699,6.1699,6.1699,6.1699,6.1699,6.1699,6.1717,6.1717,6.1717,6.1717,6.1717,6.1717,6.1717,6.1717,6.1717,6.1717,6.1717,6.1717,6.1717,6.1717,6.1717,6.1698,6.1698,6.1699,6.1699,6.1699,6.1699,6.1699,6.1699,6.1699,6.1699,6.1699,6.1699,6.1699,6.1699,6.1717,6.1717,6.1717,6.1716,6.1699,6.1699,6.1699,6.1699,6.1716,6.1715,6.1714,6.1713,6.1732,6.2024,6.2296,6.2702,6.3231,6.368,6.4151,6.4503,6.3815,5.6472,5.7226,5.8062,5.8434,5.8569,5.9362,5.9827,6.002,6.0615,6.1002,6.1094,6.1094,6.1094,6.1094,6.1094,6.1094,6.1094,6.1094,6.1094,6.1094,6.1094,6.1094,6.1094,6.1094,6.1094,6.1094,6.1094,6.1094,6.1094,6.1094,6.1094,6.1094,6.1094,6.1094,6.1094,6.1094,6.1094,6.1229,6.1834,6.2704,6.3623,6.4537,6.5523,6.6158,6.6435,6.6091,6.5353,6.4559,6.3741,6.2935,6.2133,6.1831,6.1717,6.1699,6.1699,6.1699,6.1699,6.1699,6.1699,6.1699,6.1699,6.1699,6.1699,6.1699,6.1699,6.1699,6.1699,6.1699,6.1699,6.1699,6.1699,6.1699,6.1699,6.1699,6.1699,6.1699,6.1699,6.1699,6.1699,6.1699,6.1699,6.1699,6.1699,6.1699,6.1699,6.1699,6.1699,6.1699,6.1699,6.1699,6.1699,6.1699,6.1699,6.1699,6.1699,6.1699,6.1699,6.1699,6.1699,6.1699,6.1699,6.1699,6.1719,6.1757,6.1757,6.2031,6.2363,6.2712,6.2964,6.3379,6.396,6.4586,6.5055,6.527,6.4878,5.6085,5.6317,5.7168,5.7555,5.7671,5.8473,5.9227,5.9846,6.0035,6.048,6.0944,6.1075,6.1094,6.1094,6.1094,6.1094,6.1094,6.1094,6.1094,6.1094,6.1094,6.1094,6.1094,6.1094,6.1094,6.1094,6.1094,6.1094,6.1094,6.1094,6.1094,6.1094,6.1094,6.1094,6.1094,6.1094,6.1113,6.1229,6.1427,6.2143,6.3574,6.4532,6.5417,6.6017,6.6438,6.5941,6.5291,6.4505,6.3741,6.2941,6.2194,6.1827,6.1717,6.1699,6.1699,6.1699,6.1699,6.1699,6.1699,6.1699,6.1699,6.1699,6.1699,6.1699,6.1699,6.1699,6.1699,6.1699,6.1699,6.1699,6.1699,6.1699,6.1699,6.1699,6.1699,6.1699,6.1699,6.1699,6.1699,6.1699,6.1699,6.1699,6.1699,6.1699,6.1699,6.1699,6.1699,6.1699,6.1699,6.1699,6.1699,6.1699,6.1699,6.1699,6.1699,6.1699,6.1699,6.1699,6.1797,6.1953,6.1953,6.1738,6.1758,6.2246,6.2519,6.2812,6.3125,6.3457,6.4101,6.457,6.5,6.5508,6.5937,6.6055,6.5703]}]]